﻿<?xml version="1.0" encoding="UTF-8" standalone="no" ?>
<gpx xmlns="http://www.topografix.com/GPX/1/1" creator="CompeGPS" version="1.1" xmlns:xsi="http://www.w3.org/2001/XMLSchema-instance" xsi:schemaLocation="http://www.topografix.com/GPX/1/1 http://www.topografix.com/GPX/1/1/gpx.xsd http://www.garmin.com/xmlschemas/GpxExtensions/v3 http://www.garmin.com/xmlschemas/GpxExtensionsv3.xsd http://www.garmin.com/xmlschemas/TrackPointExtension/v1 http://www.garmin.com/xmlschemas/TrackPointExtensionv1.xsd" xmlns:gpxtpx="http://www.garmin.com/xmlschemas/TrackPointExtension/v1">
  <metadata>
    <link href="http://www.compegps.com">
      <text>CompeGPS TEAM, SL</text>
    </link>
    <time>2013-03-29T13:20:13Z</time>
    <bounds maxlat="42.737480" maxlon="1.804120" minlat="42.675662" minlon="1.747870"/>
  </metadata>
<wpt lat="42.707497" lon="1.804119">
  <ele>1085</ele>
  <name>Centre de vacance</name>
</wpt>
<wpt lat="42.716910" lon="1.785681">
  <ele>1495</ele>
  <name>Cbne de Gireys</name>
</wpt>
<wpt lat="42.708639" lon="1.770734">
  <ele>1943</ele>
  <name>Falgarouse</name>
</wpt>
<wpt lat="42.702082" lon="1.764134">
  <ele>2021</ele>
  <name>Bourbourou</name>
</wpt>
<wpt lat="42.675662" lon="1.748702">
  <ele>2263</ele>
  <name>Pic Espaillat</name>
</wpt>
<wpt lat="42.713210" lon="1.753472">
  <ele>1819</ele>
  <name>Roche Riou Caud</name>
</wpt>
<wpt lat="42.720328" lon="1.759499">
  <ele>1704</ele>
  <name>Cbne du Mouscadou</name>
</wpt>
<wpt lat="42.724679" lon="1.766817">
  <ele>1530</ele>
  <name>Cbne de Tessoulat</name>
</wpt>
<wpt lat="42.731146" lon="1.777158">
  <ele>1270</ele>
  <name>Cbne de Bisort</name>
</wpt>
<wpt lat="42.736573" lon="1.786430">
  <ele>740</ele>
  <name>Parking Le Castelet</name>
</wpt>
  <trk>
    <name>Pic Espaillat</name>
    <trkseg>
      <trkpt lat="42.707497" lon="1.804119">
        <ele>1086.9</ele>
        <time>2013-03-21T08:31:19Z</time>
        <name>Centre de vacance</name>
      </trkpt>
      <trkpt lat="42.707526" lon="1.804008">
        <ele>1088.8</ele>
        <time>2013-03-21T08:33:23Z</time>
      </trkpt>
      <trkpt lat="42.707515" lon="1.803874">
        <ele>1088.8</ele>
        <time>2013-03-21T08:33:35Z</time>
      </trkpt>
      <trkpt lat="42.707509" lon="1.803733">
        <ele>1089.8</ele>
        <time>2013-03-21T08:33:46Z</time>
      </trkpt>
      <trkpt lat="42.707514" lon="1.803582">
        <ele>1089.8</ele>
        <time>2013-03-21T08:33:57Z</time>
      </trkpt>
      <trkpt lat="42.707495" lon="1.803441">
        <ele>1089.8</ele>
        <time>2013-03-21T08:34:07Z</time>
      </trkpt>
      <trkpt lat="42.707468" lon="1.803307">
        <ele>1090.8</ele>
        <time>2013-03-21T08:34:16Z</time>
      </trkpt>
      <trkpt lat="42.707442" lon="1.803167">
        <ele>1091.2</ele>
        <time>2013-03-21T08:34:26Z</time>
      </trkpt>
      <trkpt lat="42.707427" lon="1.803018">
        <ele>1092.7</ele>
        <time>2013-03-21T08:34:38Z</time>
      </trkpt>
      <trkpt lat="42.707437" lon="1.802858">
        <ele>1093.6</ele>
        <time>2013-03-21T08:34:49Z</time>
      </trkpt>
      <trkpt lat="42.707440" lon="1.802705">
        <ele>1093.6</ele>
        <time>2013-03-21T08:35:00Z</time>
      </trkpt>
      <trkpt lat="42.707426" lon="1.802564">
        <ele>1094.1</ele>
        <time>2013-03-21T08:35:11Z</time>
      </trkpt>
      <trkpt lat="42.707411" lon="1.802421">
        <ele>1095.1</ele>
        <time>2013-03-21T08:35:24Z</time>
      </trkpt>
      <trkpt lat="42.707387" lon="1.802247">
        <ele>1095.6</ele>
        <time>2013-03-21T08:35:35Z</time>
      </trkpt>
      <trkpt lat="42.707397" lon="1.802062">
        <ele>1096.0</ele>
        <time>2013-03-21T08:35:46Z</time>
      </trkpt>
      <trkpt lat="42.707421" lon="1.801905">
        <ele>1097.0</ele>
        <time>2013-03-21T08:35:57Z</time>
      </trkpt>
      <trkpt lat="42.707431" lon="1.801741">
        <ele>1097.5</ele>
        <time>2013-03-21T08:36:08Z</time>
      </trkpt>
      <trkpt lat="42.707432" lon="1.801583">
        <ele>1097.5</ele>
        <time>2013-03-21T08:36:19Z</time>
      </trkpt>
      <trkpt lat="42.707438" lon="1.801431">
        <ele>1098.0</ele>
        <time>2013-03-21T08:36:30Z</time>
      </trkpt>
      <trkpt lat="42.707427" lon="1.801275">
        <ele>1098.9</ele>
        <time>2013-03-21T08:36:42Z</time>
      </trkpt>
      <trkpt lat="42.707408" lon="1.801131">
        <ele>1100.4</ele>
        <time>2013-03-21T08:36:54Z</time>
      </trkpt>
      <trkpt lat="42.707405" lon="1.800971">
        <ele>1100.8</ele>
        <time>2013-03-21T08:37:07Z</time>
      </trkpt>
      <trkpt lat="42.707411" lon="1.800817">
        <ele>1101.3</ele>
        <time>2013-03-21T08:37:18Z</time>
      </trkpt>
      <trkpt lat="42.707422" lon="1.800662">
        <ele>1100.8</ele>
        <time>2013-03-21T08:37:28Z</time>
      </trkpt>
      <trkpt lat="42.707457" lon="1.800522">
        <ele>1102.8</ele>
        <time>2013-03-21T08:37:39Z</time>
      </trkpt>
      <trkpt lat="42.707489" lon="1.800347">
        <ele>1103.2</ele>
        <time>2013-03-21T08:37:52Z</time>
      </trkpt>
      <trkpt lat="42.707531" lon="1.800182">
        <ele>1104.2</ele>
        <time>2013-03-21T08:38:05Z</time>
      </trkpt>
      <trkpt lat="42.707558" lon="1.800014">
        <ele>1106.1</ele>
        <time>2013-03-21T08:38:18Z</time>
      </trkpt>
      <trkpt lat="42.707576" lon="1.799816">
        <ele>1105.7</ele>
        <time>2013-03-21T08:38:30Z</time>
      </trkpt>
      <trkpt lat="42.707580" lon="1.799643">
        <ele>1107.1</ele>
        <time>2013-03-21T08:38:43Z</time>
      </trkpt>
      <trkpt lat="42.707603" lon="1.799486">
        <ele>1107.6</ele>
        <time>2013-03-21T08:38:54Z</time>
      </trkpt>
      <trkpt lat="42.707618" lon="1.799307">
        <ele>1108.5</ele>
        <time>2013-03-21T08:39:07Z</time>
      </trkpt>
      <trkpt lat="42.707643" lon="1.799151">
        <ele>1109.5</ele>
        <time>2013-03-21T08:39:19Z</time>
      </trkpt>
      <trkpt lat="42.707684" lon="1.799011">
        <ele>1109.5</ele>
        <time>2013-03-21T08:39:31Z</time>
      </trkpt>
      <trkpt lat="42.707735" lon="1.798848">
        <ele>1110.5</ele>
        <time>2013-03-21T08:39:42Z</time>
      </trkpt>
      <trkpt lat="42.707749" lon="1.798695">
        <ele>1112.4</ele>
        <time>2013-03-21T08:39:54Z</time>
      </trkpt>
      <trkpt lat="42.707792" lon="1.798545">
        <ele>1113.3</ele>
        <time>2013-03-21T08:40:05Z</time>
      </trkpt>
      <trkpt lat="42.707815" lon="1.798408">
        <ele>1114.3</ele>
        <time>2013-03-21T08:40:14Z</time>
      </trkpt>
      <trkpt lat="42.707843" lon="1.798260">
        <ele>1115.3</ele>
        <time>2013-03-21T08:40:24Z</time>
      </trkpt>
      <trkpt lat="42.707881" lon="1.798276">
        <ele>1114.8</ele>
        <time>2013-03-21T08:40:41Z</time>
      </trkpt>
      <trkpt lat="42.708002" lon="1.798401">
        <ele>1116.7</ele>
        <time>2013-03-21T08:40:57Z</time>
      </trkpt>
      <trkpt lat="42.708112" lon="1.798449">
        <ele>1116.7</ele>
        <time>2013-03-21T08:41:06Z</time>
      </trkpt>
      <trkpt lat="42.708208" lon="1.798517">
        <ele>1117.2</ele>
        <time>2013-03-21T08:41:18Z</time>
      </trkpt>
      <trkpt lat="42.708301" lon="1.798596">
        <ele>1118.2</ele>
        <time>2013-03-21T08:41:31Z</time>
      </trkpt>
      <trkpt lat="42.708367" lon="1.798620">
        <ele>1122.0</ele>
        <time>2013-03-21T08:41:52Z</time>
      </trkpt>
      <trkpt lat="42.708467" lon="1.798508">
        <ele>1125.4</ele>
        <time>2013-03-21T08:42:11Z</time>
      </trkpt>
      <trkpt lat="42.708486" lon="1.798400">
        <ele>1130.2</ele>
        <time>2013-03-21T08:42:42Z</time>
      </trkpt>
      <trkpt lat="42.708516" lon="1.798214">
        <ele>1129.7</ele>
        <time>2013-03-21T08:42:59Z</time>
      </trkpt>
      <trkpt lat="42.708587" lon="1.798069">
        <ele>1130.7</ele>
        <time>2013-03-21T08:43:19Z</time>
      </trkpt>
      <trkpt lat="42.708656" lon="1.797964">
        <ele>1134.0</ele>
        <time>2013-03-21T08:43:38Z</time>
      </trkpt>
      <trkpt lat="42.708774" lon="1.797867">
        <ele>1138.3</ele>
        <time>2013-03-21T08:44:03Z</time>
      </trkpt>
      <trkpt lat="42.708874" lon="1.797765">
        <ele>1143.6</ele>
        <time>2013-03-21T08:44:34Z</time>
      </trkpt>
      <trkpt lat="42.708961" lon="1.797601">
        <ele>1146.5</ele>
        <time>2013-03-21T08:44:58Z</time>
      </trkpt>
      <trkpt lat="42.709066" lon="1.797481">
        <ele>1150.3</ele>
        <time>2013-03-21T08:45:39Z</time>
      </trkpt>
      <trkpt lat="42.709184" lon="1.797356">
        <ele>1158.1</ele>
        <time>2013-03-21T08:46:15Z</time>
      </trkpt>
      <trkpt lat="42.709291" lon="1.797354">
        <ele>1164.3</ele>
        <time>2013-03-21T08:47:02Z</time>
      </trkpt>
      <trkpt lat="42.709360" lon="1.797239">
        <ele>1167.7</ele>
        <time>2013-03-21T08:47:25Z</time>
      </trkpt>
      <trkpt lat="42.709459" lon="1.797127">
        <ele>1173.4</ele>
        <time>2013-03-21T08:47:57Z</time>
      </trkpt>
      <trkpt lat="42.709545" lon="1.796965">
        <ele>1174.9</ele>
        <time>2013-03-21T08:48:36Z</time>
      </trkpt>
      <trkpt lat="42.709587" lon="1.796728">
        <ele>1176.3</ele>
        <time>2013-03-21T08:48:56Z</time>
      </trkpt>
      <trkpt lat="42.709633" lon="1.796497">
        <ele>1176.3</ele>
        <time>2013-03-21T08:49:21Z</time>
      </trkpt>
      <trkpt lat="42.709693" lon="1.796265">
        <ele>1182.6</ele>
        <time>2013-03-21T08:49:47Z</time>
      </trkpt>
      <trkpt lat="42.709750" lon="1.796176">
        <ele>1186.9</ele>
        <time>2013-03-21T08:55:01Z</time>
      </trkpt>
      <trkpt lat="42.709885" lon="1.796070">
        <ele>1193.6</ele>
        <time>2013-03-21T08:55:27Z</time>
      </trkpt>
      <trkpt lat="42.710012" lon="1.796151">
        <ele>1201.8</ele>
        <time>2013-03-21T08:56:06Z</time>
      </trkpt>
      <trkpt lat="42.710118" lon="1.796009">
        <ele>1209.0</ele>
        <time>2013-03-21T08:56:40Z</time>
      </trkpt>
      <trkpt lat="42.710290" lon="1.795964">
        <ele>1216.2</ele>
        <time>2013-03-21T08:57:23Z</time>
      </trkpt>
      <trkpt lat="42.710418" lon="1.795958">
        <ele>1225.8</ele>
        <time>2013-03-21T08:58:15Z</time>
      </trkpt>
      <trkpt lat="42.710500" lon="1.795901">
        <ele>1232.6</ele>
        <time>2013-03-21T08:58:51Z</time>
      </trkpt>
      <trkpt lat="42.710565" lon="1.795910">
        <ele>1236.9</ele>
        <time>2013-03-21T08:59:18Z</time>
      </trkpt>
      <trkpt lat="42.710686" lon="1.795761">
        <ele>1245.5</ele>
        <time>2013-03-21T09:00:31Z</time>
      </trkpt>
      <trkpt lat="42.710758" lon="1.795686">
        <ele>1250.3</ele>
        <time>2013-03-21T09:00:53Z</time>
      </trkpt>
      <trkpt lat="42.710880" lon="1.795631">
        <ele>1258.5</ele>
        <time>2013-03-21T09:01:44Z</time>
      </trkpt>
      <trkpt lat="42.710955" lon="1.795536">
        <ele>1263.3</ele>
        <time>2013-03-21T09:02:17Z</time>
      </trkpt>
      <trkpt lat="42.711056" lon="1.795636">
        <ele>1271.0</ele>
        <time>2013-03-21T09:03:03Z</time>
      </trkpt>
      <trkpt lat="42.711162" lon="1.795582">
        <ele>1278.7</ele>
        <time>2013-03-21T09:03:57Z</time>
      </trkpt>
      <trkpt lat="42.711280" lon="1.795474">
        <ele>1286.4</ele>
        <time>2013-03-21T09:06:44Z</time>
      </trkpt>
      <trkpt lat="42.711353" lon="1.795507">
        <ele>1291.2</ele>
        <time>2013-03-21T09:07:19Z</time>
      </trkpt>
      <trkpt lat="42.711456" lon="1.795553">
        <ele>1296.0</ele>
        <time>2013-03-21T09:07:49Z</time>
      </trkpt>
      <trkpt lat="42.711507" lon="1.795515">
        <ele>1300.8</ele>
        <time>2013-03-21T09:08:15Z</time>
      </trkpt>
      <trkpt lat="42.711613" lon="1.795542">
        <ele>1308.0</ele>
        <time>2013-03-21T09:08:56Z</time>
      </trkpt>
      <trkpt lat="42.711692" lon="1.795523">
        <ele>1312.3</ele>
        <time>2013-03-21T09:09:28Z</time>
      </trkpt>
      <trkpt lat="42.711829" lon="1.795493">
        <ele>1319.6</ele>
        <time>2013-03-21T09:10:12Z</time>
      </trkpt>
      <trkpt lat="42.711982" lon="1.795514">
        <ele>1324.3</ele>
        <time>2013-03-21T09:10:58Z</time>
      </trkpt>
      <trkpt lat="42.712058" lon="1.795484">
        <ele>1330.1</ele>
        <time>2013-03-21T09:11:25Z</time>
      </trkpt>
      <trkpt lat="42.712187" lon="1.795470">
        <ele>1334.0</ele>
        <time>2013-03-21T09:11:51Z</time>
      </trkpt>
      <trkpt lat="42.712234" lon="1.795371">
        <ele>1336.4</ele>
        <time>2013-03-21T09:12:33Z</time>
      </trkpt>
      <trkpt lat="42.712310" lon="1.795286">
        <ele>1343.1</ele>
        <time>2013-03-21T09:13:06Z</time>
      </trkpt>
      <trkpt lat="42.712388" lon="1.795178">
        <ele>1346.9</ele>
        <time>2013-03-21T09:13:36Z</time>
      </trkpt>
      <trkpt lat="42.712545" lon="1.795091">
        <ele>1351.8</ele>
        <time>2013-03-21T09:14:07Z</time>
      </trkpt>
      <trkpt lat="42.712651" lon="1.795048">
        <ele>1354.6</ele>
        <time>2013-03-21T09:14:29Z</time>
      </trkpt>
      <trkpt lat="42.712754" lon="1.794938">
        <ele>1361.4</ele>
        <time>2013-03-21T09:15:08Z</time>
      </trkpt>
      <trkpt lat="42.712868" lon="1.794917">
        <ele>1365.7</ele>
        <time>2013-03-21T09:15:30Z</time>
      </trkpt>
      <trkpt lat="42.712949" lon="1.794841">
        <ele>1370.5</ele>
        <time>2013-03-21T09:15:54Z</time>
      </trkpt>
      <trkpt lat="42.713051" lon="1.794820">
        <ele>1372.4</ele>
        <time>2013-03-21T09:16:16Z</time>
      </trkpt>
      <trkpt lat="42.713144" lon="1.794835">
        <ele>1376.3</ele>
        <time>2013-03-21T09:16:46Z</time>
      </trkpt>
      <trkpt lat="42.713206" lon="1.794769">
        <ele>1378.2</ele>
        <time>2013-03-21T09:17:49Z</time>
      </trkpt>
      <trkpt lat="42.713300" lon="1.794678">
        <ele>1381.6</ele>
        <time>2013-03-21T09:18:09Z</time>
      </trkpt>
      <trkpt lat="42.713379" lon="1.794563">
        <ele>1383.5</ele>
        <time>2013-03-21T09:18:32Z</time>
      </trkpt>
      <trkpt lat="42.713458" lon="1.794491">
        <ele>1384.0</ele>
        <time>2013-03-21T09:18:50Z</time>
      </trkpt>
      <trkpt lat="42.713570" lon="1.794375">
        <ele>1384.4</ele>
        <time>2013-03-21T09:19:09Z</time>
      </trkpt>
      <trkpt lat="42.713664" lon="1.794433">
        <ele>1387.8</ele>
        <time>2013-03-21T09:19:37Z</time>
      </trkpt>
      <trkpt lat="42.713766" lon="1.794315">
        <ele>1390.7</ele>
        <time>2013-03-21T09:19:58Z</time>
      </trkpt>
      <trkpt lat="42.713839" lon="1.794193">
        <ele>1394.5</ele>
        <time>2013-03-21T09:20:21Z</time>
      </trkpt>
      <trkpt lat="42.713929" lon="1.794020">
        <ele>1396.0</ele>
        <time>2013-03-21T09:20:41Z</time>
      </trkpt>
      <trkpt lat="42.713972" lon="1.793866">
        <ele>1396.9</ele>
        <time>2013-03-21T09:21:08Z</time>
      </trkpt>
      <trkpt lat="42.714065" lon="1.793768">
        <ele>1399.8</ele>
        <time>2013-03-21T09:21:35Z</time>
      </trkpt>
      <trkpt lat="42.714167" lon="1.793642">
        <ele>1404.1</ele>
        <time>2013-03-21T09:22:02Z</time>
      </trkpt>
      <trkpt lat="42.714188" lon="1.793427">
        <ele>1406.6</ele>
        <time>2013-03-21T09:23:08Z</time>
      </trkpt>
      <trkpt lat="42.714248" lon="1.793245">
        <ele>1408.9</ele>
        <time>2013-03-21T09:23:33Z</time>
      </trkpt>
      <trkpt lat="42.714231" lon="1.793065">
        <ele>1408.9</ele>
        <time>2013-03-21T09:23:52Z</time>
      </trkpt>
      <trkpt lat="42.714215" lon="1.792875">
        <ele>1409.4</ele>
        <time>2013-03-21T09:24:14Z</time>
      </trkpt>
      <trkpt lat="42.714241" lon="1.792664">
        <ele>1408.9</ele>
        <time>2013-03-21T09:24:39Z</time>
      </trkpt>
      <trkpt lat="42.714330" lon="1.792446">
        <ele>1409.9</ele>
        <time>2013-03-21T09:24:56Z</time>
      </trkpt>
      <trkpt lat="42.714419" lon="1.792305">
        <ele>1410.4</ele>
        <time>2013-03-21T09:25:14Z</time>
      </trkpt>
      <trkpt lat="42.714569" lon="1.792231">
        <ele>1413.3</ele>
        <time>2013-03-21T09:25:40Z</time>
      </trkpt>
      <trkpt lat="42.714785" lon="1.791878">
        <ele>1421.0</ele>
        <time>2013-03-21T09:26:56Z</time>
      </trkpt>
      <trkpt lat="42.714837" lon="1.791721">
        <ele>1425.8</ele>
        <time>2013-03-21T09:27:44Z</time>
      </trkpt>
      <trkpt lat="42.714899" lon="1.791593">
        <ele>1431.1</ele>
        <time>2013-03-21T09:28:17Z</time>
      </trkpt>
      <trkpt lat="42.715008" lon="1.791405">
        <ele>1435.4</ele>
        <time>2013-03-21T09:28:48Z</time>
      </trkpt>
      <trkpt lat="42.715066" lon="1.791261">
        <ele>1439.7</ele>
        <time>2013-03-21T09:29:14Z</time>
      </trkpt>
      <trkpt lat="42.715091" lon="1.791158">
        <ele>1443.6</ele>
        <time>2013-03-21T09:29:39Z</time>
      </trkpt>
      <trkpt lat="42.715100" lon="1.790877">
        <ele>1446.4</ele>
        <time>2013-03-21T09:30:09Z</time>
      </trkpt>
      <trkpt lat="42.715161" lon="1.790692">
        <ele>1446.4</ele>
        <time>2013-03-21T09:30:32Z</time>
      </trkpt>
      <trkpt lat="42.715286" lon="1.790618">
        <ele>1449.8</ele>
        <time>2013-03-21T09:31:13Z</time>
      </trkpt>
      <trkpt lat="42.715516" lon="1.790470">
        <ele>1454.6</ele>
        <time>2013-03-21T09:32:02Z</time>
      </trkpt>
      <trkpt lat="42.715519" lon="1.790355">
        <ele>1454.1</ele>
        <time>2013-03-21T09:32:37Z</time>
      </trkpt>
      <trkpt lat="42.715551" lon="1.790208">
        <ele>1458.5</ele>
        <time>2013-03-21T09:32:52Z</time>
      </trkpt>
      <trkpt lat="42.715603" lon="1.790099">
        <ele>1460.9</ele>
        <time>2013-03-21T09:33:07Z</time>
      </trkpt>
      <trkpt lat="42.715615" lon="1.789975">
        <ele>1462.3</ele>
        <time>2013-03-21T09:33:21Z</time>
      </trkpt>
      <trkpt lat="42.715654" lon="1.789856">
        <ele>1464.2</ele>
        <time>2013-03-21T09:33:36Z</time>
      </trkpt>
      <trkpt lat="42.715707" lon="1.789752">
        <ele>1466.2</ele>
        <time>2013-03-21T09:33:50Z</time>
      </trkpt>
      <trkpt lat="42.715757" lon="1.789646">
        <ele>1468.1</ele>
        <time>2013-03-21T09:34:03Z</time>
      </trkpt>
      <trkpt lat="42.715812" lon="1.789553">
        <ele>1470.5</ele>
        <time>2013-03-21T09:34:17Z</time>
      </trkpt>
      <trkpt lat="42.715848" lon="1.789434">
        <ele>1471.9</ele>
        <time>2013-03-21T09:34:31Z</time>
      </trkpt>
      <trkpt lat="42.715881" lon="1.789316">
        <ele>1473.8</ele>
        <time>2013-03-21T09:34:44Z</time>
      </trkpt>
      <trkpt lat="42.715899" lon="1.789169">
        <ele>1474.3</ele>
        <time>2013-03-21T09:34:59Z</time>
      </trkpt>
      <trkpt lat="42.715913" lon="1.789060">
        <ele>1474.8</ele>
        <time>2013-03-21T09:35:39Z</time>
      </trkpt>
      <trkpt lat="42.715978" lon="1.788959">
        <ele>1475.3</ele>
        <time>2013-03-21T09:36:19Z</time>
      </trkpt>
      <trkpt lat="42.715993" lon="1.788828">
        <ele>1475.3</ele>
        <time>2013-03-21T09:36:30Z</time>
      </trkpt>
      <trkpt lat="42.716029" lon="1.788706">
        <ele>1475.3</ele>
        <time>2013-03-21T09:36:40Z</time>
      </trkpt>
      <trkpt lat="42.716072" lon="1.788581">
        <ele>1475.3</ele>
        <time>2013-03-21T09:36:49Z</time>
      </trkpt>
      <trkpt lat="42.716112" lon="1.788451">
        <ele>1475.3</ele>
        <time>2013-03-21T09:36:59Z</time>
      </trkpt>
      <trkpt lat="42.716145" lon="1.788319">
        <ele>1475.3</ele>
        <time>2013-03-21T09:37:08Z</time>
      </trkpt>
      <trkpt lat="42.716176" lon="1.788191">
        <ele>1474.8</ele>
        <time>2013-03-21T09:37:17Z</time>
      </trkpt>
      <trkpt lat="42.716222" lon="1.788068">
        <ele>1474.3</ele>
        <time>2013-03-21T09:37:26Z</time>
      </trkpt>
      <trkpt lat="42.716270" lon="1.787957">
        <ele>1474.8</ele>
        <time>2013-03-21T09:37:35Z</time>
      </trkpt>
      <trkpt lat="42.716302" lon="1.787847">
        <ele>1474.8</ele>
        <time>2013-03-21T09:37:44Z</time>
      </trkpt>
      <trkpt lat="42.716326" lon="1.787695">
        <ele>1473.8</ele>
        <time>2013-03-21T09:37:54Z</time>
      </trkpt>
      <trkpt lat="42.716391" lon="1.787582">
        <ele>1473.8</ele>
        <time>2013-03-21T09:38:04Z</time>
      </trkpt>
      <trkpt lat="42.716461" lon="1.787469">
        <ele>1474.3</ele>
        <time>2013-03-21T09:38:15Z</time>
      </trkpt>
      <trkpt lat="42.716531" lon="1.787373">
        <ele>1474.8</ele>
        <time>2013-03-21T09:38:27Z</time>
      </trkpt>
      <trkpt lat="42.716598" lon="1.787225">
        <ele>1476.2</ele>
        <time>2013-03-21T09:38:41Z</time>
      </trkpt>
      <trkpt lat="42.716643" lon="1.787120">
        <ele>1476.2</ele>
        <time>2013-03-21T09:38:50Z</time>
      </trkpt>
      <trkpt lat="42.716688" lon="1.786998">
        <ele>1476.7</ele>
        <time>2013-03-21T09:39:00Z</time>
      </trkpt>
      <trkpt lat="42.716737" lon="1.786864">
        <ele>1478.2</ele>
        <time>2013-03-21T09:39:13Z</time>
      </trkpt>
      <trkpt lat="42.716763" lon="1.786738">
        <ele>1481.1</ele>
        <time>2013-03-21T09:39:28Z</time>
      </trkpt>
      <trkpt lat="42.716776" lon="1.786612">
        <ele>1483.4</ele>
        <time>2013-03-21T09:39:44Z</time>
      </trkpt>
      <trkpt lat="42.716804" lon="1.786489">
        <ele>1486.3</ele>
        <time>2013-03-21T09:39:58Z</time>
      </trkpt>
      <trkpt lat="42.716832" lon="1.786369">
        <ele>1488.3</ele>
        <time>2013-03-21T09:40:14Z</time>
      </trkpt>
      <trkpt lat="42.716868" lon="1.786257">
        <ele>1491.6</ele>
        <time>2013-03-21T09:40:35Z</time>
      </trkpt>
      <trkpt lat="42.716873" lon="1.786127">
        <ele>1493.1</ele>
        <time>2013-03-21T09:40:49Z</time>
      </trkpt>
      <trkpt lat="42.716889" lon="1.786002">
        <ele>1495.0</ele>
        <time>2013-03-21T09:41:02Z</time>
      </trkpt>
      <trkpt lat="42.716913" lon="1.785884">
        <ele>1495.0</ele>
        <time>2013-03-21T09:41:15Z</time>
      </trkpt>
      <trkpt lat="42.716881" lon="1.785797">
        <ele>1495.5</ele>
        <time>2013-03-21T09:41:48Z</time>
      </trkpt>
      <trkpt lat="42.716927" lon="1.785741">
        <ele>1495.5</ele>
        <time>2013-03-21T09:42:26Z</time>
      </trkpt>
      <trkpt lat="42.716906" lon="1.785776">
        <ele>1495.9</ele>
        <time>2013-03-21T09:43:28Z</time>
      </trkpt>
      <trkpt lat="42.716919" lon="1.785848">
        <ele>1496.4</ele>
        <time>2013-03-21T09:44:37Z</time>
      </trkpt>
      <trkpt lat="42.716910" lon="1.785681">
        <ele>1496.4</ele>
        <time>2013-03-21T09:46:32Z</time>
        <name>Cbne de Gireys</name>
      </trkpt>
      <trkpt lat="42.716992" lon="1.785814">
        <ele>1494.5</ele>
        <time>2013-03-21T09:52:03Z</time>
      </trkpt>
      <trkpt lat="42.716974" lon="1.785809">
        <ele>1493.1</ele>
        <time>2013-03-21T09:52:19Z</time>
      </trkpt>
      <trkpt lat="42.716912" lon="1.785724">
        <ele>1493.6</ele>
        <time>2013-03-21T09:59:21Z</time>
      </trkpt>
      <trkpt lat="42.716901" lon="1.785736">
        <ele>1494.0</ele>
        <time>2013-03-21T09:59:46Z</time>
      </trkpt>
      <trkpt lat="42.716881" lon="1.785677">
        <ele>1494.5</ele>
        <time>2013-03-21T10:00:04Z</time>
      </trkpt>
      <trkpt lat="42.716867" lon="1.785578">
        <ele>1494.0</ele>
        <time>2013-03-21T10:00:36Z</time>
      </trkpt>
      <trkpt lat="42.716865" lon="1.785497">
        <ele>1494.5</ele>
        <time>2013-03-21T10:01:24Z</time>
      </trkpt>
      <trkpt lat="42.716839" lon="1.785382">
        <ele>1494.0</ele>
        <time>2013-03-21T10:03:22Z</time>
      </trkpt>
      <trkpt lat="42.716793" lon="1.785275">
        <ele>1494.0</ele>
        <time>2013-03-21T10:03:44Z</time>
      </trkpt>
      <trkpt lat="42.716744" lon="1.785159">
        <ele>1493.6</ele>
        <time>2013-03-21T10:04:17Z</time>
      </trkpt>
      <trkpt lat="42.716686" lon="1.785053">
        <ele>1492.1</ele>
        <time>2013-03-21T10:04:25Z</time>
      </trkpt>
      <trkpt lat="42.716615" lon="1.784992">
        <ele>1492.6</ele>
        <time>2013-03-21T10:04:33Z</time>
      </trkpt>
      <trkpt lat="42.716541" lon="1.784917">
        <ele>1493.1</ele>
        <time>2013-03-21T10:04:43Z</time>
      </trkpt>
      <trkpt lat="42.716458" lon="1.784844">
        <ele>1493.6</ele>
        <time>2013-03-21T10:04:53Z</time>
      </trkpt>
      <trkpt lat="42.716379" lon="1.784780">
        <ele>1494.5</ele>
        <time>2013-03-21T10:05:02Z</time>
      </trkpt>
      <trkpt lat="42.716302" lon="1.784712">
        <ele>1494.5</ele>
        <time>2013-03-21T10:05:11Z</time>
      </trkpt>
      <trkpt lat="42.716234" lon="1.784632">
        <ele>1495.0</ele>
        <time>2013-03-21T10:05:19Z</time>
      </trkpt>
      <trkpt lat="42.716143" lon="1.784573">
        <ele>1495.0</ele>
        <time>2013-03-21T10:05:28Z</time>
      </trkpt>
      <trkpt lat="42.716071" lon="1.784494">
        <ele>1495.0</ele>
        <time>2013-03-21T10:05:36Z</time>
      </trkpt>
      <trkpt lat="42.715986" lon="1.784428">
        <ele>1495.9</ele>
        <time>2013-03-21T10:05:46Z</time>
      </trkpt>
      <trkpt lat="42.715903" lon="1.784362">
        <ele>1496.4</ele>
        <time>2013-03-21T10:05:56Z</time>
      </trkpt>
      <trkpt lat="42.715824" lon="1.784314">
        <ele>1497.9</ele>
        <time>2013-03-21T10:06:24Z</time>
      </trkpt>
      <trkpt lat="42.715742" lon="1.784222">
        <ele>1499.3</ele>
        <time>2013-03-21T10:06:35Z</time>
      </trkpt>
      <trkpt lat="42.715662" lon="1.784155">
        <ele>1501.7</ele>
        <time>2013-03-21T10:06:49Z</time>
      </trkpt>
      <trkpt lat="42.715580" lon="1.784076">
        <ele>1503.6</ele>
        <time>2013-03-21T10:07:07Z</time>
      </trkpt>
      <trkpt lat="42.715503" lon="1.784012">
        <ele>1506.0</ele>
        <time>2013-03-21T10:07:20Z</time>
      </trkpt>
      <trkpt lat="42.715422" lon="1.783961">
        <ele>1508.4</ele>
        <time>2013-03-21T10:07:33Z</time>
      </trkpt>
      <trkpt lat="42.715363" lon="1.783873">
        <ele>1509.9</ele>
        <time>2013-03-21T10:07:45Z</time>
      </trkpt>
      <trkpt lat="42.715286" lon="1.783789">
        <ele>1512.8</ele>
        <time>2013-03-21T10:07:59Z</time>
      </trkpt>
      <trkpt lat="42.715212" lon="1.783726">
        <ele>1515.7</ele>
        <time>2013-03-21T10:08:16Z</time>
      </trkpt>
      <trkpt lat="42.715131" lon="1.783662">
        <ele>1518.5</ele>
        <time>2013-03-21T10:08:34Z</time>
      </trkpt>
      <trkpt lat="42.715032" lon="1.783612">
        <ele>1521.9</ele>
        <time>2013-03-21T10:08:51Z</time>
      </trkpt>
      <trkpt lat="42.714952" lon="1.783538">
        <ele>1525.3</ele>
        <time>2013-03-21T10:09:07Z</time>
      </trkpt>
      <trkpt lat="42.714870" lon="1.783481">
        <ele>1528.2</ele>
        <time>2013-03-21T10:09:28Z</time>
      </trkpt>
      <trkpt lat="42.714744" lon="1.783381">
        <ele>1531.0</ele>
        <time>2013-03-21T10:09:51Z</time>
      </trkpt>
      <trkpt lat="42.714619" lon="1.783206">
        <ele>1536.3</ele>
        <time>2013-03-21T10:10:21Z</time>
      </trkpt>
      <trkpt lat="42.714590" lon="1.783035">
        <ele>1537.8</ele>
        <time>2013-03-21T10:10:43Z</time>
      </trkpt>
      <trkpt lat="42.714498" lon="1.782844">
        <ele>1541.1</ele>
        <time>2013-03-21T10:11:05Z</time>
      </trkpt>
      <trkpt lat="42.714415" lon="1.782831">
        <ele>1543.1</ele>
        <time>2013-03-21T10:11:19Z</time>
      </trkpt>
      <trkpt lat="42.714358" lon="1.782702">
        <ele>1545.0</ele>
        <time>2013-03-21T10:11:35Z</time>
      </trkpt>
      <trkpt lat="42.714331" lon="1.782578">
        <ele>1546.9</ele>
        <time>2013-03-21T10:11:56Z</time>
      </trkpt>
      <trkpt lat="42.714238" lon="1.782475">
        <ele>1551.7</ele>
        <time>2013-03-21T10:12:23Z</time>
      </trkpt>
      <trkpt lat="42.714160" lon="1.782347">
        <ele>1555.6</ele>
        <time>2013-03-21T10:12:47Z</time>
      </trkpt>
      <trkpt lat="42.714078" lon="1.782172">
        <ele>1559.9</ele>
        <time>2013-03-21T10:13:15Z</time>
      </trkpt>
      <trkpt lat="42.713984" lon="1.781973">
        <ele>1566.1</ele>
        <time>2013-03-21T10:13:56Z</time>
      </trkpt>
      <trkpt lat="42.713944" lon="1.781766">
        <ele>1571.9</ele>
        <time>2013-03-21T10:14:27Z</time>
      </trkpt>
      <trkpt lat="42.713911" lon="1.781612">
        <ele>1575.3</ele>
        <time>2013-03-21T10:14:50Z</time>
      </trkpt>
      <trkpt lat="42.713962" lon="1.781455">
        <ele>1575.7</ele>
        <time>2013-03-21T10:15:07Z</time>
      </trkpt>
      <trkpt lat="42.713918" lon="1.781327">
        <ele>1577.7</ele>
        <time>2013-03-21T10:15:25Z</time>
      </trkpt>
      <trkpt lat="42.713876" lon="1.781200">
        <ele>1582.0</ele>
        <time>2013-03-21T10:15:47Z</time>
      </trkpt>
      <trkpt lat="42.713837" lon="1.781019">
        <ele>1585.3</ele>
        <time>2013-03-21T10:16:15Z</time>
      </trkpt>
      <trkpt lat="42.713789" lon="1.780824">
        <ele>1590.6</ele>
        <time>2013-03-21T10:16:48Z</time>
      </trkpt>
      <trkpt lat="42.713789" lon="1.780603">
        <ele>1596.4</ele>
        <time>2013-03-21T10:17:20Z</time>
      </trkpt>
      <trkpt lat="42.713733" lon="1.780450">
        <ele>1599.8</ele>
        <time>2013-03-21T10:17:47Z</time>
      </trkpt>
      <trkpt lat="42.713715" lon="1.780271">
        <ele>1603.6</ele>
        <time>2013-03-21T10:18:18Z</time>
      </trkpt>
      <trkpt lat="42.713650" lon="1.780043">
        <ele>1609.4</ele>
        <time>2013-03-21T10:18:54Z</time>
      </trkpt>
      <trkpt lat="42.713589" lon="1.779932">
        <ele>1614.7</ele>
        <time>2013-03-21T10:19:25Z</time>
      </trkpt>
      <trkpt lat="42.713530" lon="1.779808">
        <ele>1620.0</ele>
        <time>2013-03-21T10:19:59Z</time>
      </trkpt>
      <trkpt lat="42.713491" lon="1.779682">
        <ele>1624.8</ele>
        <time>2013-03-21T10:20:28Z</time>
      </trkpt>
      <trkpt lat="42.713402" lon="1.779518">
        <ele>1631.5</ele>
        <time>2013-03-21T10:21:06Z</time>
      </trkpt>
      <trkpt lat="42.713337" lon="1.779382">
        <ele>1637.3</ele>
        <time>2013-03-21T10:21:46Z</time>
      </trkpt>
      <trkpt lat="42.713286" lon="1.779147">
        <ele>1644.5</ele>
        <time>2013-03-21T10:22:29Z</time>
      </trkpt>
      <trkpt lat="42.713285" lon="1.778939">
        <ele>1648.8</ele>
        <time>2013-03-21T10:22:57Z</time>
      </trkpt>
      <trkpt lat="42.713284" lon="1.778694">
        <ele>1657.4</ele>
        <time>2013-03-21T10:23:47Z</time>
      </trkpt>
      <trkpt lat="42.713235" lon="1.778527">
        <ele>1662.7</ele>
        <time>2013-03-21T10:24:19Z</time>
      </trkpt>
      <trkpt lat="42.713275" lon="1.778314">
        <ele>1669.0</ele>
        <time>2013-03-21T10:25:02Z</time>
      </trkpt>
      <trkpt lat="42.713310" lon="1.778145">
        <ele>1672.3</ele>
        <time>2013-03-21T10:25:30Z</time>
      </trkpt>
      <trkpt lat="42.713199" lon="1.777985">
        <ele>1679.6</ele>
        <time>2013-03-21T10:26:09Z</time>
      </trkpt>
      <trkpt lat="42.713139" lon="1.777744">
        <ele>1688.7</ele>
        <time>2013-03-21T10:27:00Z</time>
      </trkpt>
      <trkpt lat="42.713069" lon="1.777579">
        <ele>1694.0</ele>
        <time>2013-03-21T10:27:33Z</time>
      </trkpt>
      <trkpt lat="42.713014" lon="1.777460">
        <ele>1699.8</ele>
        <time>2013-03-21T10:28:11Z</time>
      </trkpt>
      <trkpt lat="42.712949" lon="1.777377">
        <ele>1705.5</ele>
        <time>2013-03-21T10:28:51Z</time>
      </trkpt>
      <trkpt lat="42.712903" lon="1.777162">
        <ele>1712.7</ele>
        <time>2013-03-21T10:29:34Z</time>
      </trkpt>
      <trkpt lat="42.712803" lon="1.777045">
        <ele>1719.0</ele>
        <time>2013-03-21T10:30:17Z</time>
      </trkpt>
      <trkpt lat="42.712719" lon="1.776974">
        <ele>1723.3</ele>
        <time>2013-03-21T10:30:43Z</time>
      </trkpt>
      <trkpt lat="42.712641" lon="1.776847">
        <ele>1727.2</ele>
        <time>2013-03-21T10:31:15Z</time>
      </trkpt>
      <trkpt lat="42.712556" lon="1.776826">
        <ele>1731.0</ele>
        <time>2013-03-21T10:31:34Z</time>
      </trkpt>
      <trkpt lat="42.712520" lon="1.776760">
        <ele>1733.4</ele>
        <time>2013-03-21T10:32:11Z</time>
      </trkpt>
      <trkpt lat="42.712460" lon="1.776612">
        <ele>1740.1</ele>
        <time>2013-03-21T10:32:47Z</time>
      </trkpt>
      <trkpt lat="42.712402" lon="1.776433">
        <ele>1744.0</ele>
        <time>2013-03-21T10:33:19Z</time>
      </trkpt>
      <trkpt lat="42.712377" lon="1.776250">
        <ele>1749.7</ele>
        <time>2013-03-21T10:33:56Z</time>
      </trkpt>
      <trkpt lat="42.712379" lon="1.776082">
        <ele>1755.0</ele>
        <time>2013-03-21T10:36:26Z</time>
      </trkpt>
      <trkpt lat="42.712371" lon="1.775988">
        <ele>1759.8</ele>
        <time>2013-03-21T10:36:50Z</time>
      </trkpt>
      <trkpt lat="42.712377" lon="1.775855">
        <ele>1764.2</ele>
        <time>2013-03-21T10:37:21Z</time>
      </trkpt>
      <trkpt lat="42.712277" lon="1.775784">
        <ele>1769.0</ele>
        <time>2013-03-21T10:37:54Z</time>
      </trkpt>
      <trkpt lat="42.712195" lon="1.775737">
        <ele>1772.8</ele>
        <time>2013-03-21T10:38:21Z</time>
      </trkpt>
      <trkpt lat="42.712135" lon="1.775636">
        <ele>1777.6</ele>
        <time>2013-03-21T10:38:48Z</time>
      </trkpt>
      <trkpt lat="42.712120" lon="1.775547">
        <ele>1781.5</ele>
        <time>2013-03-21T10:39:12Z</time>
      </trkpt>
      <trkpt lat="42.712106" lon="1.775463">
        <ele>1785.8</ele>
        <time>2013-03-21T10:39:38Z</time>
      </trkpt>
      <trkpt lat="42.712055" lon="1.775381">
        <ele>1790.6</ele>
        <time>2013-03-21T10:40:09Z</time>
      </trkpt>
      <trkpt lat="42.711992" lon="1.775313">
        <ele>1794.9</ele>
        <time>2013-03-21T10:40:37Z</time>
      </trkpt>
      <trkpt lat="42.712024" lon="1.775172">
        <ele>1799.7</ele>
        <time>2013-03-21T10:41:20Z</time>
      </trkpt>
      <trkpt lat="42.712063" lon="1.775047">
        <ele>1801.2</ele>
        <time>2013-03-21T10:41:41Z</time>
      </trkpt>
      <trkpt lat="42.712054" lon="1.774870">
        <ele>1804.1</ele>
        <time>2013-03-21T10:43:01Z</time>
      </trkpt>
      <trkpt lat="42.711999" lon="1.774815">
        <ele>1806.9</ele>
        <time>2013-03-21T10:43:29Z</time>
      </trkpt>
      <trkpt lat="42.711909" lon="1.774807">
        <ele>1811.3</ele>
        <time>2013-03-21T10:44:02Z</time>
      </trkpt>
      <trkpt lat="42.711837" lon="1.774798">
        <ele>1815.6</ele>
        <time>2013-03-21T10:44:28Z</time>
      </trkpt>
      <trkpt lat="42.711739" lon="1.774769">
        <ele>1819.4</ele>
        <time>2013-03-21T10:44:59Z</time>
      </trkpt>
      <trkpt lat="42.711644" lon="1.774706">
        <ele>1823.3</ele>
        <time>2013-03-21T10:45:27Z</time>
      </trkpt>
      <trkpt lat="42.711565" lon="1.774676">
        <ele>1827.1</ele>
        <time>2013-03-21T10:45:51Z</time>
      </trkpt>
      <trkpt lat="42.711492" lon="1.774619">
        <ele>1828.1</ele>
        <time>2013-03-21T10:46:41Z</time>
      </trkpt>
      <trkpt lat="42.711421" lon="1.774648">
        <ele>1830.0</ele>
        <time>2013-03-21T10:47:15Z</time>
      </trkpt>
      <trkpt lat="42.711326" lon="1.774622">
        <ele>1832.4</ele>
        <time>2013-03-21T10:48:12Z</time>
      </trkpt>
      <trkpt lat="42.711239" lon="1.774631">
        <ele>1833.4</ele>
        <time>2013-03-21T10:48:25Z</time>
      </trkpt>
      <trkpt lat="42.711153" lon="1.774626">
        <ele>1834.3</ele>
        <time>2013-03-21T10:48:40Z</time>
      </trkpt>
      <trkpt lat="42.711048" lon="1.774597">
        <ele>1836.3</ele>
        <time>2013-03-21T10:48:53Z</time>
      </trkpt>
      <trkpt lat="42.710955" lon="1.774577">
        <ele>1836.7</ele>
        <time>2013-03-21T10:49:05Z</time>
      </trkpt>
      <trkpt lat="42.710859" lon="1.774559">
        <ele>1837.7</ele>
        <time>2013-03-21T10:49:16Z</time>
      </trkpt>
      <trkpt lat="42.710767" lon="1.774572">
        <ele>1839.6</ele>
        <time>2013-03-21T10:49:28Z</time>
      </trkpt>
      <trkpt lat="42.710680" lon="1.774556">
        <ele>1840.6</ele>
        <time>2013-03-21T10:49:40Z</time>
      </trkpt>
      <trkpt lat="42.710593" lon="1.774515">
        <ele>1842.5</ele>
        <time>2013-03-21T10:49:55Z</time>
      </trkpt>
      <trkpt lat="42.710509" lon="1.774464">
        <ele>1843.9</ele>
        <time>2013-03-21T10:50:12Z</time>
      </trkpt>
      <trkpt lat="42.710432" lon="1.774388">
        <ele>1846.8</ele>
        <time>2013-03-21T10:50:30Z</time>
      </trkpt>
      <trkpt lat="42.710362" lon="1.774286">
        <ele>1848.8</ele>
        <time>2013-03-21T10:50:48Z</time>
      </trkpt>
      <trkpt lat="42.710304" lon="1.774215">
        <ele>1851.2</ele>
        <time>2013-03-21T10:51:05Z</time>
      </trkpt>
      <trkpt lat="42.710228" lon="1.774110">
        <ele>1853.1</ele>
        <time>2013-03-21T10:51:24Z</time>
      </trkpt>
      <trkpt lat="42.710163" lon="1.774029">
        <ele>1856.9</ele>
        <time>2013-03-21T10:51:44Z</time>
      </trkpt>
      <trkpt lat="42.710105" lon="1.773933">
        <ele>1859.8</ele>
        <time>2013-03-21T10:52:04Z</time>
      </trkpt>
      <trkpt lat="42.710060" lon="1.773827">
        <ele>1861.7</ele>
        <time>2013-03-21T10:52:21Z</time>
      </trkpt>
      <trkpt lat="42.710013" lon="1.773734">
        <ele>1865.1</ele>
        <time>2013-03-21T10:52:40Z</time>
      </trkpt>
      <trkpt lat="42.709972" lon="1.773641">
        <ele>1868.0</ele>
        <time>2013-03-21T10:53:03Z</time>
      </trkpt>
      <trkpt lat="42.709923" lon="1.773532">
        <ele>1870.9</ele>
        <time>2013-03-21T10:53:21Z</time>
      </trkpt>
      <trkpt lat="42.709874" lon="1.773466">
        <ele>1873.8</ele>
        <time>2013-03-21T10:53:40Z</time>
      </trkpt>
      <trkpt lat="42.709816" lon="1.773379">
        <ele>1875.7</ele>
        <time>2013-03-21T10:54:00Z</time>
      </trkpt>
      <trkpt lat="42.709758" lon="1.773282">
        <ele>1880.0</ele>
        <time>2013-03-21T10:54:17Z</time>
      </trkpt>
      <trkpt lat="42.709711" lon="1.773217">
        <ele>1881.9</ele>
        <time>2013-03-21T10:54:33Z</time>
      </trkpt>
      <trkpt lat="42.709663" lon="1.773122">
        <ele>1885.8</ele>
        <time>2013-03-21T10:54:47Z</time>
      </trkpt>
      <trkpt lat="42.709611" lon="1.773017">
        <ele>1889.1</ele>
        <time>2013-03-21T10:54:59Z</time>
      </trkpt>
      <trkpt lat="42.709561" lon="1.772911">
        <ele>1892.0</ele>
        <time>2013-03-21T10:55:09Z</time>
      </trkpt>
      <trkpt lat="42.709531" lon="1.772807">
        <ele>1894.9</ele>
        <time>2013-03-21T10:55:20Z</time>
      </trkpt>
      <trkpt lat="42.709503" lon="1.772707">
        <ele>1897.8</ele>
        <time>2013-03-21T10:55:40Z</time>
      </trkpt>
      <trkpt lat="42.709484" lon="1.772589">
        <ele>1901.1</ele>
        <time>2013-03-21T10:55:54Z</time>
      </trkpt>
      <trkpt lat="42.709474" lon="1.772476">
        <ele>1903.6</ele>
        <time>2013-03-21T10:56:09Z</time>
      </trkpt>
      <trkpt lat="42.709410" lon="1.772414">
        <ele>1906.9</ele>
        <time>2013-03-21T10:56:26Z</time>
      </trkpt>
      <trkpt lat="42.709321" lon="1.772388">
        <ele>1909.3</ele>
        <time>2013-03-21T10:56:43Z</time>
      </trkpt>
      <trkpt lat="42.709280" lon="1.772253">
        <ele>1913.2</ele>
        <time>2013-03-21T10:56:58Z</time>
      </trkpt>
      <trkpt lat="42.709294" lon="1.772124">
        <ele>1916.0</ele>
        <time>2013-03-21T10:57:12Z</time>
      </trkpt>
      <trkpt lat="42.709285" lon="1.771995">
        <ele>1918.4</ele>
        <time>2013-03-21T10:57:25Z</time>
      </trkpt>
      <trkpt lat="42.709251" lon="1.771881">
        <ele>1922.8</ele>
        <time>2013-03-21T10:57:39Z</time>
      </trkpt>
      <trkpt lat="42.709217" lon="1.771768">
        <ele>1923.7</ele>
        <time>2013-03-21T10:57:53Z</time>
      </trkpt>
      <trkpt lat="42.709164" lon="1.771693">
        <ele>1926.1</ele>
        <time>2013-03-21T10:58:07Z</time>
      </trkpt>
      <trkpt lat="42.709110" lon="1.771581">
        <ele>1928.5</ele>
        <time>2013-03-21T10:58:21Z</time>
      </trkpt>
      <trkpt lat="42.709063" lon="1.771467">
        <ele>1931.4</ele>
        <time>2013-03-21T10:58:34Z</time>
      </trkpt>
      <trkpt lat="42.709012" lon="1.771370">
        <ele>1934.3</ele>
        <time>2013-03-21T10:58:47Z</time>
      </trkpt>
      <trkpt lat="42.708962" lon="1.771293">
        <ele>1936.2</ele>
        <time>2013-03-21T10:59:01Z</time>
      </trkpt>
      <trkpt lat="42.708899" lon="1.771202">
        <ele>1938.2</ele>
        <time>2013-03-21T10:59:32Z</time>
      </trkpt>
      <trkpt lat="42.708830" lon="1.771102">
        <ele>1940.1</ele>
        <time>2013-03-21T10:59:46Z</time>
      </trkpt>
      <trkpt lat="42.708770" lon="1.771009">
        <ele>1942.0</ele>
        <time>2013-03-21T11:00:00Z</time>
      </trkpt>
      <trkpt lat="42.708716" lon="1.770910">
        <ele>1943.9</ele>
        <time>2013-03-21T11:00:16Z</time>
      </trkpt>
      <trkpt lat="42.708655" lon="1.770792">
        <ele>1946.3</ele>
        <time>2013-03-21T11:00:33Z</time>
      </trkpt>
      <trkpt lat="42.708612" lon="1.770731">
        <ele>1947.8</ele>
        <time>2013-03-21T11:01:19Z</time>
      </trkpt>
      <trkpt lat="42.708639" lon="1.770721">
        <ele>1947.3</ele>
        <time>2013-03-21T11:06:11Z</time>
      </trkpt>
      <trkpt lat="42.708639" lon="1.770734">
        <ele>1948.2</ele>
        <time>2013-03-21T11:13:52Z</time>
        <name>Falgarouse</name>
      </trkpt>
      <trkpt lat="42.708569" lon="1.770677">
        <ele>1948.2</ele>
        <time>2013-03-21T11:14:08Z</time>
      </trkpt>
      <trkpt lat="42.708513" lon="1.770567">
        <ele>1947.8</ele>
        <time>2013-03-21T11:14:19Z</time>
      </trkpt>
      <trkpt lat="42.708434" lon="1.770475">
        <ele>1947.3</ele>
        <time>2013-03-21T11:14:49Z</time>
      </trkpt>
      <trkpt lat="42.708368" lon="1.770397">
        <ele>1946.8</ele>
        <time>2013-03-21T11:14:58Z</time>
      </trkpt>
      <trkpt lat="42.708280" lon="1.770360">
        <ele>1946.8</ele>
        <time>2013-03-21T11:15:07Z</time>
      </trkpt>
      <trkpt lat="42.708193" lon="1.770309">
        <ele>1945.8</ele>
        <time>2013-03-21T11:15:16Z</time>
      </trkpt>
      <trkpt lat="42.708127" lon="1.770203">
        <ele>1944.4</ele>
        <time>2013-03-21T11:15:25Z</time>
      </trkpt>
      <trkpt lat="42.708051" lon="1.770122">
        <ele>1943.4</ele>
        <time>2013-03-21T11:15:33Z</time>
      </trkpt>
      <trkpt lat="42.707981" lon="1.770048">
        <ele>1942.0</ele>
        <time>2013-03-21T11:15:41Z</time>
      </trkpt>
      <trkpt lat="42.707915" lon="1.769955">
        <ele>1940.6</ele>
        <time>2013-03-21T11:15:49Z</time>
      </trkpt>
      <trkpt lat="42.707846" lon="1.769852">
        <ele>1940.1</ele>
        <time>2013-03-21T11:15:57Z</time>
      </trkpt>
      <trkpt lat="42.707786" lon="1.769755">
        <ele>1938.6</ele>
        <time>2013-03-21T11:16:05Z</time>
      </trkpt>
      <trkpt lat="42.707733" lon="1.769653">
        <ele>1936.7</ele>
        <time>2013-03-21T11:16:14Z</time>
      </trkpt>
      <trkpt lat="42.707678" lon="1.769530">
        <ele>1935.8</ele>
        <time>2013-03-21T11:16:23Z</time>
      </trkpt>
      <trkpt lat="42.707620" lon="1.769429">
        <ele>1934.8</ele>
        <time>2013-03-21T11:16:31Z</time>
      </trkpt>
      <trkpt lat="42.707565" lon="1.769328">
        <ele>1933.8</ele>
        <time>2013-03-21T11:16:39Z</time>
      </trkpt>
      <trkpt lat="42.707495" lon="1.769243">
        <ele>1933.3</ele>
        <time>2013-03-21T11:16:48Z</time>
      </trkpt>
      <trkpt lat="42.707434" lon="1.769176">
        <ele>1932.4</ele>
        <time>2013-03-21T11:16:57Z</time>
      </trkpt>
      <trkpt lat="42.707369" lon="1.769082">
        <ele>1932.4</ele>
        <time>2013-03-21T11:17:07Z</time>
      </trkpt>
      <trkpt lat="42.707295" lon="1.769002">
        <ele>1932.4</ele>
        <time>2013-03-21T11:17:17Z</time>
      </trkpt>
      <trkpt lat="42.707237" lon="1.768903">
        <ele>1932.4</ele>
        <time>2013-03-21T11:17:26Z</time>
      </trkpt>
      <trkpt lat="42.707189" lon="1.768779">
        <ele>1933.3</ele>
        <time>2013-03-21T11:17:36Z</time>
      </trkpt>
      <trkpt lat="42.707137" lon="1.768666">
        <ele>1933.3</ele>
        <time>2013-03-21T11:17:46Z</time>
      </trkpt>
      <trkpt lat="42.707089" lon="1.768564">
        <ele>1933.3</ele>
        <time>2013-03-21T11:17:56Z</time>
      </trkpt>
      <trkpt lat="42.707047" lon="1.768455">
        <ele>1933.8</ele>
        <time>2013-03-21T11:18:05Z</time>
      </trkpt>
      <trkpt lat="42.707005" lon="1.768339">
        <ele>1934.3</ele>
        <time>2013-03-21T11:18:15Z</time>
      </trkpt>
      <trkpt lat="42.706956" lon="1.768230">
        <ele>1935.3</ele>
        <time>2013-03-21T11:18:25Z</time>
      </trkpt>
      <trkpt lat="42.706918" lon="1.768109">
        <ele>1936.2</ele>
        <time>2013-03-21T11:18:37Z</time>
      </trkpt>
      <trkpt lat="42.706872" lon="1.767998">
        <ele>1937.7</ele>
        <time>2013-03-21T11:18:50Z</time>
      </trkpt>
      <trkpt lat="42.706828" lon="1.767886">
        <ele>1939.6</ele>
        <time>2013-03-21T11:19:03Z</time>
      </trkpt>
      <trkpt lat="42.706783" lon="1.767782">
        <ele>1942.0</ele>
        <time>2013-03-21T11:19:18Z</time>
      </trkpt>
      <trkpt lat="42.706736" lon="1.767673">
        <ele>1943.0</ele>
        <time>2013-03-21T11:19:30Z</time>
      </trkpt>
      <trkpt lat="42.706706" lon="1.767559">
        <ele>1944.9</ele>
        <time>2013-03-21T11:19:42Z</time>
      </trkpt>
      <trkpt lat="42.706665" lon="1.767472">
        <ele>1947.3</ele>
        <time>2013-03-21T11:19:57Z</time>
      </trkpt>
      <trkpt lat="42.706598" lon="1.767389">
        <ele>1949.2</ele>
        <time>2013-03-21T11:20:14Z</time>
      </trkpt>
      <trkpt lat="42.706523" lon="1.767334">
        <ele>1951.6</ele>
        <time>2013-03-21T11:20:32Z</time>
      </trkpt>
      <trkpt lat="42.706433" lon="1.767276">
        <ele>1952.6</ele>
        <time>2013-03-21T11:20:46Z</time>
      </trkpt>
      <trkpt lat="42.706341" lon="1.767231">
        <ele>1954.0</ele>
        <time>2013-03-21T11:21:00Z</time>
      </trkpt>
      <trkpt lat="42.706258" lon="1.767172">
        <ele>1955.5</ele>
        <time>2013-03-21T11:21:15Z</time>
      </trkpt>
      <trkpt lat="42.706176" lon="1.767112">
        <ele>1956.4</ele>
        <time>2013-03-21T11:21:27Z</time>
      </trkpt>
      <trkpt lat="42.706096" lon="1.767062">
        <ele>1958.3</ele>
        <time>2013-03-21T11:21:42Z</time>
      </trkpt>
      <trkpt lat="42.706023" lon="1.767004">
        <ele>1959.3</ele>
        <time>2013-03-21T11:21:55Z</time>
      </trkpt>
      <trkpt lat="42.705939" lon="1.766982">
        <ele>1960.8</ele>
        <time>2013-03-21T11:22:09Z</time>
      </trkpt>
      <trkpt lat="42.705855" lon="1.766987">
        <ele>1961.2</ele>
        <time>2013-03-21T11:22:20Z</time>
      </trkpt>
      <trkpt lat="42.705793" lon="1.766968">
        <ele>1962.2</ele>
        <time>2013-03-21T11:22:33Z</time>
      </trkpt>
      <trkpt lat="42.705744" lon="1.766854">
        <ele>1964.1</ele>
        <time>2013-03-21T11:22:46Z</time>
      </trkpt>
      <trkpt lat="42.705677" lon="1.766772">
        <ele>1965.1</ele>
        <time>2013-03-21T11:23:01Z</time>
      </trkpt>
      <trkpt lat="42.705592" lon="1.766708">
        <ele>1968.4</ele>
        <time>2013-03-21T11:23:20Z</time>
      </trkpt>
      <trkpt lat="42.705514" lon="1.766627">
        <ele>1968.9</ele>
        <time>2013-03-21T11:23:35Z</time>
      </trkpt>
      <trkpt lat="42.705441" lon="1.766579">
        <ele>1970.4</ele>
        <time>2013-03-21T11:24:07Z</time>
      </trkpt>
      <trkpt lat="42.705371" lon="1.766518">
        <ele>1971.8</ele>
        <time>2013-03-21T11:24:36Z</time>
      </trkpt>
      <trkpt lat="42.705277" lon="1.766459">
        <ele>1972.8</ele>
        <time>2013-03-21T11:24:46Z</time>
      </trkpt>
      <trkpt lat="42.705184" lon="1.766392">
        <ele>1974.7</ele>
        <time>2013-03-21T11:24:57Z</time>
      </trkpt>
      <trkpt lat="42.705100" lon="1.766333">
        <ele>1976.1</ele>
        <time>2013-03-21T11:25:09Z</time>
      </trkpt>
      <trkpt lat="42.705032" lon="1.766243">
        <ele>1977.6</ele>
        <time>2013-03-21T11:25:37Z</time>
      </trkpt>
      <trkpt lat="42.704956" lon="1.766168">
        <ele>1979.0</ele>
        <time>2013-03-21T11:25:48Z</time>
      </trkpt>
      <trkpt lat="42.704873" lon="1.766114">
        <ele>1980.0</ele>
        <time>2013-03-21T11:25:59Z</time>
      </trkpt>
      <trkpt lat="42.704788" lon="1.766059">
        <ele>1980.4</ele>
        <time>2013-03-21T11:26:10Z</time>
      </trkpt>
      <trkpt lat="42.704713" lon="1.765999">
        <ele>1983.3</ele>
        <time>2013-03-21T11:26:23Z</time>
      </trkpt>
      <trkpt lat="42.704621" lon="1.765976">
        <ele>1984.8</ele>
        <time>2013-03-21T11:26:37Z</time>
      </trkpt>
      <trkpt lat="42.704533" lon="1.765931">
        <ele>1987.2</ele>
        <time>2013-03-21T11:26:49Z</time>
      </trkpt>
      <trkpt lat="42.704444" lon="1.765886">
        <ele>1987.7</ele>
        <time>2013-03-21T11:27:01Z</time>
      </trkpt>
      <trkpt lat="42.704350" lon="1.765882">
        <ele>1989.1</ele>
        <time>2013-03-21T11:27:13Z</time>
      </trkpt>
      <trkpt lat="42.704258" lon="1.765844">
        <ele>1990.6</ele>
        <time>2013-03-21T11:27:25Z</time>
      </trkpt>
      <trkpt lat="42.704158" lon="1.765822">
        <ele>1991.0</ele>
        <time>2013-03-21T11:27:37Z</time>
      </trkpt>
      <trkpt lat="42.704066" lon="1.765805">
        <ele>1992.5</ele>
        <time>2013-03-21T11:27:48Z</time>
      </trkpt>
      <trkpt lat="42.703966" lon="1.765777">
        <ele>1994.9</ele>
        <time>2013-03-21T11:28:07Z</time>
      </trkpt>
      <trkpt lat="42.703865" lon="1.765749">
        <ele>1995.8</ele>
        <time>2013-03-21T11:28:19Z</time>
      </trkpt>
      <trkpt lat="42.703773" lon="1.765732">
        <ele>1997.3</ele>
        <time>2013-03-21T11:28:30Z</time>
      </trkpt>
      <trkpt lat="42.703674" lon="1.765696">
        <ele>1998.7</ele>
        <time>2013-03-21T11:28:43Z</time>
      </trkpt>
      <trkpt lat="42.703584" lon="1.765673">
        <ele>2000.2</ele>
        <time>2013-03-21T11:28:55Z</time>
      </trkpt>
      <trkpt lat="42.703493" lon="1.765657">
        <ele>2003.0</ele>
        <time>2013-03-21T11:29:10Z</time>
      </trkpt>
      <trkpt lat="42.703401" lon="1.765621">
        <ele>2003.5</ele>
        <time>2013-03-21T11:29:23Z</time>
      </trkpt>
      <trkpt lat="42.703314" lon="1.765605">
        <ele>2005.0</ele>
        <time>2013-03-21T11:29:37Z</time>
      </trkpt>
      <trkpt lat="42.703239" lon="1.765526">
        <ele>2006.9</ele>
        <time>2013-03-21T11:29:49Z</time>
      </trkpt>
      <trkpt lat="42.703146" lon="1.765479">
        <ele>2008.3</ele>
        <time>2013-03-21T11:30:02Z</time>
      </trkpt>
      <trkpt lat="42.703075" lon="1.765407">
        <ele>2009.8</ele>
        <time>2013-03-21T11:30:13Z</time>
      </trkpt>
      <trkpt lat="42.702997" lon="1.765331">
        <ele>2010.7</ele>
        <time>2013-03-21T11:30:25Z</time>
      </trkpt>
      <trkpt lat="42.702920" lon="1.765257">
        <ele>2012.2</ele>
        <time>2013-03-21T11:30:37Z</time>
      </trkpt>
      <trkpt lat="42.702852" lon="1.765185">
        <ele>2012.7</ele>
        <time>2013-03-21T11:30:56Z</time>
      </trkpt>
      <trkpt lat="42.702780" lon="1.765113">
        <ele>2014.1</ele>
        <time>2013-03-21T11:31:07Z</time>
      </trkpt>
      <trkpt lat="42.702705" lon="1.765055">
        <ele>2015.5</ele>
        <time>2013-03-21T11:31:17Z</time>
      </trkpt>
      <trkpt lat="42.702646" lon="1.764961">
        <ele>2016.5</ele>
        <time>2013-03-21T11:31:28Z</time>
      </trkpt>
      <trkpt lat="42.702572" lon="1.764877">
        <ele>2017.5</ele>
        <time>2013-03-21T11:31:40Z</time>
      </trkpt>
      <trkpt lat="42.702495" lon="1.764815">
        <ele>2019.4</ele>
        <time>2013-03-21T11:32:18Z</time>
      </trkpt>
      <trkpt lat="42.702437" lon="1.764708">
        <ele>2018.9</ele>
        <time>2013-03-21T11:32:29Z</time>
      </trkpt>
      <trkpt lat="42.702394" lon="1.764599">
        <ele>2020.8</ele>
        <time>2013-03-21T11:32:41Z</time>
      </trkpt>
      <trkpt lat="42.702340" lon="1.764498">
        <ele>2021.8</ele>
        <time>2013-03-21T11:32:50Z</time>
      </trkpt>
      <trkpt lat="42.702278" lon="1.764406">
        <ele>2022.3</ele>
        <time>2013-03-21T11:32:58Z</time>
      </trkpt>
      <trkpt lat="42.702214" lon="1.764314">
        <ele>2023.2</ele>
        <time>2013-03-21T11:33:07Z</time>
      </trkpt>
      <trkpt lat="42.702148" lon="1.764219">
        <ele>2023.7</ele>
        <time>2013-03-21T11:33:16Z</time>
      </trkpt>
      <trkpt lat="42.702082" lon="1.764134">
        <ele>2024.2</ele>
        <time>2013-03-21T11:33:26Z</time>
        <name>Bourbourou</name>
      </trkpt>
      <trkpt lat="42.702016" lon="1.764056">
        <ele>2024.7</ele>
        <time>2013-03-21T11:33:35Z</time>
      </trkpt>
      <trkpt lat="42.701941" lon="1.763995">
        <ele>2025.6</ele>
        <time>2013-03-21T11:33:46Z</time>
      </trkpt>
      <trkpt lat="42.701874" lon="1.763890">
        <ele>2026.1</ele>
        <time>2013-03-21T11:34:46Z</time>
      </trkpt>
      <trkpt lat="42.701829" lon="1.763782">
        <ele>2024.7</ele>
        <time>2013-03-21T11:34:55Z</time>
      </trkpt>
      <trkpt lat="42.701777" lon="1.763678">
        <ele>2024.2</ele>
        <time>2013-03-21T11:35:03Z</time>
      </trkpt>
      <trkpt lat="42.701734" lon="1.763565">
        <ele>2023.2</ele>
        <time>2013-03-21T11:35:12Z</time>
      </trkpt>
      <trkpt lat="42.701686" lon="1.763453">
        <ele>2022.3</ele>
        <time>2013-03-21T11:35:21Z</time>
      </trkpt>
      <trkpt lat="42.701638" lon="1.763337">
        <ele>2022.3</ele>
        <time>2013-03-21T11:35:30Z</time>
      </trkpt>
      <trkpt lat="42.701598" lon="1.763208">
        <ele>2020.8</ele>
        <time>2013-03-21T11:35:40Z</time>
      </trkpt>
      <trkpt lat="42.701569" lon="1.763097">
        <ele>2020.3</ele>
        <time>2013-03-21T11:35:48Z</time>
      </trkpt>
      <trkpt lat="42.701527" lon="1.762994">
        <ele>2019.4</ele>
        <time>2013-03-21T11:35:56Z</time>
      </trkpt>
      <trkpt lat="42.701486" lon="1.762877">
        <ele>2018.9</ele>
        <time>2013-03-21T11:36:05Z</time>
      </trkpt>
      <trkpt lat="42.701435" lon="1.762764">
        <ele>2017.9</ele>
        <time>2013-03-21T11:36:14Z</time>
      </trkpt>
      <trkpt lat="42.701389" lon="1.762649">
        <ele>2017.9</ele>
        <time>2013-03-21T11:36:23Z</time>
      </trkpt>
      <trkpt lat="42.701344" lon="1.762540">
        <ele>2017.5</ele>
        <time>2013-03-21T11:36:31Z</time>
      </trkpt>
      <trkpt lat="42.701300" lon="1.762424">
        <ele>2019.4</ele>
        <time>2013-03-21T11:36:40Z</time>
      </trkpt>
      <trkpt lat="42.701248" lon="1.762323">
        <ele>2019.9</ele>
        <time>2013-03-21T11:36:48Z</time>
      </trkpt>
      <trkpt lat="42.701194" lon="1.762215">
        <ele>2020.8</ele>
        <time>2013-03-21T11:36:57Z</time>
      </trkpt>
      <trkpt lat="42.701131" lon="1.762132">
        <ele>2020.3</ele>
        <time>2013-03-21T11:37:06Z</time>
      </trkpt>
      <trkpt lat="42.701057" lon="1.762073">
        <ele>2019.9</ele>
        <time>2013-03-21T11:37:15Z</time>
      </trkpt>
      <trkpt lat="42.701015" lon="1.761947">
        <ele>2017.9</ele>
        <time>2013-03-21T11:37:25Z</time>
      </trkpt>
      <trkpt lat="42.700963" lon="1.761832">
        <ele>2019.9</ele>
        <time>2013-03-21T11:37:35Z</time>
      </trkpt>
      <trkpt lat="42.700913" lon="1.761723">
        <ele>2018.4</ele>
        <time>2013-03-21T11:37:44Z</time>
      </trkpt>
      <trkpt lat="42.700868" lon="1.761618">
        <ele>2017.9</ele>
        <time>2013-03-21T11:37:54Z</time>
      </trkpt>
      <trkpt lat="42.700828" lon="1.761501">
        <ele>2017.9</ele>
        <time>2013-03-21T11:38:04Z</time>
      </trkpt>
      <trkpt lat="42.700773" lon="1.761415">
        <ele>2017.5</ele>
        <time>2013-03-21T11:38:12Z</time>
      </trkpt>
      <trkpt lat="42.700723" lon="1.761296">
        <ele>2017.5</ele>
        <time>2013-03-21T11:38:21Z</time>
      </trkpt>
      <trkpt lat="42.700687" lon="1.761170">
        <ele>2016.5</ele>
        <time>2013-03-21T11:38:30Z</time>
      </trkpt>
      <trkpt lat="42.700650" lon="1.761044">
        <ele>2016.5</ele>
        <time>2013-03-21T11:38:39Z</time>
      </trkpt>
      <trkpt lat="42.700615" lon="1.760930">
        <ele>2014.6</ele>
        <time>2013-03-21T11:38:51Z</time>
      </trkpt>
      <trkpt lat="42.700594" lon="1.760787">
        <ele>2013.1</ele>
        <time>2013-03-21T11:39:01Z</time>
      </trkpt>
      <trkpt lat="42.700571" lon="1.760651">
        <ele>2010.7</ele>
        <time>2013-03-21T11:39:10Z</time>
      </trkpt>
      <trkpt lat="42.700530" lon="1.760552">
        <ele>2008.8</ele>
        <time>2013-03-21T11:40:27Z</time>
      </trkpt>
      <trkpt lat="42.700495" lon="1.760437">
        <ele>2006.9</ele>
        <time>2013-03-21T11:40:36Z</time>
      </trkpt>
      <trkpt lat="42.700443" lon="1.760330">
        <ele>2005.4</ele>
        <time>2013-03-21T11:40:44Z</time>
      </trkpt>
      <trkpt lat="42.700408" lon="1.760214">
        <ele>2003.5</ele>
        <time>2013-03-21T11:40:52Z</time>
      </trkpt>
      <trkpt lat="42.700363" lon="1.760083">
        <ele>2002.1</ele>
        <time>2013-03-21T11:41:00Z</time>
      </trkpt>
      <trkpt lat="42.700318" lon="1.759966">
        <ele>2000.6</ele>
        <time>2013-03-21T11:41:08Z</time>
      </trkpt>
      <trkpt lat="42.700264" lon="1.759852">
        <ele>2000.6</ele>
        <time>2013-03-21T11:41:16Z</time>
      </trkpt>
      <trkpt lat="42.700203" lon="1.759738">
        <ele>2000.2</ele>
        <time>2013-03-21T11:41:24Z</time>
      </trkpt>
      <trkpt lat="42.700143" lon="1.759638">
        <ele>2000.2</ele>
        <time>2013-03-21T11:41:32Z</time>
      </trkpt>
      <trkpt lat="42.700088" lon="1.759545">
        <ele>1999.2</ele>
        <time>2013-03-21T11:41:40Z</time>
      </trkpt>
      <trkpt lat="42.700020" lon="1.759435">
        <ele>1998.7</ele>
        <time>2013-03-21T11:41:48Z</time>
      </trkpt>
      <trkpt lat="42.699952" lon="1.759336">
        <ele>1998.7</ele>
        <time>2013-03-21T11:41:56Z</time>
      </trkpt>
      <trkpt lat="42.699874" lon="1.759242">
        <ele>1998.2</ele>
        <time>2013-03-21T11:42:05Z</time>
      </trkpt>
      <trkpt lat="42.699809" lon="1.759140">
        <ele>1998.2</ele>
        <time>2013-03-21T11:42:13Z</time>
      </trkpt>
      <trkpt lat="42.699740" lon="1.759042">
        <ele>1997.3</ele>
        <time>2013-03-21T11:42:21Z</time>
      </trkpt>
      <trkpt lat="42.699667" lon="1.758954">
        <ele>1997.8</ele>
        <time>2013-03-21T11:42:29Z</time>
      </trkpt>
      <trkpt lat="42.699599" lon="1.758869">
        <ele>1997.3</ele>
        <time>2013-03-21T11:42:38Z</time>
      </trkpt>
      <trkpt lat="42.699530" lon="1.758796">
        <ele>1997.3</ele>
        <time>2013-03-21T11:42:47Z</time>
      </trkpt>
      <trkpt lat="42.699456" lon="1.758723">
        <ele>1997.8</ele>
        <time>2013-03-21T11:42:55Z</time>
      </trkpt>
      <trkpt lat="42.699360" lon="1.758655">
        <ele>1997.8</ele>
        <time>2013-03-21T11:43:04Z</time>
      </trkpt>
      <trkpt lat="42.699274" lon="1.758592">
        <ele>1998.7</ele>
        <time>2013-03-21T11:43:13Z</time>
      </trkpt>
      <trkpt lat="42.699193" lon="1.758535">
        <ele>1998.7</ele>
        <time>2013-03-21T11:43:21Z</time>
      </trkpt>
      <trkpt lat="42.699111" lon="1.758463">
        <ele>1999.2</ele>
        <time>2013-03-21T11:43:30Z</time>
      </trkpt>
      <trkpt lat="42.699032" lon="1.758400">
        <ele>1998.7</ele>
        <time>2013-03-21T11:43:38Z</time>
      </trkpt>
      <trkpt lat="42.698954" lon="1.758342">
        <ele>1999.7</ele>
        <time>2013-03-21T11:43:46Z</time>
      </trkpt>
      <trkpt lat="42.698870" lon="1.758296">
        <ele>1998.7</ele>
        <time>2013-03-21T11:43:55Z</time>
      </trkpt>
      <trkpt lat="42.698774" lon="1.758243">
        <ele>1998.7</ele>
        <time>2013-03-21T11:44:04Z</time>
      </trkpt>
      <trkpt lat="42.698693" lon="1.758184">
        <ele>1997.8</ele>
        <time>2013-03-21T11:44:12Z</time>
      </trkpt>
      <trkpt lat="42.698602" lon="1.758135">
        <ele>1997.3</ele>
        <time>2013-03-21T11:44:21Z</time>
      </trkpt>
      <trkpt lat="42.698517" lon="1.758088">
        <ele>1996.8</ele>
        <time>2013-03-21T11:44:29Z</time>
      </trkpt>
      <trkpt lat="42.698426" lon="1.758057">
        <ele>1996.8</ele>
        <time>2013-03-21T11:44:37Z</time>
      </trkpt>
      <trkpt lat="42.698337" lon="1.758039">
        <ele>1996.3</ele>
        <time>2013-03-21T11:44:45Z</time>
      </trkpt>
      <trkpt lat="42.698236" lon="1.757988">
        <ele>1995.8</ele>
        <time>2013-03-21T11:44:54Z</time>
      </trkpt>
      <trkpt lat="42.698149" lon="1.757973">
        <ele>1995.8</ele>
        <time>2013-03-21T11:45:02Z</time>
      </trkpt>
      <trkpt lat="42.698049" lon="1.757961">
        <ele>1996.3</ele>
        <time>2013-03-21T11:45:11Z</time>
      </trkpt>
      <trkpt lat="42.697962" lon="1.757919">
        <ele>1996.3</ele>
        <time>2013-03-21T11:45:19Z</time>
      </trkpt>
      <trkpt lat="42.697873" lon="1.757884">
        <ele>1996.3</ele>
        <time>2013-03-21T11:45:27Z</time>
      </trkpt>
      <trkpt lat="42.697784" lon="1.757863">
        <ele>1995.8</ele>
        <time>2013-03-21T11:45:36Z</time>
      </trkpt>
      <trkpt lat="42.697698" lon="1.757829">
        <ele>1995.3</ele>
        <time>2013-03-21T11:45:45Z</time>
      </trkpt>
      <trkpt lat="42.697612" lon="1.757795">
        <ele>1994.9</ele>
        <time>2013-03-21T11:45:53Z</time>
      </trkpt>
      <trkpt lat="42.697533" lon="1.757745">
        <ele>1994.4</ele>
        <time>2013-03-21T11:46:01Z</time>
      </trkpt>
      <trkpt lat="42.697447" lon="1.757684">
        <ele>1992.9</ele>
        <time>2013-03-21T11:46:09Z</time>
      </trkpt>
      <trkpt lat="42.697360" lon="1.757623">
        <ele>1992.5</ele>
        <time>2013-03-21T11:46:44Z</time>
      </trkpt>
      <trkpt lat="42.697272" lon="1.757592">
        <ele>1992.0</ele>
        <time>2013-03-21T11:46:53Z</time>
      </trkpt>
      <trkpt lat="42.697174" lon="1.757591">
        <ele>1991.0</ele>
        <time>2013-03-21T11:47:01Z</time>
      </trkpt>
      <trkpt lat="42.697082" lon="1.757578">
        <ele>1991.5</ele>
        <time>2013-03-21T11:47:09Z</time>
      </trkpt>
      <trkpt lat="42.696985" lon="1.757556">
        <ele>1990.6</ele>
        <time>2013-03-21T11:47:18Z</time>
      </trkpt>
      <trkpt lat="42.696898" lon="1.757553">
        <ele>1989.6</ele>
        <time>2013-03-21T11:47:26Z</time>
      </trkpt>
      <trkpt lat="42.696797" lon="1.757543">
        <ele>1989.1</ele>
        <time>2013-03-21T11:47:35Z</time>
      </trkpt>
      <trkpt lat="42.696703" lon="1.757521">
        <ele>1988.1</ele>
        <time>2013-03-21T11:47:43Z</time>
      </trkpt>
      <trkpt lat="42.696614" lon="1.757502">
        <ele>1987.7</ele>
        <time>2013-03-21T11:47:51Z</time>
      </trkpt>
      <trkpt lat="42.696523" lon="1.757481">
        <ele>1986.7</ele>
        <time>2013-03-21T11:47:59Z</time>
      </trkpt>
      <trkpt lat="42.696427" lon="1.757445">
        <ele>1986.7</ele>
        <time>2013-03-21T11:48:08Z</time>
      </trkpt>
      <trkpt lat="42.696321" lon="1.757423">
        <ele>1985.3</ele>
        <time>2013-03-21T11:48:17Z</time>
      </trkpt>
      <trkpt lat="42.696219" lon="1.757418">
        <ele>1984.8</ele>
        <time>2013-03-21T11:48:26Z</time>
      </trkpt>
      <trkpt lat="42.696124" lon="1.757424">
        <ele>1983.8</ele>
        <time>2013-03-21T11:48:34Z</time>
      </trkpt>
      <trkpt lat="42.696028" lon="1.757401">
        <ele>1984.3</ele>
        <time>2013-03-21T11:48:42Z</time>
      </trkpt>
      <trkpt lat="42.695943" lon="1.757396">
        <ele>1984.3</ele>
        <time>2013-03-21T11:48:50Z</time>
      </trkpt>
      <trkpt lat="42.695856" lon="1.757396">
        <ele>1984.3</ele>
        <time>2013-03-21T11:48:59Z</time>
      </trkpt>
      <trkpt lat="42.695755" lon="1.757396">
        <ele>1985.3</ele>
        <time>2013-03-21T11:49:09Z</time>
      </trkpt>
      <trkpt lat="42.695658" lon="1.757389">
        <ele>1985.7</ele>
        <time>2013-03-21T11:49:18Z</time>
      </trkpt>
      <trkpt lat="42.695561" lon="1.757361">
        <ele>1986.7</ele>
        <time>2013-03-21T11:49:29Z</time>
      </trkpt>
      <trkpt lat="42.695464" lon="1.757336">
        <ele>1987.7</ele>
        <time>2013-03-21T11:49:42Z</time>
      </trkpt>
      <trkpt lat="42.695367" lon="1.757349">
        <ele>1989.6</ele>
        <time>2013-03-21T11:49:57Z</time>
      </trkpt>
      <trkpt lat="42.695265" lon="1.757349">
        <ele>1991.0</ele>
        <time>2013-03-21T11:50:10Z</time>
      </trkpt>
      <trkpt lat="42.695169" lon="1.757355">
        <ele>1992.0</ele>
        <time>2013-03-21T11:50:25Z</time>
      </trkpt>
      <trkpt lat="42.695070" lon="1.757372">
        <ele>1992.5</ele>
        <time>2013-03-21T11:50:39Z</time>
      </trkpt>
      <trkpt lat="42.694991" lon="1.757424">
        <ele>1993.9</ele>
        <time>2013-03-21T11:50:53Z</time>
      </trkpt>
      <trkpt lat="42.694892" lon="1.757431">
        <ele>1995.3</ele>
        <time>2013-03-21T11:51:07Z</time>
      </trkpt>
      <trkpt lat="42.694802" lon="1.757465">
        <ele>1996.8</ele>
        <time>2013-03-21T11:51:19Z</time>
      </trkpt>
      <trkpt lat="42.694710" lon="1.757481">
        <ele>1996.8</ele>
        <time>2013-03-21T11:51:35Z</time>
      </trkpt>
      <trkpt lat="42.694621" lon="1.757495">
        <ele>1998.7</ele>
        <time>2013-03-21T11:51:50Z</time>
      </trkpt>
      <trkpt lat="42.694527" lon="1.757498">
        <ele>1999.7</ele>
        <time>2013-03-21T11:52:04Z</time>
      </trkpt>
      <trkpt lat="42.694426" lon="1.757522">
        <ele>2001.6</ele>
        <time>2013-03-21T11:52:20Z</time>
      </trkpt>
      <trkpt lat="42.694329" lon="1.757550">
        <ele>2002.6</ele>
        <time>2013-03-21T11:52:33Z</time>
      </trkpt>
      <trkpt lat="42.694238" lon="1.757552">
        <ele>2004.5</ele>
        <time>2013-03-21T11:52:48Z</time>
      </trkpt>
      <trkpt lat="42.694160" lon="1.757565">
        <ele>2005.9</ele>
        <time>2013-03-21T11:53:03Z</time>
      </trkpt>
      <trkpt lat="42.694074" lon="1.757508">
        <ele>2005.0</ele>
        <time>2013-03-21T11:53:15Z</time>
      </trkpt>
      <trkpt lat="42.693979" lon="1.757462">
        <ele>2005.0</ele>
        <time>2013-03-21T11:53:27Z</time>
      </trkpt>
      <trkpt lat="42.693885" lon="1.757439">
        <ele>2005.9</ele>
        <time>2013-03-21T11:53:39Z</time>
      </trkpt>
      <trkpt lat="42.693790" lon="1.757412">
        <ele>2006.4</ele>
        <time>2013-03-21T11:53:50Z</time>
      </trkpt>
      <trkpt lat="42.693694" lon="1.757396">
        <ele>2007.4</ele>
        <time>2013-03-21T11:54:01Z</time>
      </trkpt>
      <trkpt lat="42.693603" lon="1.757361">
        <ele>2007.8</ele>
        <time>2013-03-21T11:54:13Z</time>
      </trkpt>
      <trkpt lat="42.693505" lon="1.757359">
        <ele>2009.3</ele>
        <time>2013-03-21T11:54:28Z</time>
      </trkpt>
      <trkpt lat="42.693414" lon="1.757334">
        <ele>2011.2</ele>
        <time>2013-03-21T11:54:42Z</time>
      </trkpt>
      <trkpt lat="42.693322" lon="1.757330">
        <ele>2012.7</ele>
        <time>2013-03-21T11:54:57Z</time>
      </trkpt>
      <trkpt lat="42.693241" lon="1.757292">
        <ele>2014.6</ele>
        <time>2013-03-21T11:55:33Z</time>
      </trkpt>
      <trkpt lat="42.693146" lon="1.757263">
        <ele>2015.1</ele>
        <time>2013-03-21T11:55:48Z</time>
      </trkpt>
      <trkpt lat="42.693055" lon="1.757247">
        <ele>2016.5</ele>
        <time>2013-03-21T11:56:03Z</time>
      </trkpt>
      <trkpt lat="42.692970" lon="1.757211">
        <ele>2018.9</ele>
        <time>2013-03-21T11:56:20Z</time>
      </trkpt>
      <trkpt lat="42.692876" lon="1.757201">
        <ele>2020.3</ele>
        <time>2013-03-21T11:56:34Z</time>
      </trkpt>
      <trkpt lat="42.692785" lon="1.757169">
        <ele>2021.3</ele>
        <time>2013-03-21T11:56:47Z</time>
      </trkpt>
      <trkpt lat="42.692701" lon="1.757115">
        <ele>2023.2</ele>
        <time>2013-03-21T11:57:02Z</time>
      </trkpt>
      <trkpt lat="42.692617" lon="1.757045">
        <ele>2024.2</ele>
        <time>2013-03-21T11:57:18Z</time>
      </trkpt>
      <trkpt lat="42.692520" lon="1.756991">
        <ele>2026.1</ele>
        <time>2013-03-21T11:57:35Z</time>
      </trkpt>
      <trkpt lat="42.692431" lon="1.756943">
        <ele>2026.1</ele>
        <time>2013-03-21T11:57:48Z</time>
      </trkpt>
      <trkpt lat="42.692334" lon="1.756894">
        <ele>2026.6</ele>
        <time>2013-03-21T11:58:02Z</time>
      </trkpt>
      <trkpt lat="42.692232" lon="1.756876">
        <ele>2028.0</ele>
        <time>2013-03-21T11:58:19Z</time>
      </trkpt>
      <trkpt lat="42.692134" lon="1.756853">
        <ele>2029.5</ele>
        <time>2013-03-21T11:58:36Z</time>
      </trkpt>
      <trkpt lat="42.692034" lon="1.756812">
        <ele>2030.4</ele>
        <time>2013-03-21T11:58:50Z</time>
      </trkpt>
      <trkpt lat="42.691944" lon="1.756773">
        <ele>2031.9</ele>
        <time>2013-03-21T11:59:05Z</time>
      </trkpt>
      <trkpt lat="42.691853" lon="1.756730">
        <ele>2032.8</ele>
        <time>2013-03-21T11:59:19Z</time>
      </trkpt>
      <trkpt lat="42.691774" lon="1.756640">
        <ele>2034.3</ele>
        <time>2013-03-21T11:59:32Z</time>
      </trkpt>
      <trkpt lat="42.691700" lon="1.756558">
        <ele>2033.3</ele>
        <time>2013-03-21T11:59:43Z</time>
      </trkpt>
      <trkpt lat="42.691630" lon="1.756456">
        <ele>2033.8</ele>
        <time>2013-03-21T11:59:57Z</time>
      </trkpt>
      <trkpt lat="42.691550" lon="1.756399">
        <ele>2034.8</ele>
        <time>2013-03-21T12:00:12Z</time>
      </trkpt>
      <trkpt lat="42.691457" lon="1.756376">
        <ele>2035.7</ele>
        <time>2013-03-21T12:00:28Z</time>
      </trkpt>
      <trkpt lat="42.691361" lon="1.756328">
        <ele>2037.2</ele>
        <time>2013-03-21T12:00:44Z</time>
      </trkpt>
      <trkpt lat="42.691266" lon="1.756276">
        <ele>2038.6</ele>
        <time>2013-03-21T12:01:00Z</time>
      </trkpt>
      <trkpt lat="42.691173" lon="1.756240">
        <ele>2039.1</ele>
        <time>2013-03-21T12:01:14Z</time>
      </trkpt>
      <trkpt lat="42.691082" lon="1.756218">
        <ele>2039.6</ele>
        <time>2013-03-21T12:01:27Z</time>
      </trkpt>
      <trkpt lat="42.691002" lon="1.756138">
        <ele>2040.5</ele>
        <time>2013-03-21T12:01:40Z</time>
      </trkpt>
      <trkpt lat="42.690922" lon="1.756077">
        <ele>2042.0</ele>
        <time>2013-03-21T12:01:56Z</time>
      </trkpt>
      <trkpt lat="42.690829" lon="1.756038">
        <ele>2042.5</ele>
        <time>2013-03-21T12:02:11Z</time>
      </trkpt>
      <trkpt lat="42.690744" lon="1.756004">
        <ele>2044.4</ele>
        <time>2013-03-21T12:02:31Z</time>
      </trkpt>
      <trkpt lat="42.690660" lon="1.755941">
        <ele>2046.8</ele>
        <time>2013-03-21T12:02:49Z</time>
      </trkpt>
      <trkpt lat="42.690569" lon="1.755921">
        <ele>2046.8</ele>
        <time>2013-03-21T12:03:04Z</time>
      </trkpt>
      <trkpt lat="42.690484" lon="1.755855">
        <ele>2048.2</ele>
        <time>2013-03-21T12:03:20Z</time>
      </trkpt>
      <trkpt lat="42.690386" lon="1.755867">
        <ele>2049.7</ele>
        <time>2013-03-21T12:03:39Z</time>
      </trkpt>
      <trkpt lat="42.690299" lon="1.755841">
        <ele>2051.1</ele>
        <time>2013-03-21T12:03:56Z</time>
      </trkpt>
      <trkpt lat="42.690213" lon="1.755785">
        <ele>2052.1</ele>
        <time>2013-03-21T12:04:09Z</time>
      </trkpt>
      <trkpt lat="42.690140" lon="1.755718">
        <ele>2053.0</ele>
        <time>2013-03-21T12:04:25Z</time>
      </trkpt>
      <trkpt lat="42.690068" lon="1.755644">
        <ele>2054.5</ele>
        <time>2013-03-21T12:04:42Z</time>
      </trkpt>
      <trkpt lat="42.690005" lon="1.755564">
        <ele>2055.9</ele>
        <time>2013-03-21T12:04:58Z</time>
      </trkpt>
      <trkpt lat="42.689959" lon="1.755463">
        <ele>2057.4</ele>
        <time>2013-03-21T12:05:36Z</time>
      </trkpt>
      <trkpt lat="42.689893" lon="1.755367">
        <ele>2058.8</ele>
        <time>2013-03-21T12:05:52Z</time>
      </trkpt>
      <trkpt lat="42.689825" lon="1.755292">
        <ele>2059.8</ele>
        <time>2013-03-21T12:06:06Z</time>
      </trkpt>
      <trkpt lat="42.689758" lon="1.755221">
        <ele>2061.7</ele>
        <time>2013-03-21T12:06:20Z</time>
      </trkpt>
      <trkpt lat="42.689690" lon="1.755141">
        <ele>2063.1</ele>
        <time>2013-03-21T12:06:33Z</time>
      </trkpt>
      <trkpt lat="42.689626" lon="1.755074">
        <ele>2064.1</ele>
        <time>2013-03-21T12:06:49Z</time>
      </trkpt>
      <trkpt lat="42.689565" lon="1.754986">
        <ele>2066.0</ele>
        <time>2013-03-21T12:07:05Z</time>
      </trkpt>
      <trkpt lat="42.689505" lon="1.754912">
        <ele>2067.4</ele>
        <time>2013-03-21T12:07:42Z</time>
      </trkpt>
      <trkpt lat="42.689440" lon="1.754811">
        <ele>2068.4</ele>
        <time>2013-03-21T12:08:03Z</time>
      </trkpt>
      <trkpt lat="42.689383" lon="1.754712">
        <ele>2069.4</ele>
        <time>2013-03-21T12:08:20Z</time>
      </trkpt>
      <trkpt lat="42.689329" lon="1.754621">
        <ele>2070.3</ele>
        <time>2013-03-21T12:08:33Z</time>
      </trkpt>
      <trkpt lat="42.689276" lon="1.754517">
        <ele>2071.3</ele>
        <time>2013-03-21T12:08:47Z</time>
      </trkpt>
      <trkpt lat="42.689236" lon="1.754409">
        <ele>2072.7</ele>
        <time>2013-03-21T12:09:03Z</time>
      </trkpt>
      <trkpt lat="42.689174" lon="1.754319">
        <ele>2072.3</ele>
        <time>2013-03-21T12:09:17Z</time>
      </trkpt>
      <trkpt lat="42.689138" lon="1.754192">
        <ele>2074.2</ele>
        <time>2013-03-21T12:09:30Z</time>
      </trkpt>
      <trkpt lat="42.689082" lon="1.754098">
        <ele>2075.1</ele>
        <time>2013-03-21T12:09:42Z</time>
      </trkpt>
      <trkpt lat="42.689044" lon="1.753988">
        <ele>2075.6</ele>
        <time>2013-03-21T12:09:52Z</time>
      </trkpt>
      <trkpt lat="42.689003" lon="1.753890">
        <ele>2075.6</ele>
        <time>2013-03-21T12:10:04Z</time>
      </trkpt>
      <trkpt lat="42.688947" lon="1.753800">
        <ele>2076.6</ele>
        <time>2013-03-21T12:10:17Z</time>
      </trkpt>
      <trkpt lat="42.688900" lon="1.753688">
        <ele>2078.0</ele>
        <time>2013-03-21T12:10:44Z</time>
      </trkpt>
      <trkpt lat="42.688858" lon="1.753620">
        <ele>2078.5</ele>
        <time>2013-03-21T12:11:03Z</time>
      </trkpt>
      <trkpt lat="42.688801" lon="1.753525">
        <ele>2078.5</ele>
        <time>2013-03-21T12:11:13Z</time>
      </trkpt>
      <trkpt lat="42.688752" lon="1.753408">
        <ele>2079.0</ele>
        <time>2013-03-21T12:11:24Z</time>
      </trkpt>
      <trkpt lat="42.688717" lon="1.753292">
        <ele>2076.6</ele>
        <time>2013-03-21T12:11:37Z</time>
      </trkpt>
      <trkpt lat="42.688681" lon="1.753189">
        <ele>2079.0</ele>
        <time>2013-03-21T12:11:50Z</time>
      </trkpt>
      <trkpt lat="42.688626" lon="1.753109">
        <ele>2080.4</ele>
        <time>2013-03-21T12:12:02Z</time>
      </trkpt>
      <trkpt lat="42.688567" lon="1.753021">
        <ele>2081.4</ele>
        <time>2013-03-21T12:12:15Z</time>
      </trkpt>
      <trkpt lat="42.688501" lon="1.752931">
        <ele>2082.4</ele>
        <time>2013-03-21T12:12:28Z</time>
      </trkpt>
      <trkpt lat="42.688445" lon="1.752822">
        <ele>2082.4</ele>
        <time>2013-03-21T12:12:44Z</time>
      </trkpt>
      <trkpt lat="42.688407" lon="1.752695">
        <ele>2083.8</ele>
        <time>2013-03-21T12:13:12Z</time>
      </trkpt>
      <trkpt lat="42.688366" lon="1.752596">
        <ele>2083.8</ele>
        <time>2013-03-21T12:13:24Z</time>
      </trkpt>
      <trkpt lat="42.688311" lon="1.752500">
        <ele>2084.8</ele>
        <time>2013-03-21T12:13:37Z</time>
      </trkpt>
      <trkpt lat="42.688256" lon="1.752423">
        <ele>2085.2</ele>
        <time>2013-03-21T12:13:49Z</time>
      </trkpt>
      <trkpt lat="42.688195" lon="1.752336">
        <ele>2086.7</ele>
        <time>2013-03-21T12:14:01Z</time>
      </trkpt>
      <trkpt lat="42.688125" lon="1.752256">
        <ele>2087.2</ele>
        <time>2013-03-21T12:14:14Z</time>
      </trkpt>
      <trkpt lat="42.688061" lon="1.752168">
        <ele>2088.1</ele>
        <time>2013-03-21T12:14:27Z</time>
      </trkpt>
      <trkpt lat="42.687997" lon="1.752070">
        <ele>2088.1</ele>
        <time>2013-03-21T12:14:40Z</time>
      </trkpt>
      <trkpt lat="42.687921" lon="1.752002">
        <ele>2090.0</ele>
        <time>2013-03-21T12:14:54Z</time>
      </trkpt>
      <trkpt lat="42.687841" lon="1.751966">
        <ele>2091.5</ele>
        <time>2013-03-21T12:15:07Z</time>
      </trkpt>
      <trkpt lat="42.687763" lon="1.751922">
        <ele>2092.9</ele>
        <time>2013-03-21T12:15:20Z</time>
      </trkpt>
      <trkpt lat="42.687687" lon="1.751922">
        <ele>2095.3</ele>
        <time>2013-03-21T12:15:38Z</time>
      </trkpt>
      <trkpt lat="42.687604" lon="1.751928">
        <ele>2097.7</ele>
        <time>2013-03-21T12:15:56Z</time>
      </trkpt>
      <trkpt lat="42.687517" lon="1.751916">
        <ele>2100.1</ele>
        <time>2013-03-21T12:16:14Z</time>
      </trkpt>
      <trkpt lat="42.687432" lon="1.751884">
        <ele>2103.0</ele>
        <time>2013-03-21T12:16:34Z</time>
      </trkpt>
      <trkpt lat="42.687340" lon="1.751849">
        <ele>2103.5</ele>
        <time>2013-03-21T12:16:51Z</time>
      </trkpt>
      <trkpt lat="42.687254" lon="1.751799">
        <ele>2104.9</ele>
        <time>2013-03-21T12:17:05Z</time>
      </trkpt>
      <trkpt lat="42.687178" lon="1.751731">
        <ele>2104.9</ele>
        <time>2013-03-21T12:17:22Z</time>
      </trkpt>
      <trkpt lat="42.687113" lon="1.751662">
        <ele>2107.4</ele>
        <time>2013-03-21T12:20:15Z</time>
      </trkpt>
      <trkpt lat="42.687038" lon="1.751631">
        <ele>2105.9</ele>
        <time>2013-03-21T12:20:26Z</time>
      </trkpt>
      <trkpt lat="42.686962" lon="1.751585">
        <ele>2106.4</ele>
        <time>2013-03-21T12:20:39Z</time>
      </trkpt>
      <trkpt lat="42.686891" lon="1.751499">
        <ele>2106.9</ele>
        <time>2013-03-21T12:20:53Z</time>
      </trkpt>
      <trkpt lat="42.686817" lon="1.751421">
        <ele>2107.4</ele>
        <time>2013-03-21T12:21:05Z</time>
      </trkpt>
      <trkpt lat="42.686736" lon="1.751369">
        <ele>2107.8</ele>
        <time>2013-03-21T12:21:17Z</time>
      </trkpt>
      <trkpt lat="42.686653" lon="1.751309">
        <ele>2108.8</ele>
        <time>2013-03-21T12:21:28Z</time>
      </trkpt>
      <trkpt lat="42.686566" lon="1.751274">
        <ele>2109.3</ele>
        <time>2013-03-21T12:21:39Z</time>
      </trkpt>
      <trkpt lat="42.686482" lon="1.751229">
        <ele>2110.7</ele>
        <time>2013-03-21T12:21:50Z</time>
      </trkpt>
      <trkpt lat="42.686399" lon="1.751195">
        <ele>2110.7</ele>
        <time>2013-03-21T12:22:01Z</time>
      </trkpt>
      <trkpt lat="42.686321" lon="1.751132">
        <ele>2111.2</ele>
        <time>2013-03-21T12:22:12Z</time>
      </trkpt>
      <trkpt lat="42.686227" lon="1.751092">
        <ele>2113.1</ele>
        <time>2013-03-21T12:22:23Z</time>
      </trkpt>
      <trkpt lat="42.686140" lon="1.751058">
        <ele>2114.6</ele>
        <time>2013-03-21T12:22:34Z</time>
      </trkpt>
      <trkpt lat="42.686101" lon="1.751070">
        <ele>2115.0</ele>
        <time>2013-03-21T12:23:45Z</time>
      </trkpt>
      <trkpt lat="42.686032" lon="1.751053">
        <ele>2113.6</ele>
        <time>2013-03-21T12:24:13Z</time>
      </trkpt>
      <trkpt lat="42.685939" lon="1.751021">
        <ele>2114.1</ele>
        <time>2013-03-21T12:24:23Z</time>
      </trkpt>
      <trkpt lat="42.685854" lon="1.751022">
        <ele>2114.6</ele>
        <time>2013-03-21T12:24:34Z</time>
      </trkpt>
      <trkpt lat="42.685758" lon="1.751008">
        <ele>2116.0</ele>
        <time>2013-03-21T12:24:44Z</time>
      </trkpt>
      <trkpt lat="42.685669" lon="1.750982">
        <ele>2114.6</ele>
        <time>2013-03-21T12:24:53Z</time>
      </trkpt>
      <trkpt lat="42.685582" lon="1.750954">
        <ele>2117.0</ele>
        <time>2013-03-21T12:25:02Z</time>
      </trkpt>
      <trkpt lat="42.685483" lon="1.750941">
        <ele>2115.5</ele>
        <time>2013-03-21T12:25:12Z</time>
      </trkpt>
      <trkpt lat="42.685390" lon="1.750904">
        <ele>2116.0</ele>
        <time>2013-03-21T12:25:21Z</time>
      </trkpt>
      <trkpt lat="42.685298" lon="1.750870">
        <ele>2115.0</ele>
        <time>2013-03-21T12:25:30Z</time>
      </trkpt>
      <trkpt lat="42.685212" lon="1.750826">
        <ele>2116.0</ele>
        <time>2013-03-21T12:25:40Z</time>
      </trkpt>
      <trkpt lat="42.685125" lon="1.750780">
        <ele>2115.0</ele>
        <time>2013-03-21T12:25:49Z</time>
      </trkpt>
      <trkpt lat="42.685042" lon="1.750735">
        <ele>2116.5</ele>
        <time>2013-03-21T12:26:00Z</time>
      </trkpt>
      <trkpt lat="42.684951" lon="1.750702">
        <ele>2116.0</ele>
        <time>2013-03-21T12:26:11Z</time>
      </trkpt>
      <trkpt lat="42.684865" lon="1.750658">
        <ele>2116.0</ele>
        <time>2013-03-21T12:26:21Z</time>
      </trkpt>
      <trkpt lat="42.684773" lon="1.750624">
        <ele>2115.5</ele>
        <time>2013-03-21T12:26:33Z</time>
      </trkpt>
      <trkpt lat="42.684696" lon="1.750574">
        <ele>2115.5</ele>
        <time>2013-03-21T12:26:43Z</time>
      </trkpt>
      <trkpt lat="42.684616" lon="1.750495">
        <ele>2116.5</ele>
        <time>2013-03-21T12:26:54Z</time>
      </trkpt>
      <trkpt lat="42.684532" lon="1.750432">
        <ele>2118.4</ele>
        <time>2013-03-21T12:27:06Z</time>
      </trkpt>
      <trkpt lat="42.684460" lon="1.750368">
        <ele>2117.9</ele>
        <time>2013-03-21T12:27:18Z</time>
      </trkpt>
      <trkpt lat="42.684385" lon="1.750305">
        <ele>2119.4</ele>
        <time>2013-03-21T12:27:31Z</time>
      </trkpt>
      <trkpt lat="42.684297" lon="1.750250">
        <ele>2117.9</ele>
        <time>2013-03-21T12:27:46Z</time>
      </trkpt>
      <trkpt lat="42.684211" lon="1.750225">
        <ele>2119.4</ele>
        <time>2013-03-21T12:27:58Z</time>
      </trkpt>
      <trkpt lat="42.684128" lon="1.750178">
        <ele>2121.3</ele>
        <time>2013-03-21T12:28:12Z</time>
      </trkpt>
      <trkpt lat="42.684041" lon="1.750118">
        <ele>2120.8</ele>
        <time>2013-03-21T12:28:24Z</time>
      </trkpt>
      <trkpt lat="42.683957" lon="1.750062">
        <ele>2121.8</ele>
        <time>2013-03-21T12:28:50Z</time>
      </trkpt>
      <trkpt lat="42.683869" lon="1.750025">
        <ele>2123.7</ele>
        <time>2013-03-21T12:29:07Z</time>
      </trkpt>
      <trkpt lat="42.683774" lon="1.749981">
        <ele>2125.6</ele>
        <time>2013-03-21T12:29:23Z</time>
      </trkpt>
      <trkpt lat="42.683683" lon="1.749931">
        <ele>2127.1</ele>
        <time>2013-03-21T12:29:39Z</time>
      </trkpt>
      <trkpt lat="42.683608" lon="1.749876">
        <ele>2129.0</ele>
        <time>2013-03-21T12:29:54Z</time>
      </trkpt>
      <trkpt lat="42.683531" lon="1.749815">
        <ele>2130.4</ele>
        <time>2013-03-21T12:30:11Z</time>
      </trkpt>
      <trkpt lat="42.683449" lon="1.749749">
        <ele>2131.4</ele>
        <time>2013-03-21T12:30:27Z</time>
      </trkpt>
      <trkpt lat="42.683372" lon="1.749709">
        <ele>2132.3</ele>
        <time>2013-03-21T12:30:41Z</time>
      </trkpt>
      <trkpt lat="42.683298" lon="1.749660">
        <ele>2132.3</ele>
        <time>2013-03-21T12:31:15Z</time>
      </trkpt>
      <trkpt lat="42.683220" lon="1.749583">
        <ele>2131.9</ele>
        <time>2013-03-21T12:31:27Z</time>
      </trkpt>
      <trkpt lat="42.683148" lon="1.749519">
        <ele>2133.3</ele>
        <time>2013-03-21T12:31:39Z</time>
      </trkpt>
      <trkpt lat="42.683077" lon="1.749436">
        <ele>2131.9</ele>
        <time>2013-03-21T12:31:50Z</time>
      </trkpt>
      <trkpt lat="42.682991" lon="1.749359">
        <ele>2133.3</ele>
        <time>2013-03-21T12:32:03Z</time>
      </trkpt>
      <trkpt lat="42.682929" lon="1.749262">
        <ele>2131.4</ele>
        <time>2013-03-21T12:32:12Z</time>
      </trkpt>
      <trkpt lat="42.682853" lon="1.749197">
        <ele>2131.4</ele>
        <time>2013-03-21T12:32:23Z</time>
      </trkpt>
      <trkpt lat="42.682776" lon="1.749132">
        <ele>2131.4</ele>
        <time>2013-03-21T12:32:37Z</time>
      </trkpt>
      <trkpt lat="42.682699" lon="1.749066">
        <ele>2131.4</ele>
        <time>2013-03-21T12:33:02Z</time>
      </trkpt>
      <trkpt lat="42.682597" lon="1.749013">
        <ele>2132.8</ele>
        <time>2013-03-21T12:33:17Z</time>
      </trkpt>
      <trkpt lat="42.682506" lon="1.748969">
        <ele>2133.8</ele>
        <time>2013-03-21T12:33:32Z</time>
      </trkpt>
      <trkpt lat="42.682435" lon="1.748928">
        <ele>2134.3</ele>
        <time>2013-03-21T12:34:00Z</time>
      </trkpt>
      <trkpt lat="42.682350" lon="1.748913">
        <ele>2136.2</ele>
        <time>2013-03-21T12:34:16Z</time>
      </trkpt>
      <trkpt lat="42.682269" lon="1.748863">
        <ele>2136.7</ele>
        <time>2013-03-21T12:34:29Z</time>
      </trkpt>
      <trkpt lat="42.682184" lon="1.748818">
        <ele>2137.6</ele>
        <time>2013-03-21T12:34:43Z</time>
      </trkpt>
      <trkpt lat="42.682102" lon="1.748754">
        <ele>2138.1</ele>
        <time>2013-03-21T12:34:58Z</time>
      </trkpt>
      <trkpt lat="42.682020" lon="1.748713">
        <ele>2141.0</ele>
        <time>2013-03-21T12:35:27Z</time>
      </trkpt>
      <trkpt lat="42.681943" lon="1.748664">
        <ele>2142.9</ele>
        <time>2013-03-21T12:35:44Z</time>
      </trkpt>
      <trkpt lat="42.681871" lon="1.748620">
        <ele>2143.9</ele>
        <time>2013-03-21T12:36:10Z</time>
      </trkpt>
      <trkpt lat="42.681793" lon="1.748565">
        <ele>2146.8</ele>
        <time>2013-03-21T12:36:38Z</time>
      </trkpt>
      <trkpt lat="42.681706" lon="1.748536">
        <ele>2150.6</ele>
        <time>2013-03-21T12:36:56Z</time>
      </trkpt>
      <trkpt lat="42.681620" lon="1.748511">
        <ele>2153.5</ele>
        <time>2013-03-21T12:37:14Z</time>
      </trkpt>
      <trkpt lat="42.681534" lon="1.748484">
        <ele>2156.9</ele>
        <time>2013-03-21T12:37:31Z</time>
      </trkpt>
      <trkpt lat="42.681460" lon="1.748485">
        <ele>2159.7</ele>
        <time>2013-03-21T12:37:52Z</time>
      </trkpt>
      <trkpt lat="42.681385" lon="1.748441">
        <ele>2163.6</ele>
        <time>2013-03-21T12:38:14Z</time>
      </trkpt>
      <trkpt lat="42.681295" lon="1.748414">
        <ele>2166.0</ele>
        <time>2013-03-21T12:38:33Z</time>
      </trkpt>
      <trkpt lat="42.681216" lon="1.748367">
        <ele>2168.9</ele>
        <time>2013-03-21T12:38:49Z</time>
      </trkpt>
      <trkpt lat="42.681142" lon="1.748344">
        <ele>2166.9</ele>
        <time>2013-03-21T12:39:25Z</time>
      </trkpt>
      <trkpt lat="42.681044" lon="1.748327">
        <ele>2168.9</ele>
        <time>2013-03-21T12:39:37Z</time>
      </trkpt>
      <trkpt lat="42.680958" lon="1.748279">
        <ele>2165.5</ele>
        <time>2013-03-21T12:39:47Z</time>
      </trkpt>
      <trkpt lat="42.680876" lon="1.748246">
        <ele>2165.5</ele>
        <time>2013-03-21T12:39:57Z</time>
      </trkpt>
      <trkpt lat="42.680785" lon="1.748223">
        <ele>2166.5</ele>
        <time>2013-03-21T12:40:08Z</time>
      </trkpt>
      <trkpt lat="42.680692" lon="1.748197">
        <ele>2166.9</ele>
        <time>2013-03-21T12:40:20Z</time>
      </trkpt>
      <trkpt lat="42.680601" lon="1.748165">
        <ele>2166.0</ele>
        <time>2013-03-21T12:40:31Z</time>
      </trkpt>
      <trkpt lat="42.680511" lon="1.748141">
        <ele>2166.5</ele>
        <time>2013-03-21T12:40:43Z</time>
      </trkpt>
      <trkpt lat="42.680421" lon="1.748124">
        <ele>2166.5</ele>
        <time>2013-03-21T12:40:55Z</time>
      </trkpt>
      <trkpt lat="42.680330" lon="1.748110">
        <ele>2166.5</ele>
        <time>2013-03-21T12:41:05Z</time>
      </trkpt>
      <trkpt lat="42.680239" lon="1.748103">
        <ele>2166.5</ele>
        <time>2013-03-21T12:41:16Z</time>
      </trkpt>
      <trkpt lat="42.680153" lon="1.748083">
        <ele>2164.6</ele>
        <time>2013-03-21T12:41:26Z</time>
      </trkpt>
      <trkpt lat="42.680064" lon="1.748063">
        <ele>2165.0</ele>
        <time>2013-03-21T12:41:37Z</time>
      </trkpt>
      <trkpt lat="42.679968" lon="1.748038">
        <ele>2164.1</ele>
        <time>2013-03-21T12:41:47Z</time>
      </trkpt>
      <trkpt lat="42.679881" lon="1.748011">
        <ele>2164.1</ele>
        <time>2013-03-21T12:41:58Z</time>
      </trkpt>
      <trkpt lat="42.679789" lon="1.747968">
        <ele>2165.0</ele>
        <time>2013-03-21T12:42:11Z</time>
      </trkpt>
      <trkpt lat="42.679693" lon="1.747943">
        <ele>2167.4</ele>
        <time>2013-03-21T12:42:33Z</time>
      </trkpt>
      <trkpt lat="42.679613" lon="1.747947">
        <ele>2168.4</ele>
        <time>2013-03-21T12:42:46Z</time>
      </trkpt>
      <trkpt lat="42.679513" lon="1.747933">
        <ele>2171.3</ele>
        <time>2013-03-21T12:43:03Z</time>
      </trkpt>
      <trkpt lat="42.679422" lon="1.747915">
        <ele>2173.2</ele>
        <time>2013-03-21T12:43:21Z</time>
      </trkpt>
      <trkpt lat="42.679334" lon="1.747922">
        <ele>2176.6</ele>
        <time>2013-03-21T12:43:40Z</time>
      </trkpt>
      <trkpt lat="42.679253" lon="1.747926">
        <ele>2179.4</ele>
        <time>2013-03-21T12:43:57Z</time>
      </trkpt>
      <trkpt lat="42.679178" lon="1.747900">
        <ele>2180.9</ele>
        <time>2013-03-21T12:44:13Z</time>
      </trkpt>
      <trkpt lat="42.679095" lon="1.747890">
        <ele>2184.2</ele>
        <time>2013-03-21T12:44:41Z</time>
      </trkpt>
      <trkpt lat="42.679005" lon="1.747949">
        <ele>2188.1</ele>
        <time>2013-03-21T12:45:05Z</time>
      </trkpt>
      <trkpt lat="42.678916" lon="1.747977">
        <ele>2190.5</ele>
        <time>2013-03-21T12:45:26Z</time>
      </trkpt>
      <trkpt lat="42.678843" lon="1.748028">
        <ele>2193.9</ele>
        <time>2013-03-21T12:45:47Z</time>
      </trkpt>
      <trkpt lat="42.678762" lon="1.748051">
        <ele>2197.7</ele>
        <time>2013-03-21T12:46:09Z</time>
      </trkpt>
      <trkpt lat="42.678674" lon="1.748084">
        <ele>2200.6</ele>
        <time>2013-03-21T12:46:30Z</time>
      </trkpt>
      <trkpt lat="42.678595" lon="1.748124">
        <ele>2204.0</ele>
        <time>2013-03-21T12:46:50Z</time>
      </trkpt>
      <trkpt lat="42.678516" lon="1.748153">
        <ele>2205.9</ele>
        <time>2013-03-21T12:47:09Z</time>
      </trkpt>
      <trkpt lat="42.678426" lon="1.748160">
        <ele>2208.3</ele>
        <time>2013-03-21T12:47:35Z</time>
      </trkpt>
      <trkpt lat="42.678350" lon="1.748203">
        <ele>2211.6</ele>
        <time>2013-03-21T12:47:57Z</time>
      </trkpt>
      <trkpt lat="42.678259" lon="1.748230">
        <ele>2215.0</ele>
        <time>2013-03-21T12:48:19Z</time>
      </trkpt>
      <trkpt lat="42.678170" lon="1.748251">
        <ele>2217.4</ele>
        <time>2013-03-21T12:48:39Z</time>
      </trkpt>
      <trkpt lat="42.678073" lon="1.748255">
        <ele>2219.8</ele>
        <time>2013-03-21T12:48:59Z</time>
      </trkpt>
      <trkpt lat="42.677981" lon="1.748245">
        <ele>2221.3</ele>
        <time>2013-03-21T12:49:15Z</time>
      </trkpt>
      <trkpt lat="42.677898" lon="1.748268">
        <ele>2223.7</ele>
        <time>2013-03-21T12:49:30Z</time>
      </trkpt>
      <trkpt lat="42.677812" lon="1.748296">
        <ele>2226.1</ele>
        <time>2013-03-21T12:49:46Z</time>
      </trkpt>
      <trkpt lat="42.677724" lon="1.748289">
        <ele>2226.6</ele>
        <time>2013-03-21T12:50:00Z</time>
      </trkpt>
      <trkpt lat="42.677637" lon="1.748264">
        <ele>2228.5</ele>
        <time>2013-03-21T12:50:14Z</time>
      </trkpt>
      <trkpt lat="42.677546" lon="1.748279">
        <ele>2230.4</ele>
        <time>2013-03-21T12:50:29Z</time>
      </trkpt>
      <trkpt lat="42.677465" lon="1.748297">
        <ele>2232.8</ele>
        <time>2013-03-21T12:50:45Z</time>
      </trkpt>
      <trkpt lat="42.677385" lon="1.748306">
        <ele>2233.3</ele>
        <time>2013-03-21T12:51:00Z</time>
      </trkpt>
      <trkpt lat="42.677306" lon="1.748285">
        <ele>2235.7</ele>
        <time>2013-03-21T12:51:38Z</time>
      </trkpt>
      <trkpt lat="42.677209" lon="1.748249">
        <ele>2237.1</ele>
        <time>2013-03-21T12:52:02Z</time>
      </trkpt>
      <trkpt lat="42.677134" lon="1.748170">
        <ele>2236.2</ele>
        <time>2013-03-21T12:52:15Z</time>
      </trkpt>
      <trkpt lat="42.677045" lon="1.748176">
        <ele>2238.6</ele>
        <time>2013-03-21T12:52:29Z</time>
      </trkpt>
      <trkpt lat="42.676946" lon="1.748190">
        <ele>2241.9</ele>
        <time>2013-03-21T12:52:43Z</time>
      </trkpt>
      <trkpt lat="42.676859" lon="1.748202">
        <ele>2244.3</ele>
        <time>2013-03-21T12:52:55Z</time>
      </trkpt>
      <trkpt lat="42.676782" lon="1.748201">
        <ele>2243.4</ele>
        <time>2013-03-21T12:53:09Z</time>
      </trkpt>
      <trkpt lat="42.676693" lon="1.748235">
        <ele>2247.2</ele>
        <time>2013-03-21T12:53:23Z</time>
      </trkpt>
      <trkpt lat="42.676607" lon="1.748269">
        <ele>2248.7</ele>
        <time>2013-03-21T12:53:38Z</time>
      </trkpt>
      <trkpt lat="42.676523" lon="1.748274">
        <ele>2249.1</ele>
        <time>2013-03-21T12:53:53Z</time>
      </trkpt>
      <trkpt lat="42.676441" lon="1.748285">
        <ele>2251.5</ele>
        <time>2013-03-21T12:54:07Z</time>
      </trkpt>
      <trkpt lat="42.676355" lon="1.748319">
        <ele>2253.5</ele>
        <time>2013-03-21T12:54:21Z</time>
      </trkpt>
      <trkpt lat="42.676275" lon="1.748356">
        <ele>2254.9</ele>
        <time>2013-03-21T12:54:37Z</time>
      </trkpt>
      <trkpt lat="42.676189" lon="1.748376">
        <ele>2257.3</ele>
        <time>2013-03-21T12:54:51Z</time>
      </trkpt>
      <trkpt lat="42.676106" lon="1.748422">
        <ele>2258.8</ele>
        <time>2013-03-21T12:55:06Z</time>
      </trkpt>
      <trkpt lat="42.676024" lon="1.748474">
        <ele>2261.6</ele>
        <time>2013-03-21T12:55:23Z</time>
      </trkpt>
      <trkpt lat="42.675941" lon="1.748530">
        <ele>2264.5</ele>
        <time>2013-03-21T12:55:38Z</time>
      </trkpt>
      <trkpt lat="42.675852" lon="1.748582">
        <ele>2266.4</ele>
        <time>2013-03-21T12:55:57Z</time>
      </trkpt>
      <trkpt lat="42.675776" lon="1.748651">
        <ele>2267.4</ele>
        <time>2013-03-21T12:56:36Z</time>
      </trkpt>
      <trkpt lat="42.675696" lon="1.748693">
        <ele>2268.4</ele>
        <time>2013-03-21T12:56:50Z</time>
      </trkpt>
      <trkpt lat="42.675662" lon="1.748702">
        <ele>2268.9</ele>
        <time>2013-03-21T12:58:24Z</time>
        <name>Pic Espaillat</name>
      </trkpt>
      <trkpt lat="42.675712" lon="1.748694">
        <ele>2268.4</ele>
        <time>2013-03-21T13:02:00Z</time>
      </trkpt>
      <trkpt lat="42.675752" lon="1.748664">
        <ele>2268.9</ele>
        <time>2013-03-21T13:07:22Z</time>
      </trkpt>
      <trkpt lat="42.675820" lon="1.748597">
        <ele>2270.8</ele>
        <time>2013-03-21T13:07:34Z</time>
      </trkpt>
      <trkpt lat="42.675896" lon="1.748538">
        <ele>2269.8</ele>
        <time>2013-03-21T13:07:43Z</time>
      </trkpt>
      <trkpt lat="42.675984" lon="1.748499">
        <ele>2267.4</ele>
        <time>2013-03-21T13:07:55Z</time>
      </trkpt>
      <trkpt lat="42.676066" lon="1.748419">
        <ele>2266.9</ele>
        <time>2013-03-21T13:08:07Z</time>
      </trkpt>
      <trkpt lat="42.676138" lon="1.748351">
        <ele>2262.1</ele>
        <time>2013-03-21T13:08:18Z</time>
      </trkpt>
      <trkpt lat="42.676227" lon="1.748314">
        <ele>2258.8</ele>
        <time>2013-03-21T13:08:29Z</time>
      </trkpt>
      <trkpt lat="42.676314" lon="1.748273">
        <ele>2256.8</ele>
        <time>2013-03-21T13:08:40Z</time>
      </trkpt>
      <trkpt lat="42.676388" lon="1.748249">
        <ele>2252.5</ele>
        <time>2013-03-21T13:08:54Z</time>
      </trkpt>
      <trkpt lat="42.676477" lon="1.748224">
        <ele>2251.1</ele>
        <time>2013-03-21T13:09:04Z</time>
      </trkpt>
      <trkpt lat="42.676579" lon="1.748210">
        <ele>2249.6</ele>
        <time>2013-03-21T13:09:14Z</time>
      </trkpt>
      <trkpt lat="42.676674" lon="1.748201">
        <ele>2248.2</ele>
        <time>2013-03-21T13:09:23Z</time>
      </trkpt>
      <trkpt lat="42.676770" lon="1.748191">
        <ele>2246.7</ele>
        <time>2013-03-21T13:09:33Z</time>
      </trkpt>
      <trkpt lat="42.676860" lon="1.748166">
        <ele>2243.9</ele>
        <time>2013-03-21T13:09:42Z</time>
      </trkpt>
      <trkpt lat="42.676956" lon="1.748174">
        <ele>2242.4</ele>
        <time>2013-03-21T13:09:52Z</time>
      </trkpt>
      <trkpt lat="42.677045" lon="1.748157">
        <ele>2241.0</ele>
        <time>2013-03-21T13:10:02Z</time>
      </trkpt>
      <trkpt lat="42.677122" lon="1.748100">
        <ele>2237.1</ele>
        <time>2013-03-21T13:10:13Z</time>
      </trkpt>
      <trkpt lat="42.677211" lon="1.748071">
        <ele>2235.7</ele>
        <time>2013-03-21T13:10:23Z</time>
      </trkpt>
      <trkpt lat="42.677299" lon="1.748083">
        <ele>2233.3</ele>
        <time>2013-03-21T13:10:32Z</time>
      </trkpt>
      <trkpt lat="42.677386" lon="1.748101">
        <ele>2232.3</ele>
        <time>2013-03-21T13:10:40Z</time>
      </trkpt>
      <trkpt lat="42.677475" lon="1.748123">
        <ele>2231.4</ele>
        <time>2013-03-21T13:10:49Z</time>
      </trkpt>
      <trkpt lat="42.677566" lon="1.748145">
        <ele>2229.4</ele>
        <time>2013-03-21T13:11:13Z</time>
      </trkpt>
      <trkpt lat="42.677669" lon="1.748165">
        <ele>2227.5</ele>
        <time>2013-03-21T13:11:22Z</time>
      </trkpt>
      <trkpt lat="42.677763" lon="1.748180">
        <ele>2226.1</ele>
        <time>2013-03-21T13:11:31Z</time>
      </trkpt>
      <trkpt lat="42.677862" lon="1.748188">
        <ele>2224.1</ele>
        <time>2013-03-21T13:11:42Z</time>
      </trkpt>
      <trkpt lat="42.677958" lon="1.748177">
        <ele>2221.7</ele>
        <time>2013-03-21T13:11:52Z</time>
      </trkpt>
      <trkpt lat="42.678045" lon="1.748155">
        <ele>2219.8</ele>
        <time>2013-03-21T13:12:01Z</time>
      </trkpt>
      <trkpt lat="42.678145" lon="1.748138">
        <ele>2216.5</ele>
        <time>2013-03-21T13:12:12Z</time>
      </trkpt>
      <trkpt lat="42.678231" lon="1.748105">
        <ele>2213.1</ele>
        <time>2013-03-21T13:12:37Z</time>
      </trkpt>
      <trkpt lat="42.678303" lon="1.748039">
        <ele>2209.7</ele>
        <time>2013-03-21T13:12:47Z</time>
      </trkpt>
      <trkpt lat="42.678392" lon="1.748037">
        <ele>2207.3</ele>
        <time>2013-03-21T13:12:58Z</time>
      </trkpt>
      <trkpt lat="42.678494" lon="1.748023">
        <ele>2205.9</ele>
        <time>2013-03-21T13:13:08Z</time>
      </trkpt>
      <trkpt lat="42.678586" lon="1.748011">
        <ele>2202.0</ele>
        <time>2013-03-21T13:13:18Z</time>
      </trkpt>
      <trkpt lat="42.678679" lon="1.748008">
        <ele>2199.6</ele>
        <time>2013-03-21T13:13:28Z</time>
      </trkpt>
      <trkpt lat="42.678764" lon="1.747990">
        <ele>2197.2</ele>
        <time>2013-03-21T13:13:37Z</time>
      </trkpt>
      <trkpt lat="42.678851" lon="1.747974">
        <ele>2194.4</ele>
        <time>2013-03-21T13:13:47Z</time>
      </trkpt>
      <trkpt lat="42.678943" lon="1.747967">
        <ele>2191.0</ele>
        <time>2013-03-21T13:13:58Z</time>
      </trkpt>
      <trkpt lat="42.679030" lon="1.747938">
        <ele>2187.1</ele>
        <time>2013-03-21T13:14:10Z</time>
      </trkpt>
      <trkpt lat="42.679123" lon="1.747908">
        <ele>2183.8</ele>
        <time>2013-03-21T13:14:28Z</time>
      </trkpt>
      <trkpt lat="42.679212" lon="1.747870">
        <ele>2179.4</ele>
        <time>2013-03-21T13:14:39Z</time>
      </trkpt>
      <trkpt lat="42.679296" lon="1.747902">
        <ele>2178.0</ele>
        <time>2013-03-21T13:14:49Z</time>
      </trkpt>
      <trkpt lat="42.679378" lon="1.747896">
        <ele>2175.6</ele>
        <time>2013-03-21T13:14:59Z</time>
      </trkpt>
      <trkpt lat="42.679457" lon="1.747889">
        <ele>2172.7</ele>
        <time>2013-03-21T13:15:56Z</time>
      </trkpt>
      <trkpt lat="42.679545" lon="1.747914">
        <ele>2169.8</ele>
        <time>2013-03-21T13:16:04Z</time>
      </trkpt>
      <trkpt lat="42.679641" lon="1.747926">
        <ele>2167.4</ele>
        <time>2013-03-21T13:16:12Z</time>
      </trkpt>
      <trkpt lat="42.679733" lon="1.747933">
        <ele>2166.0</ele>
        <time>2013-03-21T13:16:20Z</time>
      </trkpt>
      <trkpt lat="42.679824" lon="1.747954">
        <ele>2164.1</ele>
        <time>2013-03-21T13:16:28Z</time>
      </trkpt>
      <trkpt lat="42.679916" lon="1.747982">
        <ele>2163.1</ele>
        <time>2013-03-21T13:16:36Z</time>
      </trkpt>
      <trkpt lat="42.679998" lon="1.748020">
        <ele>2163.6</ele>
        <time>2013-03-21T13:16:52Z</time>
      </trkpt>
      <trkpt lat="42.680098" lon="1.748030">
        <ele>2163.6</ele>
        <time>2013-03-21T13:17:02Z</time>
      </trkpt>
      <trkpt lat="42.680199" lon="1.748034">
        <ele>2165.0</ele>
        <time>2013-03-21T13:17:31Z</time>
      </trkpt>
      <trkpt lat="42.680296" lon="1.748040">
        <ele>2167.4</ele>
        <time>2013-03-21T13:17:44Z</time>
      </trkpt>
      <trkpt lat="42.680389" lon="1.748057">
        <ele>2167.4</ele>
        <time>2013-03-21T13:18:07Z</time>
      </trkpt>
      <trkpt lat="42.680486" lon="1.748072">
        <ele>2166.5</ele>
        <time>2013-03-21T13:18:17Z</time>
      </trkpt>
      <trkpt lat="42.680579" lon="1.748082">
        <ele>2166.9</ele>
        <time>2013-03-21T13:18:28Z</time>
      </trkpt>
      <trkpt lat="42.680665" lon="1.748122">
        <ele>2167.4</ele>
        <time>2013-03-21T13:18:39Z</time>
      </trkpt>
      <trkpt lat="42.680761" lon="1.748164">
        <ele>2167.9</ele>
        <time>2013-03-21T13:18:50Z</time>
      </trkpt>
      <trkpt lat="42.680854" lon="1.748193">
        <ele>2166.9</ele>
        <time>2013-03-21T13:19:01Z</time>
      </trkpt>
      <trkpt lat="42.680946" lon="1.748232">
        <ele>2167.4</ele>
        <time>2013-03-21T13:19:11Z</time>
      </trkpt>
      <trkpt lat="42.681037" lon="1.748266">
        <ele>2166.9</ele>
        <time>2013-03-21T13:19:21Z</time>
      </trkpt>
      <trkpt lat="42.681129" lon="1.748309">
        <ele>2167.4</ele>
        <time>2013-03-21T13:19:31Z</time>
      </trkpt>
      <trkpt lat="42.681223" lon="1.748331">
        <ele>2169.8</ele>
        <time>2013-03-21T13:19:41Z</time>
      </trkpt>
      <trkpt lat="42.681303" lon="1.748385">
        <ele>2167.4</ele>
        <time>2013-03-21T13:19:51Z</time>
      </trkpt>
      <trkpt lat="42.681388" lon="1.748410">
        <ele>2163.6</ele>
        <time>2013-03-21T13:20:02Z</time>
      </trkpt>
      <trkpt lat="42.681483" lon="1.748432">
        <ele>2159.7</ele>
        <time>2013-03-21T13:20:12Z</time>
      </trkpt>
      <trkpt lat="42.681581" lon="1.748445">
        <ele>2155.9</ele>
        <time>2013-03-21T13:20:20Z</time>
      </trkpt>
      <trkpt lat="42.681663" lon="1.748465">
        <ele>2152.5</ele>
        <time>2013-03-21T13:20:29Z</time>
      </trkpt>
      <trkpt lat="42.681754" lon="1.748515">
        <ele>2149.6</ele>
        <time>2013-03-21T13:20:38Z</time>
      </trkpt>
      <trkpt lat="42.681840" lon="1.748584">
        <ele>2147.7</ele>
        <time>2013-03-21T13:20:56Z</time>
      </trkpt>
      <trkpt lat="42.681901" lon="1.748626">
        <ele>2145.3</ele>
        <time>2013-03-21T13:22:14Z</time>
      </trkpt>
      <trkpt lat="42.681995" lon="1.748671">
        <ele>2142.4</ele>
        <time>2013-03-21T13:22:24Z</time>
      </trkpt>
      <trkpt lat="42.682075" lon="1.748717">
        <ele>2141.0</ele>
        <time>2013-03-21T13:23:10Z</time>
      </trkpt>
      <trkpt lat="42.682167" lon="1.748746">
        <ele>2139.1</ele>
        <time>2013-03-21T13:23:19Z</time>
      </trkpt>
      <trkpt lat="42.682245" lon="1.748792">
        <ele>2138.6</ele>
        <time>2013-03-21T13:23:28Z</time>
      </trkpt>
      <trkpt lat="42.682331" lon="1.748853">
        <ele>2136.7</ele>
        <time>2013-03-21T13:23:38Z</time>
      </trkpt>
      <trkpt lat="42.682419" lon="1.748879">
        <ele>2135.7</ele>
        <time>2013-03-21T13:23:48Z</time>
      </trkpt>
      <trkpt lat="42.682513" lon="1.748917">
        <ele>2132.8</ele>
        <time>2013-03-21T13:24:00Z</time>
      </trkpt>
      <trkpt lat="42.682607" lon="1.748948">
        <ele>2132.3</ele>
        <time>2013-03-21T13:24:11Z</time>
      </trkpt>
      <trkpt lat="42.682704" lon="1.749007">
        <ele>2131.4</ele>
        <time>2013-03-21T13:24:23Z</time>
      </trkpt>
      <trkpt lat="42.682793" lon="1.749086">
        <ele>2130.9</ele>
        <time>2013-03-21T13:24:35Z</time>
      </trkpt>
      <trkpt lat="42.682885" lon="1.749165">
        <ele>2130.4</ele>
        <time>2013-03-21T13:24:47Z</time>
      </trkpt>
      <trkpt lat="42.682981" lon="1.749262">
        <ele>2130.9</ele>
        <time>2013-03-21T13:25:35Z</time>
      </trkpt>
      <trkpt lat="42.683046" lon="1.749347">
        <ele>2132.8</ele>
        <time>2013-03-21T13:25:48Z</time>
      </trkpt>
      <trkpt lat="42.683124" lon="1.749424">
        <ele>2131.9</ele>
        <time>2013-03-21T13:25:58Z</time>
      </trkpt>
      <trkpt lat="42.683207" lon="1.749485">
        <ele>2132.8</ele>
        <time>2013-03-21T13:26:11Z</time>
      </trkpt>
      <trkpt lat="42.683292" lon="1.749559">
        <ele>2132.3</ele>
        <time>2013-03-21T13:26:22Z</time>
      </trkpt>
      <trkpt lat="42.683376" lon="1.749631">
        <ele>2132.3</ele>
        <time>2013-03-21T13:26:33Z</time>
      </trkpt>
      <trkpt lat="42.683421" lon="1.749608">
        <ele>2129.0</ele>
        <time>2013-03-21T13:27:00Z</time>
      </trkpt>
      <trkpt lat="42.683414" lon="1.749610">
        <ele>2130.9</ele>
        <time>2013-03-21T13:28:51Z</time>
      </trkpt>
      <trkpt lat="42.683446" lon="1.749631">
        <ele>2129.5</ele>
        <time>2013-03-21T14:18:03Z</time>
      </trkpt>
      <trkpt lat="42.683506" lon="1.749719">
        <ele>2129.9</ele>
        <time>2013-03-21T14:19:09Z</time>
      </trkpt>
      <trkpt lat="42.683571" lon="1.749771">
        <ele>2129.0</ele>
        <time>2013-03-21T14:19:25Z</time>
      </trkpt>
      <trkpt lat="42.683642" lon="1.749857">
        <ele>2128.5</ele>
        <time>2013-03-21T14:19:37Z</time>
      </trkpt>
      <trkpt lat="42.683739" lon="1.749908">
        <ele>2126.6</ele>
        <time>2013-03-21T14:20:23Z</time>
      </trkpt>
      <trkpt lat="42.683812" lon="1.749952">
        <ele>2124.6</ele>
        <time>2013-03-21T14:20:35Z</time>
      </trkpt>
      <trkpt lat="42.683903" lon="1.749981">
        <ele>2122.7</ele>
        <time>2013-03-21T14:20:44Z</time>
      </trkpt>
      <trkpt lat="42.683987" lon="1.750020">
        <ele>2120.8</ele>
        <time>2013-03-21T14:21:03Z</time>
      </trkpt>
      <trkpt lat="42.684067" lon="1.750074">
        <ele>2119.4</ele>
        <time>2013-03-21T14:21:12Z</time>
      </trkpt>
      <trkpt lat="42.684144" lon="1.750140">
        <ele>2118.4</ele>
        <time>2013-03-21T14:21:22Z</time>
      </trkpt>
      <trkpt lat="42.684231" lon="1.750201">
        <ele>2117.9</ele>
        <time>2013-03-21T14:21:31Z</time>
      </trkpt>
      <trkpt lat="42.684320" lon="1.750246">
        <ele>2117.9</ele>
        <time>2013-03-21T14:21:40Z</time>
      </trkpt>
      <trkpt lat="42.684418" lon="1.750294">
        <ele>2118.4</ele>
        <time>2013-03-21T14:21:52Z</time>
      </trkpt>
      <trkpt lat="42.684507" lon="1.750351">
        <ele>2117.0</ele>
        <time>2013-03-21T14:22:01Z</time>
      </trkpt>
      <trkpt lat="42.684601" lon="1.750405">
        <ele>2116.0</ele>
        <time>2013-03-21T14:22:12Z</time>
      </trkpt>
      <trkpt lat="42.684681" lon="1.750479">
        <ele>2114.6</ele>
        <time>2013-03-21T14:22:24Z</time>
      </trkpt>
      <trkpt lat="42.684769" lon="1.750559">
        <ele>2115.5</ele>
        <time>2013-03-21T14:22:35Z</time>
      </trkpt>
      <trkpt lat="42.684854" lon="1.750612">
        <ele>2114.6</ele>
        <time>2013-03-21T14:22:44Z</time>
      </trkpt>
      <trkpt lat="42.684946" lon="1.750660">
        <ele>2114.6</ele>
        <time>2013-03-21T14:22:55Z</time>
      </trkpt>
      <trkpt lat="42.685037" lon="1.750689">
        <ele>2115.0</ele>
        <time>2013-03-21T14:23:05Z</time>
      </trkpt>
      <trkpt lat="42.685133" lon="1.750748">
        <ele>2114.1</ele>
        <time>2013-03-21T14:23:15Z</time>
      </trkpt>
      <trkpt lat="42.685219" lon="1.750789">
        <ele>2109.8</ele>
        <time>2013-03-21T14:23:25Z</time>
      </trkpt>
      <trkpt lat="42.685313" lon="1.750841">
        <ele>2115.0</ele>
        <time>2013-03-21T14:23:36Z</time>
      </trkpt>
      <trkpt lat="42.685403" lon="1.750866">
        <ele>2115.0</ele>
        <time>2013-03-21T14:23:45Z</time>
      </trkpt>
      <trkpt lat="42.685495" lon="1.750890">
        <ele>2115.0</ele>
        <time>2013-03-21T14:23:55Z</time>
      </trkpt>
      <trkpt lat="42.685584" lon="1.750921">
        <ele>2115.5</ele>
        <time>2013-03-21T14:24:04Z</time>
      </trkpt>
      <trkpt lat="42.685678" lon="1.750943">
        <ele>2114.6</ele>
        <time>2013-03-21T14:24:13Z</time>
      </trkpt>
      <trkpt lat="42.685775" lon="1.750965">
        <ele>2114.1</ele>
        <time>2013-03-21T14:24:23Z</time>
      </trkpt>
      <trkpt lat="42.685876" lon="1.750984">
        <ele>2114.1</ele>
        <time>2013-03-21T14:24:32Z</time>
      </trkpt>
      <trkpt lat="42.685972" lon="1.751007">
        <ele>2113.6</ele>
        <time>2013-03-21T14:24:43Z</time>
      </trkpt>
      <trkpt lat="42.686067" lon="1.751028">
        <ele>2113.1</ele>
        <time>2013-03-21T14:24:52Z</time>
      </trkpt>
      <trkpt lat="42.686125" lon="1.751051">
        <ele>2113.6</ele>
        <time>2013-03-21T14:25:06Z</time>
      </trkpt>
      <trkpt lat="42.686219" lon="1.751102">
        <ele>2112.1</ele>
        <time>2013-03-21T14:25:15Z</time>
      </trkpt>
      <trkpt lat="42.686319" lon="1.751158">
        <ele>2111.2</ele>
        <time>2013-03-21T14:25:24Z</time>
      </trkpt>
      <trkpt lat="42.686405" lon="1.751221">
        <ele>2111.2</ele>
        <time>2013-03-21T14:25:33Z</time>
      </trkpt>
      <trkpt lat="42.686491" lon="1.751279">
        <ele>2110.2</ele>
        <time>2013-03-21T14:25:42Z</time>
      </trkpt>
      <trkpt lat="42.686571" lon="1.751340">
        <ele>2109.8</ele>
        <time>2013-03-21T14:25:51Z</time>
      </trkpt>
      <trkpt lat="42.686668" lon="1.751388">
        <ele>2108.8</ele>
        <time>2013-03-21T14:26:00Z</time>
      </trkpt>
      <trkpt lat="42.686755" lon="1.751435">
        <ele>2108.3</ele>
        <time>2013-03-21T14:26:09Z</time>
      </trkpt>
      <trkpt lat="42.686847" lon="1.751487">
        <ele>2107.8</ele>
        <time>2013-03-21T14:26:23Z</time>
      </trkpt>
      <trkpt lat="42.686928" lon="1.751539">
        <ele>2106.9</ele>
        <time>2013-03-21T14:26:32Z</time>
      </trkpt>
      <trkpt lat="42.687006" lon="1.751595">
        <ele>2105.9</ele>
        <time>2013-03-21T14:26:50Z</time>
      </trkpt>
      <trkpt lat="42.687095" lon="1.751636">
        <ele>2105.9</ele>
        <time>2013-03-21T14:27:00Z</time>
      </trkpt>
      <trkpt lat="42.687184" lon="1.751687">
        <ele>2105.9</ele>
        <time>2013-03-21T14:27:10Z</time>
      </trkpt>
      <trkpt lat="42.687270" lon="1.751745">
        <ele>2104.5</ele>
        <time>2013-03-21T14:27:20Z</time>
      </trkpt>
      <trkpt lat="42.687353" lon="1.751815">
        <ele>2103.0</ele>
        <time>2013-03-21T14:27:29Z</time>
      </trkpt>
      <trkpt lat="42.687446" lon="1.751857">
        <ele>2101.6</ele>
        <time>2013-03-21T14:27:38Z</time>
      </trkpt>
      <trkpt lat="42.687543" lon="1.751894">
        <ele>2099.7</ele>
        <time>2013-03-21T14:27:47Z</time>
      </trkpt>
      <trkpt lat="42.687644" lon="1.751911">
        <ele>2096.8</ele>
        <time>2013-03-21T14:27:56Z</time>
      </trkpt>
      <trkpt lat="42.687731" lon="1.751972">
        <ele>2095.3</ele>
        <time>2013-03-21T14:28:06Z</time>
      </trkpt>
      <trkpt lat="42.687815" lon="1.752013">
        <ele>2092.9</ele>
        <time>2013-03-21T14:28:15Z</time>
      </trkpt>
      <trkpt lat="42.687884" lon="1.752080">
        <ele>2091.5</ele>
        <time>2013-03-21T14:28:26Z</time>
      </trkpt>
      <trkpt lat="42.687969" lon="1.752129">
        <ele>2090.0</ele>
        <time>2013-03-21T14:28:36Z</time>
      </trkpt>
      <trkpt lat="42.688047" lon="1.752204">
        <ele>2089.1</ele>
        <time>2013-03-21T14:28:45Z</time>
      </trkpt>
      <trkpt lat="42.688112" lon="1.752289">
        <ele>2087.6</ele>
        <time>2013-03-21T14:28:55Z</time>
      </trkpt>
      <trkpt lat="42.688179" lon="1.752378">
        <ele>2086.7</ele>
        <time>2013-03-21T14:29:05Z</time>
      </trkpt>
      <trkpt lat="42.688163" lon="1.752428">
        <ele>2086.2</ele>
        <time>2013-03-21T14:31:59Z</time>
      </trkpt>
      <trkpt lat="42.688231" lon="1.752481">
        <ele>2084.8</ele>
        <time>2013-03-21T14:32:46Z</time>
      </trkpt>
      <trkpt lat="42.688297" lon="1.752569">
        <ele>2084.3</ele>
        <time>2013-03-21T14:32:56Z</time>
      </trkpt>
      <trkpt lat="42.688360" lon="1.752661">
        <ele>2083.8</ele>
        <time>2013-03-21T14:33:06Z</time>
      </trkpt>
      <trkpt lat="42.688418" lon="1.752764">
        <ele>2082.4</ele>
        <time>2013-03-21T14:33:16Z</time>
      </trkpt>
      <trkpt lat="42.688491" lon="1.752859">
        <ele>2081.4</ele>
        <time>2013-03-21T14:33:26Z</time>
      </trkpt>
      <trkpt lat="42.688560" lon="1.752949">
        <ele>2080.9</ele>
        <time>2013-03-21T14:33:35Z</time>
      </trkpt>
      <trkpt lat="42.688611" lon="1.753055">
        <ele>2079.5</ele>
        <time>2013-03-21T14:33:45Z</time>
      </trkpt>
      <trkpt lat="42.688661" lon="1.753167">
        <ele>2078.5</ele>
        <time>2013-03-21T14:34:26Z</time>
      </trkpt>
      <trkpt lat="42.688719" lon="1.753271">
        <ele>2078.0</ele>
        <time>2013-03-21T14:34:36Z</time>
      </trkpt>
      <trkpt lat="42.688764" lon="1.753360">
        <ele>2077.1</ele>
        <time>2013-03-21T14:34:46Z</time>
      </trkpt>
      <trkpt lat="42.688805" lon="1.753491">
        <ele>2076.6</ele>
        <time>2013-03-21T14:34:56Z</time>
      </trkpt>
      <trkpt lat="42.688860" lon="1.753603">
        <ele>2077.1</ele>
        <time>2013-03-21T14:35:06Z</time>
      </trkpt>
      <trkpt lat="42.688920" lon="1.753697">
        <ele>2076.1</ele>
        <time>2013-03-21T14:35:16Z</time>
      </trkpt>
      <trkpt lat="42.688982" lon="1.753795">
        <ele>2075.6</ele>
        <time>2013-03-21T14:35:25Z</time>
      </trkpt>
      <trkpt lat="42.689035" lon="1.753904">
        <ele>2074.2</ele>
        <time>2013-03-21T14:35:36Z</time>
      </trkpt>
      <trkpt lat="42.689085" lon="1.754001">
        <ele>2073.7</ele>
        <time>2013-03-21T14:35:46Z</time>
      </trkpt>
      <trkpt lat="42.689131" lon="1.754122">
        <ele>2073.2</ele>
        <time>2013-03-21T14:35:56Z</time>
      </trkpt>
      <trkpt lat="42.689183" lon="1.754233">
        <ele>2072.7</ele>
        <time>2013-03-21T14:36:07Z</time>
      </trkpt>
      <trkpt lat="42.689237" lon="1.754330">
        <ele>2072.3</ele>
        <time>2013-03-21T14:36:18Z</time>
      </trkpt>
      <trkpt lat="42.689289" lon="1.754431">
        <ele>2071.3</ele>
        <time>2013-03-21T14:36:27Z</time>
      </trkpt>
      <trkpt lat="42.689345" lon="1.754540">
        <ele>2069.4</ele>
        <time>2013-03-21T14:36:37Z</time>
      </trkpt>
      <trkpt lat="42.689395" lon="1.754652">
        <ele>2067.9</ele>
        <time>2013-03-21T14:36:46Z</time>
      </trkpt>
      <trkpt lat="42.689453" lon="1.754765">
        <ele>2067.0</ele>
        <time>2013-03-21T14:36:56Z</time>
      </trkpt>
      <trkpt lat="42.689507" lon="1.754874">
        <ele>2065.5</ele>
        <time>2013-03-21T14:37:05Z</time>
      </trkpt>
      <trkpt lat="42.689587" lon="1.754967">
        <ele>2064.1</ele>
        <time>2013-03-21T14:37:16Z</time>
      </trkpt>
      <trkpt lat="42.689656" lon="1.755059">
        <ele>2062.2</ele>
        <time>2013-03-21T14:37:26Z</time>
      </trkpt>
      <trkpt lat="42.689729" lon="1.755142">
        <ele>2060.2</ele>
        <time>2013-03-21T14:37:37Z</time>
      </trkpt>
      <trkpt lat="42.689806" lon="1.755226">
        <ele>2058.8</ele>
        <time>2013-03-21T14:37:48Z</time>
      </trkpt>
      <trkpt lat="42.689878" lon="1.755312">
        <ele>2057.4</ele>
        <time>2013-03-21T14:37:56Z</time>
      </trkpt>
      <trkpt lat="42.689950" lon="1.755403">
        <ele>2055.9</ele>
        <time>2013-03-21T14:38:06Z</time>
      </trkpt>
      <trkpt lat="42.690016" lon="1.755502">
        <ele>2054.5</ele>
        <time>2013-03-21T14:38:15Z</time>
      </trkpt>
      <trkpt lat="42.690079" lon="1.755609">
        <ele>2052.6</ele>
        <time>2013-03-21T14:38:24Z</time>
      </trkpt>
      <trkpt lat="42.690159" lon="1.755685">
        <ele>2051.1</ele>
        <time>2013-03-21T14:38:33Z</time>
      </trkpt>
      <trkpt lat="42.690233" lon="1.755751">
        <ele>2049.2</ele>
        <time>2013-03-21T14:38:42Z</time>
      </trkpt>
      <trkpt lat="42.690333" lon="1.755802">
        <ele>2048.7</ele>
        <time>2013-03-21T14:38:53Z</time>
      </trkpt>
      <trkpt lat="42.690432" lon="1.755826">
        <ele>2046.8</ele>
        <time>2013-03-21T14:39:02Z</time>
      </trkpt>
      <trkpt lat="42.690528" lon="1.755839">
        <ele>2045.3</ele>
        <time>2013-03-21T14:39:11Z</time>
      </trkpt>
      <trkpt lat="42.690617" lon="1.755883">
        <ele>2043.9</ele>
        <time>2013-03-21T14:39:21Z</time>
      </trkpt>
      <trkpt lat="42.690717" lon="1.755907">
        <ele>2042.9</ele>
        <time>2013-03-21T14:39:31Z</time>
      </trkpt>
      <trkpt lat="42.690807" lon="1.755971">
        <ele>2040.5</ele>
        <time>2013-03-21T14:39:41Z</time>
      </trkpt>
      <trkpt lat="42.690899" lon="1.756006">
        <ele>2039.6</ele>
        <time>2013-03-21T14:39:50Z</time>
      </trkpt>
      <trkpt lat="42.690997" lon="1.756047">
        <ele>2038.1</ele>
        <time>2013-03-21T14:40:01Z</time>
      </trkpt>
      <trkpt lat="42.691082" lon="1.756123">
        <ele>2037.7</ele>
        <time>2013-03-21T14:40:11Z</time>
      </trkpt>
      <trkpt lat="42.691187" lon="1.756154">
        <ele>2036.7</ele>
        <time>2013-03-21T14:40:22Z</time>
      </trkpt>
      <trkpt lat="42.691281" lon="1.756197">
        <ele>2035.2</ele>
        <time>2013-03-21T14:40:33Z</time>
      </trkpt>
      <trkpt lat="42.691368" lon="1.756251">
        <ele>2034.3</ele>
        <time>2013-03-21T14:40:44Z</time>
      </trkpt>
      <trkpt lat="42.691460" lon="1.756315">
        <ele>2032.8</ele>
        <time>2013-03-21T14:40:54Z</time>
      </trkpt>
      <trkpt lat="42.691558" lon="1.756357">
        <ele>2031.9</ele>
        <time>2013-03-21T14:41:05Z</time>
      </trkpt>
      <trkpt lat="42.691653" lon="1.756406">
        <ele>2030.9</ele>
        <time>2013-03-21T14:41:16Z</time>
      </trkpt>
      <trkpt lat="42.691736" lon="1.756505">
        <ele>2030.4</ele>
        <time>2013-03-21T14:41:29Z</time>
      </trkpt>
      <trkpt lat="42.691805" lon="1.756589">
        <ele>2030.9</ele>
        <time>2013-03-21T14:41:41Z</time>
      </trkpt>
      <trkpt lat="42.691891" lon="1.756680">
        <ele>2030.0</ele>
        <time>2013-03-21T14:41:53Z</time>
      </trkpt>
      <trkpt lat="42.691966" lon="1.756704">
        <ele>2029.5</ele>
        <time>2013-03-21T14:42:13Z</time>
      </trkpt>
      <trkpt lat="42.692066" lon="1.756754">
        <ele>2027.6</ele>
        <time>2013-03-21T14:42:25Z</time>
      </trkpt>
      <trkpt lat="42.692164" lon="1.756780">
        <ele>2027.6</ele>
        <time>2013-03-21T14:42:35Z</time>
      </trkpt>
      <trkpt lat="42.692264" lon="1.756818">
        <ele>2025.6</ele>
        <time>2013-03-21T14:42:44Z</time>
      </trkpt>
      <trkpt lat="42.692364" lon="1.756854">
        <ele>2024.7</ele>
        <time>2013-03-21T14:42:55Z</time>
      </trkpt>
      <trkpt lat="42.692470" lon="1.756908">
        <ele>2023.7</ele>
        <time>2013-03-21T14:43:07Z</time>
      </trkpt>
      <trkpt lat="42.692577" lon="1.756955">
        <ele>2023.2</ele>
        <time>2013-03-21T14:43:18Z</time>
      </trkpt>
      <trkpt lat="42.692669" lon="1.757019">
        <ele>2021.3</ele>
        <time>2013-03-21T14:43:28Z</time>
      </trkpt>
      <trkpt lat="42.692773" lon="1.757061">
        <ele>2019.9</ele>
        <time>2013-03-21T14:43:37Z</time>
      </trkpt>
      <trkpt lat="42.692870" lon="1.757098">
        <ele>2018.9</ele>
        <time>2013-03-21T14:43:45Z</time>
      </trkpt>
      <trkpt lat="42.692968" lon="1.757132">
        <ele>2017.5</ele>
        <time>2013-03-21T14:43:54Z</time>
      </trkpt>
      <trkpt lat="42.693072" lon="1.757173">
        <ele>2015.1</ele>
        <time>2013-03-21T14:44:04Z</time>
      </trkpt>
      <trkpt lat="42.693167" lon="1.757195">
        <ele>2013.1</ele>
        <time>2013-03-21T14:44:12Z</time>
      </trkpt>
      <trkpt lat="42.693266" lon="1.757226">
        <ele>2012.7</ele>
        <time>2013-03-21T14:44:22Z</time>
      </trkpt>
      <trkpt lat="42.693359" lon="1.757261">
        <ele>2010.7</ele>
        <time>2013-03-21T14:44:32Z</time>
      </trkpt>
      <trkpt lat="42.693459" lon="1.757277">
        <ele>2008.3</ele>
        <time>2013-03-21T14:44:41Z</time>
      </trkpt>
      <trkpt lat="42.693556" lon="1.757308">
        <ele>2007.4</ele>
        <time>2013-03-21T14:44:50Z</time>
      </trkpt>
      <trkpt lat="42.693651" lon="1.757329">
        <ele>2005.9</ele>
        <time>2013-03-21T14:44:58Z</time>
      </trkpt>
      <trkpt lat="42.693749" lon="1.757359">
        <ele>2005.0</ele>
        <time>2013-03-21T14:45:08Z</time>
      </trkpt>
      <trkpt lat="42.693853" lon="1.757381">
        <ele>2004.5</ele>
        <time>2013-03-21T14:45:17Z</time>
      </trkpt>
      <trkpt lat="42.693944" lon="1.757405">
        <ele>2003.5</ele>
        <time>2013-03-21T14:45:26Z</time>
      </trkpt>
      <trkpt lat="42.694046" lon="1.757449">
        <ele>2002.6</ele>
        <time>2013-03-21T14:45:35Z</time>
      </trkpt>
      <trkpt lat="42.694141" lon="1.757487">
        <ele>2002.6</ele>
        <time>2013-03-21T14:45:44Z</time>
      </trkpt>
      <trkpt lat="42.694229" lon="1.757493">
        <ele>2002.1</ele>
        <time>2013-03-21T14:45:54Z</time>
      </trkpt>
      <trkpt lat="42.694305" lon="1.757501">
        <ele>2001.6</ele>
        <time>2013-03-21T14:51:43Z</time>
      </trkpt>
      <trkpt lat="42.694308" lon="1.757470">
        <ele>2001.1</ele>
        <time>2013-03-21T14:52:28Z</time>
      </trkpt>
      <trkpt lat="42.694404" lon="1.757467">
        <ele>1999.7</ele>
        <time>2013-03-21T14:52:37Z</time>
      </trkpt>
      <trkpt lat="42.694503" lon="1.757445">
        <ele>1997.8</ele>
        <time>2013-03-21T14:52:46Z</time>
      </trkpt>
      <trkpt lat="42.694605" lon="1.757440">
        <ele>1996.8</ele>
        <time>2013-03-21T14:52:54Z</time>
      </trkpt>
      <trkpt lat="42.694696" lon="1.757428">
        <ele>1994.4</ele>
        <time>2013-03-21T14:53:03Z</time>
      </trkpt>
      <trkpt lat="42.694794" lon="1.757407">
        <ele>1993.4</ele>
        <time>2013-03-21T14:53:14Z</time>
      </trkpt>
      <trkpt lat="42.694887" lon="1.757378">
        <ele>1992.5</ele>
        <time>2013-03-21T14:53:24Z</time>
      </trkpt>
      <trkpt lat="42.694989" lon="1.757357">
        <ele>1991.0</ele>
        <time>2013-03-21T14:53:34Z</time>
      </trkpt>
      <trkpt lat="42.695084" lon="1.757297">
        <ele>1990.1</ele>
        <time>2013-03-21T14:53:44Z</time>
      </trkpt>
      <trkpt lat="42.695181" lon="1.757294">
        <ele>1987.7</ele>
        <time>2013-03-21T14:53:53Z</time>
      </trkpt>
      <trkpt lat="42.695276" lon="1.757272">
        <ele>1987.2</ele>
        <time>2013-03-21T14:54:03Z</time>
      </trkpt>
      <trkpt lat="42.695376" lon="1.757272">
        <ele>1986.7</ele>
        <time>2013-03-21T14:54:14Z</time>
      </trkpt>
      <trkpt lat="42.695479" lon="1.757284">
        <ele>1984.3</ele>
        <time>2013-03-21T14:54:23Z</time>
      </trkpt>
      <trkpt lat="42.695574" lon="1.757313">
        <ele>1983.3</ele>
        <time>2013-03-21T14:54:31Z</time>
      </trkpt>
      <trkpt lat="42.695669" lon="1.757327">
        <ele>1982.4</ele>
        <time>2013-03-21T14:54:39Z</time>
      </trkpt>
      <trkpt lat="42.695763" lon="1.757335">
        <ele>1982.4</ele>
        <time>2013-03-21T14:54:47Z</time>
      </trkpt>
      <trkpt lat="42.695864" lon="1.757341">
        <ele>1980.9</ele>
        <time>2013-03-21T14:54:56Z</time>
      </trkpt>
      <trkpt lat="42.695971" lon="1.757343">
        <ele>1980.4</ele>
        <time>2013-03-21T14:55:05Z</time>
      </trkpt>
      <trkpt lat="42.696068" lon="1.757355">
        <ele>1980.9</ele>
        <time>2013-03-21T14:55:14Z</time>
      </trkpt>
      <trkpt lat="42.696163" lon="1.757370">
        <ele>1981.4</ele>
        <time>2013-03-21T14:55:24Z</time>
      </trkpt>
      <trkpt lat="42.696260" lon="1.757366">
        <ele>1981.4</ele>
        <time>2013-03-21T14:55:34Z</time>
      </trkpt>
      <trkpt lat="42.696353" lon="1.757381">
        <ele>1982.4</ele>
        <time>2013-03-21T14:55:44Z</time>
      </trkpt>
      <trkpt lat="42.696443" lon="1.757401">
        <ele>1983.3</ele>
        <time>2013-03-21T14:55:54Z</time>
      </trkpt>
      <trkpt lat="42.696537" lon="1.757425">
        <ele>1984.3</ele>
        <time>2013-03-21T14:56:05Z</time>
      </trkpt>
      <trkpt lat="42.696630" lon="1.757456">
        <ele>1984.3</ele>
        <time>2013-03-21T14:56:16Z</time>
      </trkpt>
      <trkpt lat="42.696716" lon="1.757484">
        <ele>1984.8</ele>
        <time>2013-03-21T14:56:27Z</time>
      </trkpt>
      <trkpt lat="42.696803" lon="1.757490">
        <ele>1985.3</ele>
        <time>2013-03-21T14:56:38Z</time>
      </trkpt>
      <trkpt lat="42.696915" lon="1.757486">
        <ele>1986.7</ele>
        <time>2013-03-21T14:56:57Z</time>
      </trkpt>
      <trkpt lat="42.697013" lon="1.757491">
        <ele>1987.2</ele>
        <time>2013-03-21T14:57:08Z</time>
      </trkpt>
      <trkpt lat="42.697109" lon="1.757512">
        <ele>1987.7</ele>
        <time>2013-03-21T14:57:17Z</time>
      </trkpt>
      <trkpt lat="42.697200" lon="1.757531">
        <ele>1987.7</ele>
        <time>2013-03-21T14:57:26Z</time>
      </trkpt>
      <trkpt lat="42.697300" lon="1.757553">
        <ele>1988.6</ele>
        <time>2013-03-21T14:57:35Z</time>
      </trkpt>
      <trkpt lat="42.697382" lon="1.757595">
        <ele>1989.1</ele>
        <time>2013-03-21T14:57:44Z</time>
      </trkpt>
      <trkpt lat="42.697467" lon="1.757631">
        <ele>1989.6</ele>
        <time>2013-03-21T14:57:55Z</time>
      </trkpt>
      <trkpt lat="42.697559" lon="1.757687">
        <ele>1990.1</ele>
        <time>2013-03-21T14:58:06Z</time>
      </trkpt>
      <trkpt lat="42.697650" lon="1.757725">
        <ele>1991.0</ele>
        <time>2013-03-21T14:58:17Z</time>
      </trkpt>
      <trkpt lat="42.697749" lon="1.757752">
        <ele>1991.5</ele>
        <time>2013-03-21T14:58:29Z</time>
      </trkpt>
      <trkpt lat="42.697823" lon="1.757790">
        <ele>1992.0</ele>
        <time>2013-03-21T14:58:40Z</time>
      </trkpt>
      <trkpt lat="42.697926" lon="1.757807">
        <ele>1992.0</ele>
        <time>2013-03-21T14:58:50Z</time>
      </trkpt>
      <trkpt lat="42.698026" lon="1.757809">
        <ele>1992.0</ele>
        <time>2013-03-21T14:59:00Z</time>
      </trkpt>
      <trkpt lat="42.698120" lon="1.757850">
        <ele>1992.9</ele>
        <time>2013-03-21T14:59:10Z</time>
      </trkpt>
      <trkpt lat="42.698208" lon="1.757889">
        <ele>1992.5</ele>
        <time>2013-03-21T14:59:19Z</time>
      </trkpt>
      <trkpt lat="42.698254" lon="1.757970">
        <ele>1992.0</ele>
        <time>2013-03-21T15:01:56Z</time>
      </trkpt>
      <trkpt lat="42.698346" lon="1.757960">
        <ele>1992.0</ele>
        <time>2013-03-21T15:02:10Z</time>
      </trkpt>
      <trkpt lat="42.698452" lon="1.757958">
        <ele>1992.0</ele>
        <time>2013-03-21T15:02:20Z</time>
      </trkpt>
      <trkpt lat="42.698544" lon="1.757972">
        <ele>1994.9</ele>
        <time>2013-03-21T15:02:30Z</time>
      </trkpt>
      <trkpt lat="42.698641" lon="1.757975">
        <ele>1991.5</ele>
        <time>2013-03-21T15:02:40Z</time>
      </trkpt>
      <trkpt lat="42.698741" lon="1.757967">
        <ele>1992.5</ele>
        <time>2013-03-21T15:02:49Z</time>
      </trkpt>
      <trkpt lat="42.698838" lon="1.757942">
        <ele>1992.9</ele>
        <time>2013-03-21T15:02:59Z</time>
      </trkpt>
      <trkpt lat="42.698940" lon="1.757938">
        <ele>1993.4</ele>
        <time>2013-03-21T15:03:09Z</time>
      </trkpt>
      <trkpt lat="42.699031" lon="1.757952">
        <ele>1994.4</ele>
        <time>2013-03-21T15:03:18Z</time>
      </trkpt>
      <trkpt lat="42.699130" lon="1.757949">
        <ele>1993.4</ele>
        <time>2013-03-21T15:03:27Z</time>
      </trkpt>
      <trkpt lat="42.699217" lon="1.757976">
        <ele>1992.9</ele>
        <time>2013-03-21T15:03:35Z</time>
      </trkpt>
      <trkpt lat="42.699307" lon="1.757979">
        <ele>1991.5</ele>
        <time>2013-03-21T15:03:44Z</time>
      </trkpt>
      <trkpt lat="42.699402" lon="1.757967">
        <ele>1991.0</ele>
        <time>2013-03-21T15:03:52Z</time>
      </trkpt>
      <trkpt lat="42.699491" lon="1.757952">
        <ele>1990.6</ele>
        <time>2013-03-21T15:04:00Z</time>
      </trkpt>
      <trkpt lat="42.699590" lon="1.757933">
        <ele>1990.1</ele>
        <time>2013-03-21T15:04:09Z</time>
      </trkpt>
      <trkpt lat="42.699686" lon="1.757905">
        <ele>1989.6</ele>
        <time>2013-03-21T15:04:19Z</time>
      </trkpt>
      <trkpt lat="42.699776" lon="1.757879">
        <ele>1988.1</ele>
        <time>2013-03-21T15:04:28Z</time>
      </trkpt>
      <trkpt lat="42.699868" lon="1.757840">
        <ele>1987.2</ele>
        <time>2013-03-21T15:04:37Z</time>
      </trkpt>
      <trkpt lat="42.699958" lon="1.757799">
        <ele>1986.7</ele>
        <time>2013-03-21T15:04:46Z</time>
      </trkpt>
      <trkpt lat="42.700052" lon="1.757764">
        <ele>1986.7</ele>
        <time>2013-03-21T15:04:55Z</time>
      </trkpt>
      <trkpt lat="42.700148" lon="1.757729">
        <ele>1986.2</ele>
        <time>2013-03-21T15:05:04Z</time>
      </trkpt>
      <trkpt lat="42.700241" lon="1.757708">
        <ele>1985.3</ele>
        <time>2013-03-21T15:05:13Z</time>
      </trkpt>
      <trkpt lat="42.700307" lon="1.757695">
        <ele>1985.3</ele>
        <time>2013-03-21T15:06:10Z</time>
      </trkpt>
      <trkpt lat="42.700307" lon="1.757663">
        <ele>1984.8</ele>
        <time>2013-03-21T15:09:44Z</time>
      </trkpt>
      <trkpt lat="42.700397" lon="1.757605">
        <ele>1984.3</ele>
        <time>2013-03-21T15:09:53Z</time>
      </trkpt>
      <trkpt lat="42.700479" lon="1.757543">
        <ele>1983.8</ele>
        <time>2013-03-21T15:10:02Z</time>
      </trkpt>
      <trkpt lat="42.700558" lon="1.757484">
        <ele>1983.3</ele>
        <time>2013-03-21T15:10:11Z</time>
      </trkpt>
      <trkpt lat="42.700636" lon="1.757420">
        <ele>1982.9</ele>
        <time>2013-03-21T15:10:21Z</time>
      </trkpt>
      <trkpt lat="42.700725" lon="1.757366">
        <ele>1981.9</ele>
        <time>2013-03-21T15:10:30Z</time>
      </trkpt>
      <trkpt lat="42.700809" lon="1.757312">
        <ele>1981.9</ele>
        <time>2013-03-21T15:10:39Z</time>
      </trkpt>
      <trkpt lat="42.700892" lon="1.757252">
        <ele>1980.9</ele>
        <time>2013-03-21T15:10:49Z</time>
      </trkpt>
      <trkpt lat="42.700967" lon="1.757201">
        <ele>1979.5</ele>
        <time>2013-03-21T15:10:58Z</time>
      </trkpt>
      <trkpt lat="42.701051" lon="1.757146">
        <ele>1978.5</ele>
        <time>2013-03-21T15:11:07Z</time>
      </trkpt>
      <trkpt lat="42.701133" lon="1.757085">
        <ele>1977.6</ele>
        <time>2013-03-21T15:11:16Z</time>
      </trkpt>
      <trkpt lat="42.701219" lon="1.757027">
        <ele>1976.6</ele>
        <time>2013-03-21T15:11:26Z</time>
      </trkpt>
      <trkpt lat="42.701301" lon="1.756960">
        <ele>1976.6</ele>
        <time>2013-03-21T15:11:35Z</time>
      </trkpt>
      <trkpt lat="42.701369" lon="1.756877">
        <ele>1975.7</ele>
        <time>2013-03-21T15:11:45Z</time>
      </trkpt>
      <trkpt lat="42.701453" lon="1.756788">
        <ele>1974.7</ele>
        <time>2013-03-21T15:11:55Z</time>
      </trkpt>
      <trkpt lat="42.701529" lon="1.756713">
        <ele>1973.7</ele>
        <time>2013-03-21T15:12:04Z</time>
      </trkpt>
      <trkpt lat="42.701614" lon="1.756659">
        <ele>1973.7</ele>
        <time>2013-03-21T15:12:14Z</time>
      </trkpt>
      <trkpt lat="42.701697" lon="1.756586">
        <ele>1972.8</ele>
        <time>2013-03-21T15:12:23Z</time>
      </trkpt>
      <trkpt lat="42.701771" lon="1.756527">
        <ele>1971.3</ele>
        <time>2013-03-21T15:12:32Z</time>
      </trkpt>
      <trkpt lat="42.701843" lon="1.756435">
        <ele>1969.9</ele>
        <time>2013-03-21T15:12:41Z</time>
      </trkpt>
      <trkpt lat="42.701943" lon="1.756384">
        <ele>1968.9</ele>
        <time>2013-03-21T15:12:55Z</time>
      </trkpt>
      <trkpt lat="42.702036" lon="1.756372">
        <ele>1968.4</ele>
        <time>2013-03-21T15:13:05Z</time>
      </trkpt>
      <trkpt lat="42.702126" lon="1.756331">
        <ele>1968.0</ele>
        <time>2013-03-21T15:13:13Z</time>
      </trkpt>
      <trkpt lat="42.702214" lon="1.756304">
        <ele>1967.0</ele>
        <time>2013-03-21T15:13:22Z</time>
      </trkpt>
      <trkpt lat="42.702315" lon="1.756265">
        <ele>1965.1</ele>
        <time>2013-03-21T15:13:32Z</time>
      </trkpt>
      <trkpt lat="42.702411" lon="1.756232">
        <ele>1965.1</ele>
        <time>2013-03-21T15:13:42Z</time>
      </trkpt>
      <trkpt lat="42.702505" lon="1.756191">
        <ele>1963.2</ele>
        <time>2013-03-21T15:13:52Z</time>
      </trkpt>
      <trkpt lat="42.702597" lon="1.756141">
        <ele>1963.2</ele>
        <time>2013-03-21T15:14:01Z</time>
      </trkpt>
      <trkpt lat="42.702679" lon="1.756100">
        <ele>1962.2</ele>
        <time>2013-03-21T15:14:10Z</time>
      </trkpt>
      <trkpt lat="42.702770" lon="1.756059">
        <ele>1961.7</ele>
        <time>2013-03-21T15:14:20Z</time>
      </trkpt>
      <trkpt lat="42.702865" lon="1.756015">
        <ele>1960.8</ele>
        <time>2013-03-21T15:14:30Z</time>
      </trkpt>
      <trkpt lat="42.702948" lon="1.755963">
        <ele>1960.3</ele>
        <time>2013-03-21T15:14:40Z</time>
      </trkpt>
      <trkpt lat="42.703038" lon="1.755911">
        <ele>1959.8</ele>
        <time>2013-03-21T15:14:53Z</time>
      </trkpt>
      <trkpt lat="42.703129" lon="1.755894">
        <ele>1958.8</ele>
        <time>2013-03-21T15:15:04Z</time>
      </trkpt>
      <trkpt lat="42.703193" lon="1.755882">
        <ele>1958.8</ele>
        <time>2013-03-21T15:15:16Z</time>
      </trkpt>
      <trkpt lat="42.703292" lon="1.755867">
        <ele>1958.3</ele>
        <time>2013-03-21T15:15:33Z</time>
      </trkpt>
      <trkpt lat="42.703375" lon="1.755861">
        <ele>1958.3</ele>
        <time>2013-03-21T15:15:42Z</time>
      </trkpt>
      <trkpt lat="42.703452" lon="1.755841">
        <ele>1957.4</ele>
        <time>2013-03-21T15:15:52Z</time>
      </trkpt>
      <trkpt lat="42.703545" lon="1.755815">
        <ele>1954.0</ele>
        <time>2013-03-21T15:16:07Z</time>
      </trkpt>
      <trkpt lat="42.703631" lon="1.755757">
        <ele>1951.6</ele>
        <time>2013-03-21T15:16:20Z</time>
      </trkpt>
      <trkpt lat="42.703711" lon="1.755706">
        <ele>1950.2</ele>
        <time>2013-03-21T15:16:37Z</time>
      </trkpt>
      <trkpt lat="42.703826" lon="1.755658">
        <ele>1948.7</ele>
        <time>2013-03-21T15:16:49Z</time>
      </trkpt>
      <trkpt lat="42.703931" lon="1.755647">
        <ele>1947.3</ele>
        <time>2013-03-21T15:17:00Z</time>
      </trkpt>
      <trkpt lat="42.704039" lon="1.755667">
        <ele>1945.8</ele>
        <time>2013-03-21T15:17:11Z</time>
      </trkpt>
      <trkpt lat="42.704141" lon="1.755651">
        <ele>1943.9</ele>
        <time>2013-03-21T15:17:22Z</time>
      </trkpt>
      <trkpt lat="42.704221" lon="1.755578">
        <ele>1941.5</ele>
        <time>2013-03-21T15:17:34Z</time>
      </trkpt>
      <trkpt lat="42.704303" lon="1.755633">
        <ele>1939.6</ele>
        <time>2013-03-21T15:17:47Z</time>
      </trkpt>
      <trkpt lat="42.704431" lon="1.755681">
        <ele>1938.2</ele>
        <time>2013-03-21T15:18:13Z</time>
      </trkpt>
      <trkpt lat="42.704518" lon="1.755744">
        <ele>1936.7</ele>
        <time>2013-03-21T15:18:24Z</time>
      </trkpt>
      <trkpt lat="42.704596" lon="1.755843">
        <ele>1934.3</ele>
        <time>2013-03-21T15:18:34Z</time>
      </trkpt>
      <trkpt lat="42.704687" lon="1.755924">
        <ele>1932.4</ele>
        <time>2013-03-21T15:18:45Z</time>
      </trkpt>
      <trkpt lat="42.704803" lon="1.755948">
        <ele>1930.0</ele>
        <time>2013-03-21T15:18:57Z</time>
      </trkpt>
      <trkpt lat="42.704928" lon="1.755895">
        <ele>1925.7</ele>
        <time>2013-03-21T15:19:11Z</time>
      </trkpt>
      <trkpt lat="42.705032" lon="1.755878">
        <ele>1923.7</ele>
        <time>2013-03-21T15:19:23Z</time>
      </trkpt>
      <trkpt lat="42.705155" lon="1.755830">
        <ele>1919.9</ele>
        <time>2013-03-21T15:20:28Z</time>
      </trkpt>
      <trkpt lat="42.705247" lon="1.755797">
        <ele>1917.0</ele>
        <time>2013-03-21T15:20:39Z</time>
      </trkpt>
      <trkpt lat="42.705342" lon="1.755794">
        <ele>1915.6</ele>
        <time>2013-03-21T15:20:50Z</time>
      </trkpt>
      <trkpt lat="42.705436" lon="1.755769">
        <ele>1913.6</ele>
        <time>2013-03-21T15:21:01Z</time>
      </trkpt>
      <trkpt lat="42.705522" lon="1.755727">
        <ele>1911.2</ele>
        <time>2013-03-21T15:21:11Z</time>
      </trkpt>
      <trkpt lat="42.705626" lon="1.755680">
        <ele>1908.8</ele>
        <time>2013-03-21T15:21:23Z</time>
      </trkpt>
      <trkpt lat="42.705708" lon="1.755619">
        <ele>1907.4</ele>
        <time>2013-03-21T15:21:34Z</time>
      </trkpt>
      <trkpt lat="42.705802" lon="1.755578">
        <ele>1905.9</ele>
        <time>2013-03-21T15:21:46Z</time>
      </trkpt>
      <trkpt lat="42.705904" lon="1.755592">
        <ele>1902.1</ele>
        <time>2013-03-21T15:21:57Z</time>
      </trkpt>
      <trkpt lat="42.706013" lon="1.755587">
        <ele>1900.7</ele>
        <time>2013-03-21T15:22:09Z</time>
      </trkpt>
      <trkpt lat="42.706134" lon="1.755555">
        <ele>1899.7</ele>
        <time>2013-03-21T15:22:23Z</time>
      </trkpt>
      <trkpt lat="42.706271" lon="1.755526">
        <ele>1896.8</ele>
        <time>2013-03-21T15:22:38Z</time>
      </trkpt>
      <trkpt lat="42.706404" lon="1.755514">
        <ele>1894.4</ele>
        <time>2013-03-21T15:22:53Z</time>
      </trkpt>
      <trkpt lat="42.706527" lon="1.755498">
        <ele>1891.1</ele>
        <time>2013-03-21T15:23:05Z</time>
      </trkpt>
      <trkpt lat="42.706632" lon="1.755486">
        <ele>1888.7</ele>
        <time>2013-03-21T15:23:15Z</time>
      </trkpt>
      <trkpt lat="42.706717" lon="1.755447">
        <ele>1886.7</ele>
        <time>2013-03-21T15:23:26Z</time>
      </trkpt>
      <trkpt lat="42.706822" lon="1.755419">
        <ele>1885.3</ele>
        <time>2013-03-21T15:23:40Z</time>
      </trkpt>
      <trkpt lat="42.706929" lon="1.755389">
        <ele>1883.8</ele>
        <time>2013-03-21T15:23:53Z</time>
      </trkpt>
      <trkpt lat="42.707040" lon="1.755414">
        <ele>1882.9</ele>
        <time>2013-03-21T15:24:05Z</time>
      </trkpt>
      <trkpt lat="42.707143" lon="1.755418">
        <ele>1881.0</ele>
        <time>2013-03-21T15:24:16Z</time>
      </trkpt>
      <trkpt lat="42.707237" lon="1.755369">
        <ele>1879.0</ele>
        <time>2013-03-21T15:24:27Z</time>
      </trkpt>
      <trkpt lat="42.707318" lon="1.755280">
        <ele>1878.6</ele>
        <time>2013-03-21T15:24:41Z</time>
      </trkpt>
      <trkpt lat="42.707417" lon="1.755268">
        <ele>1876.6</ele>
        <time>2013-03-21T15:24:54Z</time>
      </trkpt>
      <trkpt lat="42.707527" lon="1.755191">
        <ele>1876.2</ele>
        <time>2013-03-21T15:25:07Z</time>
      </trkpt>
      <trkpt lat="42.707591" lon="1.755162">
        <ele>1874.7</ele>
        <time>2013-03-21T15:29:26Z</time>
      </trkpt>
      <trkpt lat="42.707679" lon="1.755185">
        <ele>1873.3</ele>
        <time>2013-03-21T15:29:40Z</time>
      </trkpt>
      <trkpt lat="42.707808" lon="1.755158">
        <ele>1871.8</ele>
        <time>2013-03-21T15:29:55Z</time>
      </trkpt>
      <trkpt lat="42.707956" lon="1.755099">
        <ele>1869.4</ele>
        <time>2013-03-21T15:30:14Z</time>
      </trkpt>
      <trkpt lat="42.708107" lon="1.755098">
        <ele>1868.5</ele>
        <time>2013-03-21T15:30:27Z</time>
      </trkpt>
      <trkpt lat="42.708238" lon="1.755102">
        <ele>1867.0</ele>
        <time>2013-03-21T15:30:40Z</time>
      </trkpt>
      <trkpt lat="42.708359" lon="1.755090">
        <ele>1865.6</ele>
        <time>2013-03-21T15:30:51Z</time>
      </trkpt>
      <trkpt lat="42.708475" lon="1.755009">
        <ele>1864.6</ele>
        <time>2013-03-21T15:31:04Z</time>
      </trkpt>
      <trkpt lat="42.708601" lon="1.755028">
        <ele>1862.7</ele>
        <time>2013-03-21T15:31:16Z</time>
      </trkpt>
      <trkpt lat="42.708787" lon="1.754997">
        <ele>1860.8</ele>
        <time>2013-03-21T15:31:33Z</time>
      </trkpt>
      <trkpt lat="42.708935" lon="1.754956">
        <ele>1859.3</ele>
        <time>2013-03-21T15:31:48Z</time>
      </trkpt>
      <trkpt lat="42.709093" lon="1.754931">
        <ele>1856.4</ele>
        <time>2013-03-21T15:32:01Z</time>
      </trkpt>
      <trkpt lat="42.709223" lon="1.754886">
        <ele>1854.5</ele>
        <time>2013-03-21T15:32:13Z</time>
      </trkpt>
      <trkpt lat="42.709355" lon="1.754840">
        <ele>1852.6</ele>
        <time>2013-03-21T15:32:28Z</time>
      </trkpt>
      <trkpt lat="42.709513" lon="1.754809">
        <ele>1850.7</ele>
        <time>2013-03-21T15:32:58Z</time>
      </trkpt>
      <trkpt lat="42.709632" lon="1.754781">
        <ele>1847.8</ele>
        <time>2013-03-21T15:33:09Z</time>
      </trkpt>
      <trkpt lat="42.709760" lon="1.754739">
        <ele>1847.3</ele>
        <time>2013-03-21T15:33:22Z</time>
      </trkpt>
      <trkpt lat="42.709885" lon="1.754682">
        <ele>1845.9</ele>
        <time>2013-03-21T15:33:36Z</time>
      </trkpt>
      <trkpt lat="42.710072" lon="1.754624">
        <ele>1843.5</ele>
        <time>2013-03-21T15:34:00Z</time>
      </trkpt>
      <trkpt lat="42.710202" lon="1.754588">
        <ele>1841.5</ele>
        <time>2013-03-21T15:34:15Z</time>
      </trkpt>
      <trkpt lat="42.710331" lon="1.754494">
        <ele>1840.1</ele>
        <time>2013-03-21T15:34:33Z</time>
      </trkpt>
      <trkpt lat="42.710480" lon="1.754494">
        <ele>1837.7</ele>
        <time>2013-03-21T15:34:50Z</time>
      </trkpt>
      <trkpt lat="42.710622" lon="1.754462">
        <ele>1835.3</ele>
        <time>2013-03-21T15:35:44Z</time>
      </trkpt>
      <trkpt lat="42.710744" lon="1.754424">
        <ele>1834.8</ele>
        <time>2013-03-21T15:35:57Z</time>
      </trkpt>
      <trkpt lat="42.710821" lon="1.754400">
        <ele>1832.9</ele>
        <time>2013-03-21T15:36:08Z</time>
      </trkpt>
      <trkpt lat="42.710931" lon="1.754381">
        <ele>1831.0</ele>
        <time>2013-03-21T15:36:23Z</time>
      </trkpt>
      <trkpt lat="42.711081" lon="1.754410">
        <ele>1829.1</ele>
        <time>2013-03-21T15:36:40Z</time>
      </trkpt>
      <trkpt lat="42.711203" lon="1.754413">
        <ele>1828.1</ele>
        <time>2013-03-21T15:36:51Z</time>
      </trkpt>
      <trkpt lat="42.711332" lon="1.754452">
        <ele>1824.2</ele>
        <time>2013-03-21T15:37:06Z</time>
      </trkpt>
      <trkpt lat="42.711460" lon="1.754494">
        <ele>1821.8</ele>
        <time>2013-03-21T15:37:19Z</time>
      </trkpt>
      <trkpt lat="42.711560" lon="1.754469">
        <ele>1817.5</ele>
        <time>2013-03-21T15:37:33Z</time>
      </trkpt>
      <trkpt lat="42.711696" lon="1.754469">
        <ele>1814.2</ele>
        <time>2013-03-21T15:37:47Z</time>
      </trkpt>
      <trkpt lat="42.711802" lon="1.754461">
        <ele>1810.8</ele>
        <time>2013-03-21T15:38:00Z</time>
      </trkpt>
      <trkpt lat="42.711958" lon="1.754446">
        <ele>1811.3</ele>
        <time>2013-03-21T15:38:14Z</time>
      </trkpt>
      <trkpt lat="42.712090" lon="1.754367">
        <ele>1810.3</ele>
        <time>2013-03-21T15:38:29Z</time>
      </trkpt>
      <trkpt lat="42.712269" lon="1.754353">
        <ele>1811.7</ele>
        <time>2013-03-21T15:39:02Z</time>
      </trkpt>
      <trkpt lat="42.712367" lon="1.754257">
        <ele>1807.4</ele>
        <time>2013-03-21T15:39:17Z</time>
      </trkpt>
      <trkpt lat="42.712476" lon="1.754217">
        <ele>1806.9</ele>
        <time>2013-03-21T15:39:28Z</time>
      </trkpt>
      <trkpt lat="42.712574" lon="1.754168">
        <ele>1806.4</ele>
        <time>2013-03-21T15:39:43Z</time>
      </trkpt>
      <trkpt lat="42.712637" lon="1.754086">
        <ele>1806.4</ele>
        <time>2013-03-21T15:40:07Z</time>
      </trkpt>
      <trkpt lat="42.712706" lon="1.754071">
        <ele>1806.4</ele>
        <time>2013-03-21T15:41:14Z</time>
      </trkpt>
      <trkpt lat="42.712793" lon="1.754002">
        <ele>1806.4</ele>
        <time>2013-03-21T15:42:04Z</time>
      </trkpt>
      <trkpt lat="42.712911" lon="1.753931">
        <ele>1810.3</ele>
        <time>2013-03-21T15:42:27Z</time>
      </trkpt>
      <trkpt lat="42.712997" lon="1.753866">
        <ele>1814.2</ele>
        <time>2013-03-21T15:42:50Z</time>
      </trkpt>
      <trkpt lat="42.713027" lon="1.753737">
        <ele>1818.9</ele>
        <time>2013-03-21T15:43:16Z</time>
      </trkpt>
      <trkpt lat="42.713124" lon="1.753650">
        <ele>1819.4</ele>
        <time>2013-03-21T15:43:39Z</time>
      </trkpt>
      <trkpt lat="42.713210" lon="1.753472">
        <ele>1818.5</ele>
        <time>2013-03-21T15:44:19Z</time>
        <name>Roche Riou Caud</name>
      </trkpt>
      <trkpt lat="42.713293" lon="1.753322">
        <ele>1818.0</ele>
        <time>2013-03-21T15:44:52Z</time>
      </trkpt>
      <trkpt lat="42.713390" lon="1.753186">
        <ele>1817.0</ele>
        <time>2013-03-21T15:45:08Z</time>
      </trkpt>
      <trkpt lat="42.713559" lon="1.753073">
        <ele>1816.1</ele>
        <time>2013-03-21T15:45:27Z</time>
      </trkpt>
      <trkpt lat="42.713685" lon="1.752989">
        <ele>1815.1</ele>
        <time>2013-03-21T15:45:44Z</time>
      </trkpt>
      <trkpt lat="42.713788" lon="1.752956">
        <ele>1814.6</ele>
        <time>2013-03-21T15:45:56Z</time>
      </trkpt>
      <trkpt lat="42.713898" lon="1.752942">
        <ele>1814.2</ele>
        <time>2013-03-21T15:46:08Z</time>
      </trkpt>
      <trkpt lat="42.713995" lon="1.752842">
        <ele>1811.3</ele>
        <time>2013-03-21T15:46:22Z</time>
      </trkpt>
      <trkpt lat="42.714101" lon="1.752703">
        <ele>1809.3</ele>
        <time>2013-03-21T15:46:41Z</time>
      </trkpt>
      <trkpt lat="42.714258" lon="1.752677">
        <ele>1808.4</ele>
        <time>2013-03-21T15:46:58Z</time>
      </trkpt>
      <trkpt lat="42.714355" lon="1.752817">
        <ele>1809.3</ele>
        <time>2013-03-21T15:47:13Z</time>
      </trkpt>
      <trkpt lat="42.714418" lon="1.752972">
        <ele>1809.8</ele>
        <time>2013-03-21T15:47:28Z</time>
      </trkpt>
      <trkpt lat="42.714507" lon="1.753037">
        <ele>1809.8</ele>
        <time>2013-03-21T15:47:40Z</time>
      </trkpt>
      <trkpt lat="42.714592" lon="1.753123">
        <ele>1809.8</ele>
        <time>2013-03-21T15:47:51Z</time>
      </trkpt>
      <trkpt lat="42.714680" lon="1.753208">
        <ele>1808.9</ele>
        <time>2013-03-21T15:48:02Z</time>
      </trkpt>
      <trkpt lat="42.714786" lon="1.753246">
        <ele>1807.9</ele>
        <time>2013-03-21T15:48:30Z</time>
      </trkpt>
      <trkpt lat="42.714885" lon="1.753345">
        <ele>1805.5</ele>
        <time>2013-03-21T15:49:52Z</time>
      </trkpt>
      <trkpt lat="42.714964" lon="1.753416">
        <ele>1803.6</ele>
        <time>2013-03-21T15:50:03Z</time>
      </trkpt>
      <trkpt lat="42.715069" lon="1.753460">
        <ele>1803.1</ele>
        <time>2013-03-21T15:50:14Z</time>
      </trkpt>
      <trkpt lat="42.715171" lon="1.753456">
        <ele>1801.7</ele>
        <time>2013-03-21T15:50:25Z</time>
      </trkpt>
      <trkpt lat="42.715275" lon="1.753450">
        <ele>1800.2</ele>
        <time>2013-03-21T15:50:39Z</time>
      </trkpt>
      <trkpt lat="42.715407" lon="1.753397">
        <ele>1799.7</ele>
        <time>2013-03-21T15:50:56Z</time>
      </trkpt>
      <trkpt lat="42.715559" lon="1.753395">
        <ele>1798.3</ele>
        <time>2013-03-21T15:51:16Z</time>
      </trkpt>
      <trkpt lat="42.715677" lon="1.753431">
        <ele>1797.8</ele>
        <time>2013-03-21T15:51:28Z</time>
      </trkpt>
      <trkpt lat="42.715765" lon="1.753467">
        <ele>1796.8</ele>
        <time>2013-03-21T15:51:39Z</time>
      </trkpt>
      <trkpt lat="42.715862" lon="1.753501">
        <ele>1795.9</ele>
        <time>2013-03-21T15:51:51Z</time>
      </trkpt>
      <trkpt lat="42.715985" lon="1.753529">
        <ele>1795.4</ele>
        <time>2013-03-21T15:52:07Z</time>
      </trkpt>
      <trkpt lat="42.716098" lon="1.753634">
        <ele>1794.4</ele>
        <time>2013-03-21T15:53:08Z</time>
      </trkpt>
      <trkpt lat="42.716170" lon="1.753670">
        <ele>1792.5</ele>
        <time>2013-03-21T15:53:26Z</time>
      </trkpt>
      <trkpt lat="42.716276" lon="1.753651">
        <ele>1793.5</ele>
        <time>2013-03-21T15:53:52Z</time>
      </trkpt>
      <trkpt lat="42.716369" lon="1.753671">
        <ele>1791.1</ele>
        <time>2013-03-21T15:54:03Z</time>
      </trkpt>
      <trkpt lat="42.716454" lon="1.753733">
        <ele>1791.1</ele>
        <time>2013-03-21T15:54:14Z</time>
      </trkpt>
      <trkpt lat="42.716531" lon="1.753817">
        <ele>1790.1</ele>
        <time>2013-03-21T15:55:01Z</time>
      </trkpt>
      <trkpt lat="42.716614" lon="1.753880">
        <ele>1789.2</ele>
        <time>2013-03-21T15:55:11Z</time>
      </trkpt>
      <trkpt lat="42.716699" lon="1.753939">
        <ele>1787.7</ele>
        <time>2013-03-21T15:55:22Z</time>
      </trkpt>
      <trkpt lat="42.716782" lon="1.754028">
        <ele>1785.8</ele>
        <time>2013-03-21T15:55:33Z</time>
      </trkpt>
      <trkpt lat="42.716814" lon="1.754150">
        <ele>1783.9</ele>
        <time>2013-03-21T15:55:50Z</time>
      </trkpt>
      <trkpt lat="42.716875" lon="1.754256">
        <ele>1781.0</ele>
        <time>2013-03-21T15:56:00Z</time>
      </trkpt>
      <trkpt lat="42.716924" lon="1.754366">
        <ele>1779.1</ele>
        <time>2013-03-21T15:56:09Z</time>
      </trkpt>
      <trkpt lat="42.716874" lon="1.754551">
        <ele>1774.7</ele>
        <time>2013-03-21T15:56:41Z</time>
      </trkpt>
      <trkpt lat="42.716892" lon="1.754624">
        <ele>1771.8</ele>
        <time>2013-03-21T15:56:52Z</time>
      </trkpt>
      <trkpt lat="42.716892" lon="1.754755">
        <ele>1768.0</ele>
        <time>2013-03-21T15:57:03Z</time>
      </trkpt>
      <trkpt lat="42.716941" lon="1.754847">
        <ele>1766.1</ele>
        <time>2013-03-21T15:57:15Z</time>
      </trkpt>
      <trkpt lat="42.717021" lon="1.754895">
        <ele>1764.6</ele>
        <time>2013-03-21T15:57:26Z</time>
      </trkpt>
      <trkpt lat="42.717115" lon="1.754954">
        <ele>1763.7</ele>
        <time>2013-03-21T15:57:38Z</time>
      </trkpt>
      <trkpt lat="42.717219" lon="1.754980">
        <ele>1762.7</ele>
        <time>2013-03-21T15:57:52Z</time>
      </trkpt>
      <trkpt lat="42.717321" lon="1.755019">
        <ele>1761.3</ele>
        <time>2013-03-21T15:58:55Z</time>
      </trkpt>
      <trkpt lat="42.717415" lon="1.755063">
        <ele>1759.3</ele>
        <time>2013-03-21T15:59:04Z</time>
      </trkpt>
      <trkpt lat="42.717502" lon="1.755096">
        <ele>1757.4</ele>
        <time>2013-03-21T15:59:25Z</time>
      </trkpt>
      <trkpt lat="42.717586" lon="1.755179">
        <ele>1756.0</ele>
        <time>2013-03-21T15:59:36Z</time>
      </trkpt>
      <trkpt lat="42.717664" lon="1.755258">
        <ele>1754.1</ele>
        <time>2013-03-21T15:59:46Z</time>
      </trkpt>
      <trkpt lat="42.717734" lon="1.755335">
        <ele>1751.7</ele>
        <time>2013-03-21T15:59:57Z</time>
      </trkpt>
      <trkpt lat="42.717812" lon="1.755418">
        <ele>1748.8</ele>
        <time>2013-03-21T16:00:07Z</time>
      </trkpt>
      <trkpt lat="42.717889" lon="1.755507">
        <ele>1746.4</ele>
        <time>2013-03-21T16:00:17Z</time>
      </trkpt>
      <trkpt lat="42.717965" lon="1.755578">
        <ele>1743.5</ele>
        <time>2013-03-21T16:01:04Z</time>
      </trkpt>
      <trkpt lat="42.718029" lon="1.755680">
        <ele>1741.6</ele>
        <time>2013-03-21T16:01:13Z</time>
      </trkpt>
      <trkpt lat="42.718095" lon="1.755788">
        <ele>1736.8</ele>
        <time>2013-03-21T16:01:24Z</time>
      </trkpt>
      <trkpt lat="42.718136" lon="1.755905">
        <ele>1733.9</ele>
        <time>2013-03-21T16:01:35Z</time>
      </trkpt>
      <trkpt lat="42.718157" lon="1.756038">
        <ele>1731.0</ele>
        <time>2013-03-21T16:01:56Z</time>
      </trkpt>
      <trkpt lat="42.718185" lon="1.756151">
        <ele>1727.2</ele>
        <time>2013-03-21T16:02:09Z</time>
      </trkpt>
      <trkpt lat="42.718241" lon="1.756249">
        <ele>1725.2</ele>
        <time>2013-03-21T16:02:20Z</time>
      </trkpt>
      <trkpt lat="42.718253" lon="1.756364">
        <ele>1722.3</ele>
        <time>2013-03-21T16:02:32Z</time>
      </trkpt>
      <trkpt lat="42.718304" lon="1.756496">
        <ele>1719.9</ele>
        <time>2013-03-21T16:02:45Z</time>
      </trkpt>
      <trkpt lat="42.718343" lon="1.756622">
        <ele>1716.1</ele>
        <time>2013-03-21T16:02:57Z</time>
      </trkpt>
      <trkpt lat="42.718356" lon="1.756750">
        <ele>1712.2</ele>
        <time>2013-03-21T16:03:10Z</time>
      </trkpt>
      <trkpt lat="42.718347" lon="1.756757">
        <ele>1713.7</ele>
        <time>2013-03-21T16:03:59Z</time>
      </trkpt>
      <trkpt lat="42.718402" lon="1.756852">
        <ele>1711.8</ele>
        <time>2013-03-21T16:04:10Z</time>
      </trkpt>
      <trkpt lat="42.718434" lon="1.756957">
        <ele>1710.8</ele>
        <time>2013-03-21T16:04:20Z</time>
      </trkpt>
      <trkpt lat="42.718412" lon="1.757075">
        <ele>1710.8</ele>
        <time>2013-03-21T16:04:32Z</time>
      </trkpt>
      <trkpt lat="42.718432" lon="1.757202">
        <ele>1711.8</ele>
        <time>2013-03-21T16:05:32Z</time>
      </trkpt>
      <trkpt lat="42.718498" lon="1.757237">
        <ele>1711.3</ele>
        <time>2013-03-21T16:05:43Z</time>
      </trkpt>
      <trkpt lat="42.718559" lon="1.757332">
        <ele>1710.3</ele>
        <time>2013-03-21T16:05:53Z</time>
      </trkpt>
      <trkpt lat="42.718631" lon="1.757420">
        <ele>1709.4</ele>
        <time>2013-03-21T16:06:03Z</time>
      </trkpt>
      <trkpt lat="42.718682" lon="1.757509">
        <ele>1708.9</ele>
        <time>2013-03-21T16:06:14Z</time>
      </trkpt>
      <trkpt lat="42.718726" lon="1.757614">
        <ele>1709.8</ele>
        <time>2013-03-21T16:06:26Z</time>
      </trkpt>
      <trkpt lat="42.718808" lon="1.757698">
        <ele>1709.4</ele>
        <time>2013-03-21T16:06:37Z</time>
      </trkpt>
      <trkpt lat="42.718900" lon="1.757770">
        <ele>1708.9</ele>
        <time>2013-03-21T16:06:46Z</time>
      </trkpt>
      <trkpt lat="42.718972" lon="1.757834">
        <ele>1708.4</ele>
        <time>2013-03-21T16:06:55Z</time>
      </trkpt>
      <trkpt lat="42.719012" lon="1.757903">
        <ele>1708.4</ele>
        <time>2013-03-21T16:07:11Z</time>
      </trkpt>
      <trkpt lat="42.719064" lon="1.757959">
        <ele>1707.9</ele>
        <time>2013-03-21T16:07:27Z</time>
      </trkpt>
      <trkpt lat="42.719131" lon="1.758040">
        <ele>1707.9</ele>
        <time>2013-03-21T16:07:37Z</time>
      </trkpt>
      <trkpt lat="42.719205" lon="1.758124">
        <ele>1707.4</ele>
        <time>2013-03-21T16:07:47Z</time>
      </trkpt>
      <trkpt lat="42.719270" lon="1.758225">
        <ele>1707.0</ele>
        <time>2013-03-21T16:07:58Z</time>
      </trkpt>
      <trkpt lat="42.719348" lon="1.758327">
        <ele>1707.0</ele>
        <time>2013-03-21T16:08:08Z</time>
      </trkpt>
      <trkpt lat="42.719407" lon="1.758425">
        <ele>1706.5</ele>
        <time>2013-03-21T16:08:17Z</time>
      </trkpt>
      <trkpt lat="42.719472" lon="1.758496">
        <ele>1705.0</ele>
        <time>2013-03-21T16:08:26Z</time>
      </trkpt>
      <trkpt lat="42.719542" lon="1.758564">
        <ele>1704.6</ele>
        <time>2013-03-21T16:08:35Z</time>
      </trkpt>
      <trkpt lat="42.719634" lon="1.758618">
        <ele>1704.6</ele>
        <time>2013-03-21T16:08:55Z</time>
      </trkpt>
      <trkpt lat="42.719717" lon="1.758685">
        <ele>1703.6</ele>
        <time>2013-03-21T16:09:05Z</time>
      </trkpt>
      <trkpt lat="42.719791" lon="1.758771">
        <ele>1703.6</ele>
        <time>2013-03-21T16:09:15Z</time>
      </trkpt>
      <trkpt lat="42.719860" lon="1.758862">
        <ele>1702.2</ele>
        <time>2013-03-21T16:09:25Z</time>
      </trkpt>
      <trkpt lat="42.719920" lon="1.758957">
        <ele>1702.2</ele>
        <time>2013-03-21T16:09:34Z</time>
      </trkpt>
      <trkpt lat="42.719980" lon="1.759041">
        <ele>1701.2</ele>
        <time>2013-03-21T16:09:43Z</time>
      </trkpt>
      <trkpt lat="42.720050" lon="1.759116">
        <ele>1700.2</ele>
        <time>2013-03-21T16:09:53Z</time>
      </trkpt>
      <trkpt lat="42.720121" lon="1.759204">
        <ele>1700.2</ele>
        <time>2013-03-21T16:10:21Z</time>
      </trkpt>
      <trkpt lat="42.720185" lon="1.759306">
        <ele>1698.8</ele>
        <time>2013-03-21T16:10:30Z</time>
      </trkpt>
      <trkpt lat="42.720238" lon="1.759395">
        <ele>1697.8</ele>
        <time>2013-03-21T16:10:40Z</time>
      </trkpt>
      <trkpt lat="42.720301" lon="1.759439">
        <ele>1696.9</ele>
        <time>2013-03-21T16:11:57Z</time>
      </trkpt>
      <trkpt lat="42.720328" lon="1.759499">
        <ele>1697.3</ele>
        <time>2013-03-21T16:14:06Z</time>
        <name>Cbne du Mouscadou</name>
      </trkpt>
      <trkpt lat="42.720337" lon="1.759608">
        <ele>1696.9</ele>
        <time>2013-03-21T16:15:11Z</time>
      </trkpt>
      <trkpt lat="42.720321" lon="1.759741">
        <ele>1694.9</ele>
        <time>2013-03-21T16:15:20Z</time>
      </trkpt>
      <trkpt lat="42.720399" lon="1.759950">
        <ele>1671.3</ele>
        <time>2013-03-21T16:15:30Z</time>
      </trkpt>
      <trkpt lat="42.720606" lon="1.760195">
        <ele>1663.7</ele>
        <time>2013-03-21T16:15:40Z</time>
      </trkpt>
      <trkpt lat="42.720794" lon="1.760341">
        <ele>1657.7</ele>
        <time>2013-03-21T16:15:50Z</time>
      </trkpt>
      <trkpt lat="42.721102" lon="1.760414">
        <ele>1650.3</ele>
        <time>2013-03-21T16:16:14Z</time>
      </trkpt>
      <trkpt lat="42.721423" lon="1.760305">
        <ele>1645.0</ele>
        <time>2013-03-21T16:17:10Z</time>
      </trkpt>
      <trkpt lat="42.721610" lon="1.760195">
        <ele>1642.8</ele>
        <time>2013-03-21T16:38:59Z</time>
      </trkpt>
      <trkpt lat="42.721798" lon="1.760086">
        <ele>1644.5</ele>
        <time>2013-03-21T16:39:20Z</time>
      </trkpt>
      <trkpt lat="42.722052" lon="1.760122">
        <ele>1645.4</ele>
        <time>2013-03-21T16:39:55Z</time>
      </trkpt>
      <trkpt lat="42.722260" lon="1.760036">
        <ele>1635.3</ele>
        <time>2013-03-21T16:40:22Z</time>
      </trkpt>
      <trkpt lat="42.722391" lon="1.760102">
        <ele>1637.3</ele>
        <time>2013-03-21T16:41:42Z</time>
      </trkpt>
      <trkpt lat="42.722470" lon="1.760186">
        <ele>1635.8</ele>
        <time>2013-03-21T16:41:53Z</time>
      </trkpt>
      <trkpt lat="42.722516" lon="1.760300">
        <ele>1632.9</ele>
        <time>2013-03-21T16:42:20Z</time>
      </trkpt>
      <trkpt lat="42.722582" lon="1.760421">
        <ele>1630.5</ele>
        <time>2013-03-21T16:42:32Z</time>
      </trkpt>
      <trkpt lat="42.722649" lon="1.760611">
        <ele>1626.2</ele>
        <time>2013-03-21T16:42:49Z</time>
      </trkpt>
      <trkpt lat="42.722780" lon="1.760762">
        <ele>1622.8</ele>
        <time>2013-03-21T16:43:05Z</time>
      </trkpt>
      <trkpt lat="42.722952" lon="1.760900">
        <ele>1620.9</ele>
        <time>2013-03-21T16:43:23Z</time>
      </trkpt>
      <trkpt lat="42.723097" lon="1.761034">
        <ele>1617.6</ele>
        <time>2013-03-21T16:43:41Z</time>
      </trkpt>
      <trkpt lat="42.723266" lon="1.761034">
        <ele>1616.1</ele>
        <time>2013-03-21T16:44:01Z</time>
      </trkpt>
      <trkpt lat="42.723411" lon="1.761081">
        <ele>1613.7</ele>
        <time>2013-03-21T16:44:17Z</time>
      </trkpt>
      <trkpt lat="42.723511" lon="1.761162">
        <ele>1611.3</ele>
        <time>2013-03-21T16:44:28Z</time>
      </trkpt>
      <trkpt lat="42.723629" lon="1.761157">
        <ele>1607.5</ele>
        <time>2013-03-21T16:44:42Z</time>
      </trkpt>
      <trkpt lat="42.723775" lon="1.761242">
        <ele>1604.1</ele>
        <time>2013-03-21T16:44:58Z</time>
      </trkpt>
      <trkpt lat="42.723947" lon="1.761204">
        <ele>1605.5</ele>
        <time>2013-03-21T16:45:15Z</time>
      </trkpt>
      <trkpt lat="42.724104" lon="1.761247">
        <ele>1600.2</ele>
        <time>2013-03-21T16:45:29Z</time>
      </trkpt>
      <trkpt lat="42.724229" lon="1.761265">
        <ele>1596.4</ele>
        <time>2013-03-21T16:45:44Z</time>
      </trkpt>
      <trkpt lat="42.724333" lon="1.761321">
        <ele>1592.6</ele>
        <time>2013-03-21T16:45:54Z</time>
      </trkpt>
      <trkpt lat="42.724420" lon="1.761405">
        <ele>1592.1</ele>
        <time>2013-03-21T16:46:05Z</time>
      </trkpt>
      <trkpt lat="42.724488" lon="1.761500">
        <ele>1587.8</ele>
        <time>2013-03-21T16:46:16Z</time>
      </trkpt>
      <trkpt lat="42.724573" lon="1.761585">
        <ele>1586.3</ele>
        <time>2013-03-21T16:46:28Z</time>
      </trkpt>
      <trkpt lat="42.724622" lon="1.761697">
        <ele>1584.9</ele>
        <time>2013-03-21T16:46:37Z</time>
      </trkpt>
      <trkpt lat="42.724661" lon="1.761822">
        <ele>1582.5</ele>
        <time>2013-03-21T16:46:47Z</time>
      </trkpt>
      <trkpt lat="42.724717" lon="1.761936">
        <ele>1581.5</ele>
        <time>2013-03-21T16:47:02Z</time>
      </trkpt>
      <trkpt lat="42.724781" lon="1.762039">
        <ele>1580.5</ele>
        <time>2013-03-21T16:47:11Z</time>
      </trkpt>
      <trkpt lat="42.724841" lon="1.762134">
        <ele>1580.5</ele>
        <time>2013-03-21T16:47:19Z</time>
      </trkpt>
      <trkpt lat="42.724905" lon="1.762233">
        <ele>1580.1</ele>
        <time>2013-03-21T16:47:28Z</time>
      </trkpt>
      <trkpt lat="42.724970" lon="1.762340">
        <ele>1579.6</ele>
        <time>2013-03-21T16:47:36Z</time>
      </trkpt>
      <trkpt lat="42.725028" lon="1.762449">
        <ele>1581.0</ele>
        <time>2013-03-21T16:47:45Z</time>
      </trkpt>
      <trkpt lat="42.725068" lon="1.762570">
        <ele>1579.1</ele>
        <time>2013-03-21T16:47:55Z</time>
      </trkpt>
      <trkpt lat="42.725095" lon="1.762691">
        <ele>1579.1</ele>
        <time>2013-03-21T16:48:05Z</time>
      </trkpt>
      <trkpt lat="42.725118" lon="1.762807">
        <ele>1579.1</ele>
        <time>2013-03-21T16:48:15Z</time>
      </trkpt>
      <trkpt lat="42.725141" lon="1.762929">
        <ele>1579.6</ele>
        <time>2013-03-21T16:48:24Z</time>
      </trkpt>
      <trkpt lat="42.725145" lon="1.763067">
        <ele>1578.6</ele>
        <time>2013-03-21T16:48:34Z</time>
      </trkpt>
      <trkpt lat="42.725140" lon="1.763190">
        <ele>1580.1</ele>
        <time>2013-03-21T16:48:43Z</time>
      </trkpt>
      <trkpt lat="42.725129" lon="1.763318">
        <ele>1579.1</ele>
        <time>2013-03-21T16:48:51Z</time>
      </trkpt>
      <trkpt lat="42.725119" lon="1.763459">
        <ele>1579.6</ele>
        <time>2013-03-21T16:49:00Z</time>
      </trkpt>
      <trkpt lat="42.725119" lon="1.763591">
        <ele>1579.1</ele>
        <time>2013-03-21T16:49:09Z</time>
      </trkpt>
      <trkpt lat="42.725117" lon="1.763724">
        <ele>1578.1</ele>
        <time>2013-03-21T16:49:18Z</time>
      </trkpt>
      <trkpt lat="42.725114" lon="1.763849">
        <ele>1577.7</ele>
        <time>2013-03-21T16:49:27Z</time>
      </trkpt>
      <trkpt lat="42.725139" lon="1.763963">
        <ele>1578.6</ele>
        <time>2013-03-21T16:49:37Z</time>
      </trkpt>
      <trkpt lat="42.725177" lon="1.764089">
        <ele>1578.6</ele>
        <time>2013-03-21T16:49:47Z</time>
      </trkpt>
      <trkpt lat="42.725183" lon="1.764227">
        <ele>1577.2</ele>
        <time>2013-03-21T16:49:56Z</time>
      </trkpt>
      <trkpt lat="42.725196" lon="1.764348">
        <ele>1576.7</ele>
        <time>2013-03-21T16:50:05Z</time>
      </trkpt>
      <trkpt lat="42.725195" lon="1.764475">
        <ele>1575.3</ele>
        <time>2013-03-21T16:50:14Z</time>
      </trkpt>
      <trkpt lat="42.725214" lon="1.764601">
        <ele>1573.3</ele>
        <time>2013-03-21T16:50:40Z</time>
      </trkpt>
      <trkpt lat="42.725251" lon="1.764713">
        <ele>1570.9</ele>
        <time>2013-03-21T16:51:06Z</time>
      </trkpt>
      <trkpt lat="42.725258" lon="1.764840">
        <ele>1568.5</ele>
        <time>2013-03-21T16:51:14Z</time>
      </trkpt>
      <trkpt lat="42.725222" lon="1.764983">
        <ele>1565.6</ele>
        <time>2013-03-21T16:51:23Z</time>
      </trkpt>
      <trkpt lat="42.725163" lon="1.765092">
        <ele>1561.8</ele>
        <time>2013-03-21T16:51:31Z</time>
      </trkpt>
      <trkpt lat="42.725128" lon="1.765215">
        <ele>1558.9</ele>
        <time>2013-03-21T16:51:39Z</time>
      </trkpt>
      <trkpt lat="42.725095" lon="1.765352">
        <ele>1554.6</ele>
        <time>2013-03-21T16:51:47Z</time>
      </trkpt>
      <trkpt lat="42.725058" lon="1.765490">
        <ele>1552.2</ele>
        <time>2013-03-21T16:51:56Z</time>
      </trkpt>
      <trkpt lat="42.725010" lon="1.765612">
        <ele>1550.3</ele>
        <time>2013-03-21T16:52:05Z</time>
      </trkpt>
      <trkpt lat="42.724978" lon="1.765725">
        <ele>1548.3</ele>
        <time>2013-03-21T16:52:13Z</time>
      </trkpt>
      <trkpt lat="42.724943" lon="1.765852">
        <ele>1545.5</ele>
        <time>2013-03-21T16:52:22Z</time>
      </trkpt>
      <trkpt lat="42.724913" lon="1.765978">
        <ele>1544.5</ele>
        <time>2013-03-21T16:52:31Z</time>
      </trkpt>
      <trkpt lat="42.724876" lon="1.766099">
        <ele>1542.1</ele>
        <time>2013-03-21T16:52:41Z</time>
      </trkpt>
      <trkpt lat="42.724893" lon="1.766102">
        <ele>1541.1</ele>
        <time>2013-03-21T16:54:02Z</time>
      </trkpt>
      <trkpt lat="42.724858" lon="1.766141">
        <ele>1541.6</ele>
        <time>2013-03-21T16:55:41Z</time>
      </trkpt>
      <trkpt lat="42.724870" lon="1.766250">
        <ele>1541.1</ele>
        <time>2013-03-21T16:56:53Z</time>
      </trkpt>
      <trkpt lat="42.724836" lon="1.766365">
        <ele>1539.7</ele>
        <time>2013-03-21T16:57:03Z</time>
      </trkpt>
      <trkpt lat="42.724794" lon="1.766489">
        <ele>1541.1</ele>
        <time>2013-03-21T16:57:13Z</time>
      </trkpt>
      <trkpt lat="42.724752" lon="1.766594">
        <ele>1537.3</ele>
        <time>2013-03-21T16:57:23Z</time>
      </trkpt>
      <trkpt lat="42.724708" lon="1.766695">
        <ele>1535.8</ele>
        <time>2013-03-21T16:57:34Z</time>
      </trkpt>
      <trkpt lat="42.724679" lon="1.766817">
        <ele>1533.4</ele>
        <time>2013-03-21T16:57:47Z</time>
        <name>Cbne de Tessoulat</name> 
      </trkpt>
      <trkpt lat="42.724671" lon="1.766900">
        <ele>1532.5</ele>
        <time>2013-03-21T16:59:34Z</time>
      </trkpt>
      <trkpt lat="42.724645" lon="1.767008">
        <ele>1530.6</ele>
        <time>2013-03-21T16:59:53Z</time>
      </trkpt>
      <trkpt lat="42.724627" lon="1.767105">
        <ele>1529.1</ele>
        <time>2013-03-21T17:00:19Z</time>
      </trkpt>
      <trkpt lat="42.724619" lon="1.767231">
        <ele>1526.7</ele>
        <time>2013-03-21T17:00:29Z</time>
      </trkpt>
      <trkpt lat="42.724604" lon="1.767345">
        <ele>1527.7</ele>
        <time>2013-03-21T17:00:38Z</time>
      </trkpt>
      <trkpt lat="42.724656" lon="1.767449">
        <ele>1524.8</ele>
        <time>2013-03-21T17:00:47Z</time>
      </trkpt>
      <trkpt lat="42.724719" lon="1.767531">
        <ele>1524.3</ele>
        <time>2013-03-21T17:01:04Z</time>
      </trkpt>
      <trkpt lat="42.724790" lon="1.767645">
        <ele>1522.4</ele>
        <time>2013-03-21T17:01:14Z</time>
      </trkpt>
      <trkpt lat="42.724849" lon="1.767755">
        <ele>1521.4</ele>
        <time>2013-03-21T17:01:22Z</time>
      </trkpt>
      <trkpt lat="42.724916" lon="1.767866">
        <ele>1519.5</ele>
        <time>2013-03-21T17:01:31Z</time>
      </trkpt>
      <trkpt lat="42.724975" lon="1.767977">
        <ele>1518.1</ele>
        <time>2013-03-21T17:01:40Z</time>
      </trkpt>
      <trkpt lat="42.725019" lon="1.768096">
        <ele>1517.1</ele>
        <time>2013-03-21T17:01:49Z</time>
      </trkpt>
      <trkpt lat="42.725067" lon="1.768221">
        <ele>1515.2</ele>
        <time>2013-03-21T17:01:59Z</time>
      </trkpt>
      <trkpt lat="42.725150" lon="1.768278">
        <ele>1511.8</ele>
        <time>2013-03-21T17:02:10Z</time>
      </trkpt>
      <trkpt lat="42.725237" lon="1.768441">
        <ele>1508.0</ele>
        <time>2013-03-21T17:02:25Z</time>
      </trkpt>
      <trkpt lat="42.725307" lon="1.768628">
        <ele>1504.1</ele>
        <time>2013-03-21T17:02:38Z</time>
      </trkpt>
      <trkpt lat="42.725393" lon="1.768802">
        <ele>1498.8</ele>
        <time>2013-03-21T17:02:53Z</time>
      </trkpt>
      <trkpt lat="42.725435" lon="1.768937">
        <ele>1495.5</ele>
        <time>2013-03-21T17:03:04Z</time>
      </trkpt>
      <trkpt lat="42.725487" lon="1.769089">
        <ele>1491.6</ele>
        <time>2013-03-21T17:03:16Z</time>
      </trkpt>
      <trkpt lat="42.725616" lon="1.769381">
        <ele>1484.9</ele>
        <time>2013-03-21T17:03:35Z</time>
      </trkpt>
      <trkpt lat="42.725765" lon="1.769584">
        <ele>1476.2</ele>
        <time>2013-03-21T17:03:57Z</time>
      </trkpt>
      <trkpt lat="42.725929" lon="1.769822">
        <ele>1467.1</ele>
        <time>2013-03-21T17:04:20Z</time>
      </trkpt>
      <trkpt lat="42.726028" lon="1.770048">
        <ele>1460.9</ele>
        <time>2013-03-21T17:04:41Z</time>
      </trkpt>
      <trkpt lat="42.726095" lon="1.770322">
        <ele>1454.1</ele>
        <time>2013-03-21T17:05:01Z</time>
      </trkpt>
      <trkpt lat="42.726175" lon="1.770541">
        <ele>1448.8</ele>
        <time>2013-03-21T17:05:18Z</time>
      </trkpt>
      <trkpt lat="42.726265" lon="1.770738">
        <ele>1441.6</ele>
        <time>2013-03-21T17:05:38Z</time>
      </trkpt>
      <trkpt lat="42.726311" lon="1.770956">
        <ele>1436.3</ele>
        <time>2013-03-21T17:05:55Z</time>
      </trkpt>
      <trkpt lat="42.726390" lon="1.771204">
        <ele>1430.6</ele>
        <time>2013-03-21T17:06:13Z</time>
      </trkpt>
      <trkpt lat="42.726480" lon="1.771426">
        <ele>1425.8</ele>
        <time>2013-03-21T17:06:30Z</time>
      </trkpt>
      <trkpt lat="42.726598" lon="1.771689">
        <ele>1421.4</ele>
        <time>2013-03-21T17:06:49Z</time>
      </trkpt>
      <trkpt lat="42.726821" lon="1.771881">
        <ele>1413.8</ele>
        <time>2013-03-21T17:07:13Z</time>
      </trkpt>
      <trkpt lat="42.726933" lon="1.772094">
        <ele>1408.9</ele>
        <time>2013-03-21T17:07:29Z</time>
      </trkpt>
      <trkpt lat="42.727020" lon="1.772312">
        <ele>1404.6</ele>
        <time>2013-03-21T17:07:44Z</time>
      </trkpt>
      <trkpt lat="42.727076" lon="1.772525">
        <ele>1399.8</ele>
        <time>2013-03-21T17:08:00Z</time>
      </trkpt>
      <trkpt lat="42.727156" lon="1.772773">
        <ele>1396.0</ele>
        <time>2013-03-21T17:08:19Z</time>
      </trkpt>
      <trkpt lat="42.727258" lon="1.773036">
        <ele>1390.7</ele>
        <time>2013-03-21T17:08:40Z</time>
      </trkpt>
      <trkpt lat="42.727421" lon="1.773365">
        <ele>1386.4</ele>
        <time>2013-03-21T17:09:02Z</time>
      </trkpt>
      <trkpt lat="42.727555" lon="1.773602">
        <ele>1382.5</ele>
        <time>2013-03-21T17:09:18Z</time>
      </trkpt>
      <trkpt lat="42.727685" lon="1.773798">
        <ele>1378.7</ele>
        <time>2013-03-21T17:09:36Z</time>
      </trkpt>
      <trkpt lat="42.727807" lon="1.773915">
        <ele>1375.3</ele>
        <time>2013-03-21T17:09:49Z</time>
      </trkpt>
      <trkpt lat="42.727963" lon="1.774035">
        <ele>1371.5</ele>
        <time>2013-03-21T17:10:06Z</time>
      </trkpt>
      <trkpt lat="42.728132" lon="1.774110">
        <ele>1368.1</ele>
        <time>2013-03-21T17:10:22Z</time>
      </trkpt>
      <trkpt lat="42.728295" lon="1.774166">
        <ele>1365.7</ele>
        <time>2013-03-21T17:10:35Z</time>
      </trkpt>
      <trkpt lat="42.728489" lon="1.774274">
        <ele>1360.9</ele>
        <time>2013-03-21T17:10:54Z</time>
      </trkpt>
      <trkpt lat="42.728684" lon="1.774376">
        <ele>1356.6</ele>
        <time>2013-03-21T17:11:16Z</time>
      </trkpt>
      <trkpt lat="42.728853" lon="1.774538">
        <ele>1354.2</ele>
        <time>2013-03-21T17:11:34Z</time>
      </trkpt>
      <trkpt lat="42.729063" lon="1.774727">
        <ele>1348.9</ele>
        <time>2013-03-21T17:11:56Z</time>
      </trkpt>
      <trkpt lat="42.729160" lon="1.774896">
        <ele>1343.6</ele>
        <time>2013-03-21T17:12:13Z</time>
      </trkpt>
      <trkpt lat="42.729281" lon="1.775011">
        <ele>1337.3</ele>
        <time>2013-03-21T17:12:31Z</time>
      </trkpt>
      <trkpt lat="42.729456" lon="1.775191">
        <ele>1332.0</ele>
        <time>2013-03-21T17:12:51Z</time>
      </trkpt>
      <trkpt lat="42.729638" lon="1.775380">
        <ele>1328.2</ele>
        <time>2013-03-21T17:13:08Z</time>
      </trkpt>
      <trkpt lat="42.729705" lon="1.775540">
        <ele>1325.3</ele>
        <time>2013-03-21T17:13:22Z</time>
      </trkpt>
      <trkpt lat="42.729941" lon="1.775827">
        <ele>1319.6</ele>
        <time>2013-03-21T17:13:42Z</time>
      </trkpt>
      <trkpt lat="42.730088" lon="1.776068">
        <ele>1315.7</ele>
        <time>2013-03-21T17:13:59Z</time>
      </trkpt>
      <trkpt lat="42.730175" lon="1.776234">
        <ele>1311.9</ele>
        <time>2013-03-21T17:14:13Z</time>
      </trkpt>
      <trkpt lat="42.730321" lon="1.776392">
        <ele>1303.2</ele>
        <time>2013-03-21T17:14:36Z</time>
      </trkpt>
      <trkpt lat="42.730492" lon="1.776557">
        <ele>1297.9</ele>
        <time>2013-03-21T17:14:54Z</time>
      </trkpt>
      <trkpt lat="42.730667" lon="1.776724">
        <ele>1292.2</ele>
        <time>2013-03-21T17:15:13Z</time>
      </trkpt>
      <trkpt lat="42.730805" lon="1.776831">
        <ele>1288.3</ele>
        <time>2013-03-21T17:15:30Z</time>
      </trkpt>
      <trkpt lat="42.730930" lon="1.777063">
        <ele>1283.5</ele>
        <time>2013-03-21T17:15:47Z</time>
      </trkpt>
      <trkpt lat="42.730941" lon="1.777241">
        <ele>1281.1</ele>
        <time>2013-03-21T17:15:59Z</time>
      </trkpt>
      <trkpt lat="42.731010" lon="1.777283">
        <ele>1279.2</ele>
        <time>2013-03-21T17:16:25Z</time>
      </trkpt>
      <trkpt lat="42.731146" lon="1.777158">
        <ele>1280.1</ele>
        <time>2013-03-21T17:16:46Z</time>
        <name>Cbne de Bisort</name>
      </trkpt>
      <trkpt lat="42.731302" lon="1.777070">
        <ele>1282.1</ele>
        <time>2013-03-21T17:17:59Z</time>
      </trkpt>
      <trkpt lat="42.731330" lon="1.777074">
        <ele>1282.5</ele>
        <time>2013-03-21T17:18:34Z</time>
      </trkpt>
      <trkpt lat="42.731395" lon="1.777021">
        <ele>1281.1</ele>
        <time>2013-03-21T17:19:35Z</time>
      </trkpt>
      <trkpt lat="42.731575" lon="1.777067">
        <ele>1280.1</ele>
        <time>2013-03-21T17:20:06Z</time>
      </trkpt>
      <trkpt lat="42.731727" lon="1.777004">
        <ele>1284.5</ele>
        <time>2013-03-21T17:20:30Z</time>
      </trkpt>
      <trkpt lat="42.731922" lon="1.777155">
        <ele>1280.6</ele>
        <time>2013-03-21T17:21:08Z</time>
      </trkpt>
      <trkpt lat="42.732180" lon="1.777283">
        <ele>1278.7</ele>
        <time>2013-03-21T17:21:34Z</time>
      </trkpt>
      <trkpt lat="42.732480" lon="1.777328">
        <ele>1271.5</ele>
        <time>2013-03-21T17:21:59Z</time>
      </trkpt>
      <trkpt lat="42.732748" lon="1.777563">
        <ele>1265.2</ele>
        <time>2013-03-21T17:22:29Z</time>
      </trkpt>
      <trkpt lat="42.732807" lon="1.777677">
        <ele>1263.3</ele>
        <time>2013-03-21T17:26:07Z</time>
      </trkpt>
      <trkpt lat="42.732977" lon="1.777828">
        <ele>1259.5</ele>
        <time>2013-03-21T17:27:27Z</time>
      </trkpt>
      <trkpt lat="42.733242" lon="1.777992">
        <ele>1251.3</ele>
        <time>2013-03-21T17:27:54Z</time>
      </trkpt>
      <trkpt lat="42.733425" lon="1.778032">
        <ele>1246.5</ele>
        <time>2013-03-21T17:28:11Z</time>
      </trkpt>
      <trkpt lat="42.733556" lon="1.777970">
        <ele>1243.1</ele>
        <time>2013-03-21T17:28:23Z</time>
      </trkpt>
      <trkpt lat="42.733695" lon="1.777867">
        <ele>1239.8</ele>
        <time>2013-03-21T17:28:57Z</time>
      </trkpt>
      <trkpt lat="42.733815" lon="1.777807">
        <ele>1234.5</ele>
        <time>2013-03-21T17:29:11Z</time>
      </trkpt>
      <trkpt lat="42.734013" lon="1.777677">
        <ele>1224.9</ele>
        <time>2013-03-21T17:29:43Z</time>
      </trkpt>
      <trkpt lat="42.734118" lon="1.777582">
        <ele>1218.1</ele>
        <time>2013-03-21T17:30:11Z</time>
      </trkpt>
      <trkpt lat="42.734186" lon="1.777396">
        <ele>1212.8</ele>
        <time>2013-03-21T17:30:34Z</time>
      </trkpt>
      <trkpt lat="42.734288" lon="1.777120">
        <ele>1207.6</ele>
        <time>2013-03-21T17:31:28Z</time>
      </trkpt>
      <trkpt lat="42.734485" lon="1.776869">
        <ele>1205.2</ele>
        <time>2013-03-21T17:31:56Z</time>
      </trkpt>
      <trkpt lat="42.734664" lon="1.776645">
        <ele>1203.2</ele>
        <time>2013-03-21T17:32:30Z</time>
      </trkpt>
      <trkpt lat="42.734765" lon="1.776590">
        <ele>1200.8</ele>
        <time>2013-03-21T17:32:50Z</time>
      </trkpt>
      <trkpt lat="42.734938" lon="1.776449">
        <ele>1195.1</ele>
        <time>2013-03-21T17:33:16Z</time>
      </trkpt>
      <trkpt lat="42.735135" lon="1.776260">
        <ele>1187.8</ele>
        <time>2013-03-21T17:33:40Z</time>
      </trkpt>
      <trkpt lat="42.735373" lon="1.776005">
        <ele>1181.1</ele>
        <time>2013-03-21T17:34:05Z</time>
      </trkpt>
      <trkpt lat="42.735561" lon="1.775796">
        <ele>1172.9</ele>
        <time>2013-03-21T17:34:29Z</time>
      </trkpt>
      <trkpt lat="42.735631" lon="1.775951">
        <ele>1167.2</ele>
        <time>2013-03-21T17:34:47Z</time>
      </trkpt>
      <trkpt lat="42.735685" lon="1.776103">
        <ele>1162.8</ele>
        <time>2013-03-21T17:34:58Z</time>
      </trkpt>
      <trkpt lat="42.735705" lon="1.776256">
        <ele>1158.5</ele>
        <time>2013-03-21T17:35:11Z</time>
      </trkpt>
      <trkpt lat="42.735692" lon="1.776419">
        <ele>1154.2</ele>
        <time>2013-03-21T17:35:23Z</time>
      </trkpt>
      <trkpt lat="42.735677" lon="1.776566">
        <ele>1150.8</ele>
        <time>2013-03-21T17:35:32Z</time>
      </trkpt>
      <trkpt lat="42.735652" lon="1.776743">
        <ele>1147.5</ele>
        <time>2013-03-21T17:35:45Z</time>
      </trkpt>
      <trkpt lat="42.735615" lon="1.776939">
        <ele>1143.6</ele>
        <time>2013-03-21T17:35:59Z</time>
      </trkpt>
      <trkpt lat="42.735677" lon="1.776976">
        <ele>1139.3</ele>
        <time>2013-03-21T17:36:15Z</time>
      </trkpt>
      <trkpt lat="42.735748" lon="1.776833">
        <ele>1133.1</ele>
        <time>2013-03-21T17:36:35Z</time>
      </trkpt>
      <trkpt lat="42.736013" lon="1.776666">
        <ele>1121.0</ele>
        <time>2013-03-21T17:37:21Z</time>
      </trkpt>
      <trkpt lat="42.736114" lon="1.776604">
        <ele>1115.8</ele>
        <time>2013-03-21T17:37:49Z</time>
      </trkpt>
      <trkpt lat="42.736251" lon="1.776589">
        <ele>1107.6</ele>
        <time>2013-03-21T17:38:15Z</time>
      </trkpt>
      <trkpt lat="42.736270" lon="1.776730">
        <ele>1104.2</ele>
        <time>2013-03-21T17:38:28Z</time>
      </trkpt>
      <trkpt lat="42.736282" lon="1.776896">
        <ele>1098.9</ele>
        <time>2013-03-21T17:38:43Z</time>
      </trkpt>
      <trkpt lat="42.736325" lon="1.777058">
        <ele>1095.6</ele>
        <time>2013-03-21T17:38:54Z</time>
      </trkpt>
      <trkpt lat="42.736286" lon="1.777265">
        <ele>1092.2</ele>
        <time>2013-03-21T17:39:06Z</time>
      </trkpt>
      <trkpt lat="42.736305" lon="1.777416">
        <ele>1089.8</ele>
        <time>2013-03-21T17:39:18Z</time>
      </trkpt>
      <trkpt lat="42.736248" lon="1.777582">
        <ele>1087.4</ele>
        <time>2013-03-21T17:39:30Z</time>
      </trkpt>
      <trkpt lat="42.736371" lon="1.777434">
        <ele>1081.1</ele>
        <time>2013-03-21T17:39:50Z</time>
      </trkpt>
      <trkpt lat="42.736428" lon="1.777563">
        <ele>1077.3</ele>
        <time>2013-03-21T17:40:05Z</time>
      </trkpt>
      <trkpt lat="42.736501" lon="1.777757">
        <ele>1072.5</ele>
        <time>2013-03-21T17:40:49Z</time>
      </trkpt>
      <trkpt lat="42.736483" lon="1.777734">
        <ele>1070.1</ele>
        <time>2013-03-21T17:41:48Z</time>
      </trkpt>
      <trkpt lat="42.736492" lon="1.777900">
        <ele>1064.8</ele>
        <time>2013-03-21T17:42:04Z</time>
      </trkpt>
      <trkpt lat="42.736579" lon="1.777902">
        <ele>1059.0</ele>
        <time>2013-03-21T17:42:21Z</time>
      </trkpt>
      <trkpt lat="42.736605" lon="1.778071">
        <ele>1053.7</ele>
        <time>2013-03-21T17:42:35Z</time>
      </trkpt>
      <trkpt lat="42.736615" lon="1.778306">
        <ele>1047.0</ele>
        <time>2013-03-21T17:42:54Z</time>
      </trkpt>
      <trkpt lat="42.736622" lon="1.778454">
        <ele>1041.7</ele>
        <time>2013-03-21T17:43:08Z</time>
      </trkpt>
      <trkpt lat="42.736488" lon="1.778609">
        <ele>1039.3</ele>
        <time>2013-03-21T17:43:21Z</time>
      </trkpt>
      <trkpt lat="42.736424" lon="1.778762">
        <ele>1037.4</ele>
        <time>2013-03-21T17:43:30Z</time>
      </trkpt>
      <trkpt lat="42.736315" lon="1.778797">
        <ele>1036.0</ele>
        <time>2013-03-21T17:43:39Z</time>
      </trkpt>
      <trkpt lat="42.736200" lon="1.778811">
        <ele>1035.0</ele>
        <time>2013-03-21T17:43:51Z</time>
      </trkpt>
      <trkpt lat="42.736195" lon="1.778914">
        <ele>1029.2</ele>
        <time>2013-03-21T17:44:19Z</time>
      </trkpt>
      <trkpt lat="42.736222" lon="1.779072">
        <ele>1026.3</ele>
        <time>2013-03-21T17:44:32Z</time>
      </trkpt>
      <trkpt lat="42.736188" lon="1.779220">
        <ele>1024.9</ele>
        <time>2013-03-21T17:44:43Z</time>
      </trkpt>
      <trkpt lat="42.736150" lon="1.779372">
        <ele>1023.0</ele>
        <time>2013-03-21T17:44:52Z</time>
      </trkpt>
      <trkpt lat="42.736098" lon="1.779582">
        <ele>1019.6</ele>
        <time>2013-03-21T17:45:03Z</time>
      </trkpt>
      <trkpt lat="42.736082" lon="1.779837">
        <ele>1013.8</ele>
        <time>2013-03-21T17:45:21Z</time>
      </trkpt>
      <trkpt lat="42.736156" lon="1.779942">
        <ele>1008.1</ele>
        <time>2013-03-21T17:45:38Z</time>
      </trkpt>
      <trkpt lat="42.736215" lon="1.780002">
        <ele>1001.8</ele>
        <time>2013-03-21T17:45:58Z</time>
      </trkpt>
      <trkpt lat="42.736209" lon="1.780146">
        <ele>999.4</ele>
        <time>2013-03-21T17:46:08Z</time>
      </trkpt>
      <trkpt lat="42.736233" lon="1.780287">
        <ele>991.7</ele>
        <time>2013-03-21T17:46:28Z</time>
      </trkpt>
      <trkpt lat="42.736244" lon="1.780446">
        <ele>985.5</ele>
        <time>2013-03-21T17:46:46Z</time>
      </trkpt>
      <trkpt lat="42.736164" lon="1.780601">
        <ele>981.2</ele>
        <time>2013-03-21T17:46:59Z</time>
      </trkpt>
      <trkpt lat="42.736109" lon="1.780763">
        <ele>980.2</ele>
        <time>2013-03-21T17:47:10Z</time>
      </trkpt>
      <trkpt lat="42.736067" lon="1.780939">
        <ele>975.9</ele>
        <time>2013-03-21T17:47:24Z</time>
      </trkpt>
      <trkpt lat="42.736051" lon="1.781128">
        <ele>972.5</ele>
        <time>2013-03-21T17:47:34Z</time>
      </trkpt>
      <trkpt lat="42.736009" lon="1.781284">
        <ele>969.6</ele>
        <time>2013-03-21T17:47:46Z</time>
      </trkpt>
      <trkpt lat="42.735996" lon="1.781421">
        <ele>967.2</ele>
        <time>2013-03-21T17:47:54Z</time>
      </trkpt>
      <trkpt lat="42.735959" lon="1.781564">
        <ele>964.8</ele>
        <time>2013-03-21T17:48:08Z</time>
      </trkpt>
      <trkpt lat="42.735971" lon="1.781686">
        <ele>961.0</ele>
        <time>2013-03-21T17:48:21Z</time>
      </trkpt>
      <trkpt lat="42.736024" lon="1.781693">
        <ele>955.2</ele>
        <time>2013-03-21T17:48:43Z</time>
      </trkpt>
      <trkpt lat="42.736068" lon="1.781830">
        <ele>949.9</ele>
        <time>2013-03-21T17:49:05Z</time>
      </trkpt>
      <trkpt lat="42.736143" lon="1.781689">
        <ele>943.7</ele>
        <time>2013-03-21T17:49:24Z</time>
      </trkpt>
      <trkpt lat="42.736222" lon="1.781813">
        <ele>939.3</ele>
        <time>2013-03-21T17:49:35Z</time>
      </trkpt>
      <trkpt lat="42.736296" lon="1.781946">
        <ele>935.0</ele>
        <time>2013-03-21T17:49:49Z</time>
      </trkpt>
      <trkpt lat="42.736323" lon="1.781831">
        <ele>929.2</ele>
        <time>2013-03-21T17:50:07Z</time>
      </trkpt>
      <trkpt lat="42.736435" lon="1.781858">
        <ele>923.0</ele>
        <time>2013-03-21T17:50:28Z</time>
      </trkpt>
      <trkpt lat="42.736462" lon="1.782023">
        <ele>918.2</ele>
        <time>2013-03-21T17:50:40Z</time>
      </trkpt>
      <trkpt lat="42.736495" lon="1.782095">
        <ele>911.5</ele>
        <time>2013-03-21T17:51:00Z</time>
      </trkpt>
      <trkpt lat="42.736552" lon="1.782178">
        <ele>906.2</ele>
        <time>2013-03-21T17:51:22Z</time>
      </trkpt>
      <trkpt lat="42.736650" lon="1.782244">
        <ele>897.5</ele>
        <time>2013-03-21T17:51:44Z</time>
      </trkpt>
      <trkpt lat="42.736644" lon="1.782374">
        <ele>891.3</ele>
        <time>2013-03-21T17:52:03Z</time>
      </trkpt>
      <trkpt lat="42.736785" lon="1.782441">
        <ele>882.2</ele>
        <time>2013-03-21T17:52:30Z</time>
      </trkpt>
      <trkpt lat="42.736797" lon="1.782691">
        <ele>873.5</ele>
        <time>2013-03-21T17:53:03Z</time>
      </trkpt>
      <trkpt lat="42.736857" lon="1.782803">
        <ele>866.8</ele>
        <time>2013-03-21T17:53:25Z</time>
      </trkpt>
      <trkpt lat="42.736946" lon="1.782847">
        <ele>859.1</ele>
        <time>2013-03-21T17:53:45Z</time>
      </trkpt>
      <trkpt lat="42.736938" lon="1.783000">
        <ele>853.8</ele>
        <time>2013-03-21T17:54:01Z</time>
      </trkpt>
      <trkpt lat="42.737015" lon="1.783119">
        <ele>849.0</ele>
        <time>2013-03-21T17:54:16Z</time>
      </trkpt>
      <trkpt lat="42.737070" lon="1.783190">
        <ele>845.1</ele>
        <time>2013-03-21T17:54:30Z</time>
      </trkpt>
      <trkpt lat="42.737165" lon="1.783277">
        <ele>839.4</ele>
        <time>2013-03-21T17:54:47Z</time>
      </trkpt>
      <trkpt lat="42.737207" lon="1.783410">
        <ele>834.6</ele>
        <time>2013-03-21T17:54:59Z</time>
      </trkpt>
      <trkpt lat="42.737354" lon="1.783497">
        <ele>829.3</ele>
        <time>2013-03-21T17:55:17Z</time>
      </trkpt>
      <trkpt lat="42.737454" lon="1.783688">
        <ele>825.4</ele>
        <time>2013-03-21T17:55:31Z</time>
      </trkpt>
      <trkpt lat="42.737480" lon="1.783939">
        <ele>820.6</ele>
        <time>2013-03-21T17:55:58Z</time>
      </trkpt>
      <trkpt lat="42.737429" lon="1.784166">
        <ele>813.9</ele>
        <time>2013-03-21T17:56:23Z</time>
      </trkpt>
      <trkpt lat="42.737324" lon="1.784391">
        <ele>810.0</ele>
        <time>2013-03-21T17:56:49Z</time>
      </trkpt>
      <trkpt lat="42.737275" lon="1.784614">
        <ele>802.4</ele>
        <time>2013-03-21T17:57:10Z</time>
      </trkpt>
      <trkpt lat="42.737282" lon="1.784756">
        <ele>797.5</ele>
        <time>2013-03-21T17:57:23Z</time>
      </trkpt>
      <trkpt lat="42.737342" lon="1.784780">
        <ele>795.6</ele>
        <time>2013-03-21T17:57:47Z</time>
      </trkpt>
      <trkpt lat="42.737388" lon="1.784868">
        <ele>790.8</ele>
        <time>2013-03-21T17:58:30Z</time>
      </trkpt>
      <trkpt lat="42.737331" lon="1.785042">
        <ele>787.0</ele>
        <time>2013-03-21T17:58:50Z</time>
      </trkpt>
      <trkpt lat="42.737251" lon="1.785226">
        <ele>783.6</ele>
        <time>2013-03-21T17:59:04Z</time>
      </trkpt>
      <trkpt lat="42.737183" lon="1.785377">
        <ele>778.8</ele>
        <time>2013-03-21T17:59:17Z</time>
      </trkpt>
      <trkpt lat="42.737100" lon="1.785561">
        <ele>776.4</ele>
        <time>2013-03-21T17:59:28Z</time>
      </trkpt>
      <trkpt lat="42.736993" lon="1.785733">
        <ele>772.6</ele>
        <time>2013-03-21T17:59:40Z</time>
      </trkpt>
      <trkpt lat="42.736894" lon="1.785926">
        <ele>769.2</ele>
        <time>2013-03-21T17:59:53Z</time>
      </trkpt>
      <trkpt lat="42.736796" lon="1.786065">
        <ele>766.3</ele>
        <time>2013-03-21T18:00:00Z</time>
      </trkpt>
      <trkpt lat="42.736667" lon="1.786204">
        <ele>764.4</ele>
        <time>2013-03-21T18:00:09Z</time>
      </trkpt>
      <trkpt lat="42.736573" lon="1.786430">
        <ele>764.4</ele>
        <time>2013-03-21T18:00:30Z</time>
        <name>Parking Le Castelet</name>
      </trkpt>
    </trkseg>
  </trk>
</gpx>

